[[{"header":{"parameterUnit":"m.s-1","parameterCategory":1,"la1":30.6,"la2":29.2853,"lo1":-89.7004,"lo2":-87.6739,"dy":0.0162,"dx":0.0183,"nx":112,"ny":82,"refTime":"2026-05-05T12:00:00:Z","depth":0,"parameterNumber":2,"parameterNumberName":"U-component_of_WINDS"},"data":[0.0,0.0,0.0,0.0,0.0,0.0,0.0,0.0,0.0,0.0,0.0,0.0,0.0,0.0,0.0,0.0,0.0,0.0,0.0,0.0,0.0,0.0,0.0,0.0,0.0,0.0,0.0,0.0,0.0,0.0,0.0,0.0,0.0,0.0,0.0,0.0,0.0,0.0,0.0,0.0,0.0,0.0,0.0,0.0,0.0,0.0,0.0,0.0,0.0,0.0,0.0,0.0,0.0,0.0,0.0,0.0,0.0,0.0,0.0,0.0,0.0,0.0,0.0,0.0,0.0,0.0,0.0,0.0,0.0,0.0,0.0,0.0,0.0,0.0,0.0,0.0,0.0,0.0,0.0,0.0,0.0,0.0,0.0,0.0,0.0,0.0,0.0,0.0,0.0,0.0,-1.035,-0.9998,-1.0653,-1.1368,-1.1949,-1.137,-1.0773,-1.0198,0.0,0.0,0.0,0.0,0.0,0.0,0.0,0.0,0.0,0.0,0.0,0.0,0.0,0.0,0.0,0.0,0.0,0.0,0.0,0.0,0.0,0.0,0.0,0.0,0.0,0.0,0.0,0.0,0.0,0.0,0.0,0.0,0.0,0.0,0.0,0.0,0.0,0.0,0.0,0.0,0.0,0.0,0.0,0.0,0.0,0.0,0.0,0.0,0.0,0.0,0.0,0.0,0.0,0.0,0.0,0.0,0.0,0.0,0.0,0.0,0.0,0.0,0.0,0.0,0.0,0.0,0.0,0.0,0.0,0.0,0.0,0.0,0.0,0.0,0.0,0.0,0.0,0.0,0.0,0.0,0.0,0.0,0.0,0.0,0.0,0.0,0.0,0.0,0.0,0.0,0.0,0.0,0.0,0.0,0.0,0.0,0.0,0.0,0.0,0.0,0.0,0.0,0.0,0.0,-1.2596,-1.2485,-1.2087,-1.1878,-1.1992,-1.137,-1.0844,-1.0473,0.0,0.0,0.0,0.0,0.0,0.0,0.0,0.0,0.0,0.0,0.0,0.0,0.0,0.0,0.0,0.0,0.0,0.0,0.0,0.0,0.0,0.0,0.0,0.0,0.0,0.0,0.0,0.0,0.0,0.0,0.0,0.0,0.0,0.0,0.0,0.0,0.0,0.0,0.0,0.0,0.0,0.0,0.0,0.0,0.0,0.0,0.0,0.0,0.0,0.0,0.0,0.0,0.0,0.0,0.0,0.0,0.0,0.0,0.0,0.0,0.0,0.0,0.0,0.0,0.0,0.0,0.0,0.0,0.0,0.0,0.0,0.0,0.0,0.0,0.0,0.0,0.0,0.0,0.0,0.0,0.0,0.0,0.0,0.0,0.0,0.0,0.0,0.0,0.0,0.0,0.0,0.0,0.0,0.0,0.0,0.0,0.0,0.0,0.0,0.0,0.0,0.0,0.0,-1.2641,-1.3068,-1.2862,-1.2883,-1.2692,-1.2046,-1.1834,-1.1915,-1.2324,-0.9013,0.0,0.0,0.0,0.0,0.0,0.0,0.0,0.0,0.0,0.0,0.0,0.0,0.0,0.0,0.0,0.0,0.0,0.0,0.0,0.0,0.0,0.0,0.0,0.0,0.0,0.0,0.0,0.0,0.0,0.0,0.0,0.0,0.0,0.0,0.0,0.0,0.0,0.0,0.0,0.0,0.0,0.0,0.0,0.0,0.0,0.0,0.0,0.0,0.0,0.0,0.0,0.0,0.0,0.0,0.0,0.0,0.0,0.0,0.0,0.0,0.0,0.0,0.0,0.0,0.0,0.0,0.0,0.0,0.0,0.0,0.0,0.0,0.0,0.0,0.0,0.0,0.0,0.0,0.0,0.0,0.0,0.0,0.0,0.0,0.0,0.0,0.0,0.0,0.0,0.0,0.0,0.0,0.0,0.0,0.0,0.0,0.0,0.0,0.0,0.0,0.0,0.0,-1.3298,-1.3112,-1.2959,-1.3366,-1.322,-1.2227,-1.2469,-1.2999,-1.3861,-1.1189,0.0,0.0,0.0,0.0,0.0,0.0,0.0,0.0,0.0,0.0,0.0,0.0,0.0,0.0,0.0,0.0,0.0,0.0,0.0,0.0,0.0,0.0,0.0,0.0,0.0,0.0,0.0,0.0,0.0,0.0,0.0,0.0,0.0,0.0,0.0,0.0,0.0,0.0,0.0,0.0,0.0,0.0,0.0,0.0,0.0,0.0,0.0,0.0,0.0,0.0,0.0,0.0,0.0,0.0,0.0,0.0,0.0,0.0,0.0,0.0,0.0,0.0,0.0,0.0,0.0,0.0,0.0,0.0,0.0,0.0,0.0,0.0,0.0,0.0,0.0,0.0,0.0,0.0,0.0,0.0,0.0,0.0,0.0,0.0,0.0,0.0,0.0,0.0,0.0,0.0,0.0,0.0,0.0,0.0,0.0,0.0,0.0,0.0,0.0,0.0,0.0,0.0,-1.3396,-1.3233,-1.3597,-1.3506,-1.3199,-1.2609,-1.3041,-1.35,-1.3899,-1.3316,0.0,0.0,0.0,0.0,0.0,0.0,0.0,0.0,0.0,0.0,0.0,0.0,0.0,0.0,0.0,0.0,0.0,0.0,0.0,0.0,0.0,0.0,0.0,0.0,0.0,0.0,0.0,0.0,0.0,0.0,0.0,0.0,0.0,0.0,0.0,0.0,0.0,0.0,0.0,0.0,0.0,0.0,0.0,0.0,0.0,0.0,0.0,0.0,0.0,0.0,0.0,0.0,0.0,0.0,0.0,0.0,0.0,0.0,0.0,0.0,0.0,0.0,0.0,0.0,0.0,0.0,0.0,0.0,0.0,0.0,0.0,0.0,0.0,0.0,0.0,0.0,0.0,0.0,0.0,0.0,0.0,0.0,0.0,0.0,0.0,0.0,0.0,0.0,0.0,0.0,0.0,0.0,0.0,0.0,0.0,0.0,0.0,0.0,0.0,0.0,0.0,0.0,-1.3456,-1.336,-1.3254,-1.4006,-1.4015,-1.2836,-1.3521,-1.4414,-1.5269,0.0,0.0,0.0,0.0,0.0,0.0,0.0,0.0,0.0,0.0,0.0,0.0,0.0,0.0,0.0,0.0,0.0,0.0,0.0,0.0,0.0,0.0,0.0,0.0,0.0,0.0,0.0,0.0,0.0,0.0,0.0,0.0,0.0,0.0,0.0,0.0,0.0,0.0,0.0,0.0,0.0,0.0,0.0,0.0,0.0,0.0,0.0,0.0,0.0,0.0,0.0,0.0,0.0,0.0,0.0,0.0,0.0,0.0,0.0,0.0,0.0,0.0,0.0,0.0,0.0,0.0,0.0,0.0,0.0,0.0,0.0,0.0,0.0,0.0,0.0,0.0,0.0,0.0,0.0,0.0,0.0,0.0,0.0,0.0,0.0,0.0,0.0,0.0,0.0,0.0,0.0,0.0,0.0,0.0,0.0,0.0,0.0,0.0,0.0,0.0,0.0,0.0,-1.243,-1.2909,-1.3093,-1.2937,-1.381,-1.3898,-1.2698,-1.3775,-1.4917,-1.5808,0.0,0.0,0.0,0.0,0.0,0.0,0.0,0.0,0.0,0.0,0.0,0.0,0.0,0.0,0.0,0.0,0.0,0.0,0.0,0.0,0.0,0.0,0.0,0.0,0.0,0.0,0.0,0.0,0.0,0.0,0.0,0.0,0.0,0.0,0.0,0.0,0.0,0.0,0.0,0.0,0.0,0.0,0.0,0.0,0.0,0.0,0.0,0.0,0.0,0.0,0.0,0.0,0.0,0.0,0.0,0.0,0.0,0.0,0.0,0.0,0.0,0.0,0.0,0.0,0.0,0.0,0.0,0.0,0.0,0.0,0.0,0.0,0.0,0.0,0.0,0.0,0.0,0.0,0.0,0.0,0.0,0.0,0.0,0.0,0.0,0.0,0.0,0.0,0.0,0.0,0.0,0.0,0.0,0.0,0.0,0.0,0.0,0.0,0.0,0.0,0.0,0.0,-1.0907,-1.1668,-1.2299,-1.2659,-1.269,-1.2547,-1.2157,-1.378,-1.49,0.0,0.0,0.0,0.0,0.0,0.0,0.0,0.0,0.0,0.0,0.0,0.0,0.0,0.0,0.0,0.0,0.0,0.0,0.0,0.0,0.0,0.0,0.0,0.0,0.0,0.0,0.0,0.0,0.0,0.0,0.0,0.0,0.0,0.0,0.0,0.0,0.0,0.0,0.0,0.0,0.0,0.0,0.0,0.0,0.0,0.0,0.0,0.0,0.0,0.0,0.0,0.0,0.0,0.0,0.0,0.0,0.0,0.0,0.0,0.0,0.0,0.0,0.0,0.0,0.0,0.0,0.0,0.0,0.0,0.0,0.0,0.0,0.0,0.0,0.0,0.0,0.0,0.0,0.0,0.0,0.0,0.0,0.0,0.0,0.0,0.0,0.0,0.0,0.0,0.0,0.0,0.0,0.0,0.0,0.0,0.0,0.0,0.0,0.0,0.0,0.0,0.0,0.0,-0.9809,-1.0211,-1.0744,-1.163,-1.204,-1.2447,-1.2912,-1.414,-1.522,-1.6045,0.0,0.0,0.0,0.0,0.0,0.0,0.0,0.0,0.0,0.0,0.0,0.0,0.0,0.0,0.0,0.0,0.0,0.0,0.0,0.0,0.0,0.0,0.0,0.0,0.0,0.0,0.0,0.0,0.0,0.0,0.0,0.0,0.0,0.0,0.0,0.0,0.0,0.0,0.0,0.0,0.0,0.0,0.0,0.0,0.0,0.0,0.0,0.0,0.0,0.0,0.0,0.0,0.0,0.0,0.0,0.0,0.0,0.0,0.0,0.0,0.0,0.0,0.0,0.0,0.0,0.0,0.0,0.0,0.0,0.0,0.0,0.0,0.0,0.0,0.0,0.0,0.0,0.0,0.0,0.0,0.0,0.0,0.0,0.0,0.0,0.0,0.0,0.0,0.0,0.0,0.0,0.0,0.0,0.0,0.0,0.0,0.0,0.0,0.0,0.0,0.0,0.0,-0.913,-0.9556,-1.0084,-1.0727,-1.0997,-1.1591,-1.277,-1.3755,-1.5003,-1.6625,0.0,0.0,0.0,0.0,0.0,0.0,0.0,0.0,0.0,0.0,0.0,0.0,0.0,0.0,0.0,0.0,0.0,0.0,0.0,0.0,0.0,0.0,0.0,0.0,0.0,0.0,0.0,0.0,0.0,0.0,0.0,0.0,0.0,0.0,0.0,0.0,0.0,0.0,0.0,0.0,0.0,0.0,0.0,0.0,0.0,0.0,0.0,0.0,0.0,0.0,0.0,0.0,0.0,0.0,0.0,0.0,0.0,0.0,0.0,0.0,0.0,0.0,0.0,0.0,0.0,0.0,0.0,0.0,0.0,0.0,0.0,0.0,0.0,0.0,0.0,0.0,0.0,0.0,0.0,0.0,0.0,0.0,0.0,0.0,0.0,0.0,0.0,0.0,0.0,0.0,0.0,0.0,0.0,0.0,0.0,0.0,0.0,0.0,0.0,0.0,0.0,0.0,-0.8426,-0.9169,-0.9722,-0.9784,-0.9722,-1.0324,-1.2,-1.2984,-1.4551,-1.6953,0.0,0.0,0.0,0.0,0.0,0.0,0.0,0.0,0.0,0.0,0.0,0.0,0.0,0.0,0.0,0.0,0.0,0.0,0.0,0.0,0.0,0.0,0.0,0.0,0.0,0.0,0.0,0.0,0.0,0.0,0.0,0.0,0.0,0.0,0.0,0.0,0.0,0.0,0.0,0.0,0.0,0.0,0.0,0.0,0.0,0.0,0.0,0.0,0.0,0.0,0.0,0.0,0.0,0.0,0.0,0.0,0.0,0.0,0.0,0.0,-1.5513,-1.6728,0.0,0.0,0.0,0.0,0.0,0.0,0.0,0.0,0.0,0.0,0.0,0.0,0.0,0.0,0.0,0.0,0.0,0.0,0.0,0.0,0.0,0.0,0.0,0.0,0.0,0.0,0.0,0.0,0.0,0.0,0.0,0.0,0.0,0.0,0.0,0.0,0.0,0.0,0.0,0.0,-0.6051,-0.6797,-0.7567,-0.8205,-0.8942,-0.9992,-1.1434,-1.3353,-1.5282,-1.7063,-1.9784,0.0,0.0,0.0,0.0,0.0,0.0,0.0,0.0,0.0,0.0,0.0,0.0,0.0,0.0,0.0,0.0,0.0,0.0,0.0,0.0,0.0,0.0,0.0,0.0,0.0,0.0,0.0,0.0,0.0,0.0,0.0,0.0,0.0,0.0,0.0,0.0,0.0,0.0,0.0,0.0,0.0,0.0,0.0,0.0,0.0,0.0,0.0,0.0,0.0,0.0,0.0,0.0,0.0,0.0,0.0,0.0,0.0,0.0,0.0,-1.5472,-1.6269,0.0,0.0,0.0,0.0,0.0,0.0,0.0,0.0,0.0,0.0,0.0,0.0,0.0,0.0,0.0,0.0,0.0,0.0,0.0,0.0,0.0,0.0,0.0,0.0,0.0,0.0,0.0,0.0,0.0,0.0,0.0,0.0,0.0,0.0,0.0,0.0,0.0,0.0,0.0,0.0,-0.568,-0.6022,-0.6662,-0.7629,-0.7786,-0.8822,-1.1298,-1.257,-1.4237,-1.6468,-1.9432,0.0,0.0,0.0,0.0,0.0,0.0,0.0,0.0,0.0,0.0,0.0,0.0,0.0,0.0,0.0,0.0,0.0,0.0,0.0,0.0,0.0,0.0,0.0,0.0,0.0,0.0,0.0,0.0,0.0,0.0,0.0,0.0,0.0,0.0,0.0,0.0,0.0,0.0,0.0,0.0,0.0,0.0,0.0,0.0,0.0,0.0,0.0,0.0,0.0,0.0,0.0,0.0,0.0,-1.2637,-1.3066,-1.3835,-1.3835,-1.4391,-1.5293,-1.5009,-1.554,-1.6543,-1.6797,0.0,0.0,0.0,0.0,0.0,0.0,0.0,0.0,0.0,0.0,0.0,0.0,0.0,0.0,0.0,0.0,0.0,0.0,0.0,0.0,0.0,0.0,-1.1477,-1.1229,-1.0243,-0.963,-1.0583,0.0,0.0,0.0,0.0,0.0,0.0,0.0,0.0,0.0,0.0,0.0,-0.5784,-0.5816,-0.6181,-0.7177,-0.6748,-0.7638,-1.0742,-1.1378,-1.2799,-1.5586,-1.8459,-2.0937,0.0,0.0,0.0,0.0,0.0,0.0,0.0,0.0,0.0,0.0,0.0,0.0,0.0,0.0,0.0,0.0,0.0,0.0,0.0,0.0,0.0,0.0,0.0,0.0,0.0,0.0,0.0,0.0,0.0,0.0,0.0,0.0,-0.4967,-0.5758,0.0,0.0,0.0,0.0,0.0,0.0,0.0,0.0,0.0,0.0,0.0,0.0,0.0,-1.1339,-1.2222,-1.2365,-1.2336,-1.2186,-1.2357,-1.2507,-1.2642,-1.2883,-1.3136,-1.3456,-1.3631,0.0,-1.7549,-1.8087,0.0,0.0,0.0,0.0,0.0,0.0,0.0,0.0,0.0,0.0,0.0,0.0,0.0,0.0,0.0,0.0,0.0,0.0,0.0,0.0,0.0,0.0,-1.0105,-0.9887,-0.9092,-0.8371,-0.8302,-0.8489,-0.8562,-0.8068,-0.7932,-0.7501,0.0,0.0,0.0,0.0,0.0,0.0,-0.4599,-0.5057,-0.5443,-0.5617,-0.6486,-0.746,-0.8471,-1.0427,-1.2537,-1.4733,-1.6788,-1.9456,-2.2843,-2.3538,0.0,0.0,0.0,0.0,0.0,0.0,0.0,0.0,0.0,0.0,0.0,0.0,0.0,0.0,0.0,0.0,0.0,0.0,0.0,0.0,0.0,0.0,0.0,0.0,0.0,0.0,0.0,0.0,0.0,-0.4098,-0.4678,-0.5166,-0.6124,-0.7232,0.0,0.0,0.0,0.0,0.0,0.0,0.0,0.0,0.0,-0.8816,-1.058,-1.1253,-1.0721,-1.1822,-1.2411,-1.2499,-1.256,-1.2608,-1.2608,-1.2757,-1.2908,-1.3141,-1.3975,-1.5111,-1.6433,-1.661,-1.7365,-1.836,0.0,0.0,0.0,0.0,-1.7803,-1.6645,-1.6904,-1.6468,-1.5661,-1.476,0.0,0.0,0.0,0.0,0.0,0.0,0.0,-1.186,-1.1001,-1.035,-0.9744,-0.9134,-0.8249,-0.7711,-0.8111,-0.7789,-0.7473,-0.7459,-0.7485,-0.7156,-0.5888,-0.5054,0.0,0.0,0.0,-0.3622,-0.3909,-0.454,-0.519,-0.585,-0.6061,-0.6661,-0.7995,-0.9509,-1.1397,-1.3653,-1.6158,-1.8965,-2.2125,-2.2868,-2.4595,0.0,0.0,0.0,0.0,0.0,0.0,0.0,0.0,0.0,0.0,0.0,0.0,0.0,0.0,0.0,0.0,0.0,0.0,0.0,0.0,0.0,0.0,0.0,0.0,0.0,0.0,0.0,0.0,-0.3522,-0.4199,-0.4654,-0.5557,-0.652,0.0,0.0,0.0,0.0,0.0,0.0,-0.8344,-0.8988,-0.8888,-0.793,-1.0231,-1.1075,-1.0272,-1.1728,-1.2592,-1.2813,-1.2813,-1.2813,-1.2813,-1.2813,-1.2856,-1.3098,-1.4094,-1.4657,-1.4965,-1.5392,-1.6601,-1.8158,-1.7539,-1.7486,-1.7755,-1.824,-1.7581,-1.647,-1.6822,-1.6566,-1.592,-1.4724,-1.393,-1.3381,-1.2754,0.0,0.0,0.0,0.0,-1.1115,-0.9904,-0.9402,-0.9037,-0.8332,-0.7448,-0.6922,-0.7625,-0.7135,-0.6625,-0.7066,-0.7201,-0.6767,-0.5254,-0.4478,0.0,-0.2984,-0.2874,-0.2977,-0.3292,-0.3801,-0.445,-0.532,-0.5174,-0.5583,-0.7038,-0.8322,-1.0008,-1.2335,-1.4922,-1.7685,-2.0711,-2.143,-2.3155,-2.6063,0.0,0.0,0.0,0.0,0.0,0.0,0.0,0.0,0.0,0.0,0.0,0.0,0.0,0.0,0.0,0.0,0.0,0.0,0.0,0.0,0.0,0.0,0.0,0.0,0.0,0.0,0.0,0.0,0.0,-0.4434,-0.5716,0.0,0.0,0.0,0.0,-0.9099,-0.8195,-0.7553,-0.7546,-0.6894,-0.7353,-0.926,-0.9583,-1.0667,-1.2597,-1.2743,-1.2802,-1.2813,-1.2813,-1.2813,-1.2813,-1.2813,-1.2813,-1.2813,-1.3098,-1.334,-1.3757,-1.5809,-1.7236,-1.8068,-1.678,-1.6873,-1.7573,-1.6698,-1.5756,-1.491,-1.4955,-1.4385,-1.3643,-1.3574,-1.3213,-1.2836,-1.2823,-1.2462,0.0,0.0,-1.0527,-1.0301,-0.9054,-0.8106,-0.7396,-0.7214,-0.6438,-0.5777,-0.5822,-0.5816,-0.5992,-0.6847,-0.6898,-0.6171,-0.4048,0.0,-0.3463,-0.2416,-0.2238,-0.2333,-0.2515,-0.2584,-0.2621,-0.2702,-0.3561,-0.4261,-0.4567,-0.6556,-0.8615,-1.0595,-1.2109,-1.459,-1.8311,-1.8978,-2.0345,-2.2614,-2.4367,0.0,0.0,0.0,0.0,0.0,0.0,0.0,0.0,0.0,0.0,0.0,0.0,0.0,0.0,0.0,0.0,0.0,0.0,0.0,0.0,0.0,0.0,0.0,0.0,0.0,0.0,0.0,0.0,-0.4508,-0.5678,0.0,-0.664,-0.6711,-0.6832,-0.7158,-0.6914,-0.6729,-0.6729,-0.714,-0.775,-0.8479,-0.9862,-1.0979,-1.1765,-1.2462,-1.2813,-1.2813,-1.2813,-1.2813,-1.2813,-1.2813,-1.2813,-1.2813,-1.3001,-1.3244,-1.3582,-1.4529,-1.5604,-1.6611,-1.6128,-1.6171,-1.6494,-1.6815,-1.631,-1.5431,-1.5431,-1.5252,-1.4867,-1.4001,-1.354,-1.3213,-1.2893,-1.2308,-1.1617,-1.0731,-1.0144,-0.9473,-0.8251,-0.7608,-0.7158,-0.6482,-0.6009,-0.5688,-0.5688,-0.5688,-0.563,-0.5313,-0.5157,-0.4825,-0.4035,-0.2969,-0.2065,-0.1688,-0.1611,-0.1647,-0.1728,-0.219,-0.2564,-0.2727,-0.3207,-0.3848,-0.4702,-0.6116,-0.7882,-1.0065,-1.1867,-1.4069,-1.6843,-1.8078,-1.947,-2.1075,-2.2315,-2.3327,0.0,0.0,0.0,0.0,0.0,0.0,0.0,0.0,0.0,0.0,0.0,0.0,0.0,0.0,0.0,0.0,0.0,0.0,0.0,0.0,0.0,0.0,0.0,0.0,0.0,-0.2526,-0.3573,-0.46,-0.566,-0.6279,-0.6159,-0.6181,-0.6203,-0.6203,-0.6279,-0.6325,-0.6325,-0.7035,-0.7776,-0.8517,-0.9895,-1.1028,-1.1717,-1.2462,-1.2813,-1.2813,-1.2813,-1.2813,-1.2813,-1.2813,-1.2813,-1.2813,-1.2953,-1.3195,-1.3491,-1.369,-1.4394,-1.5283,-1.5283,-1.5514,-1.5839,-1.617,-1.5893,-1.5283,-1.5283,-1.5283,-1.5108,-1.3892,-1.335,-1.3072,-1.2368,-1.1708,-1.1004,-1.0065,-0.9345,-0.857,-0.7387,-0.702,-0.679,-0.6058,-0.5844,-0.5689,-0.5292,-0.524,-0.4971,-0.403,-0.4028,-0.398,-0.3299,-0.2157,-0.124,-0.0927,-0.0846,-0.0844,-0.0866,-0.1415,-0.1879,-0.2057,-0.2497,-0.3148,-0.4024,-0.5056,-0.6654,-0.8949,-1.0393,-1.2369,-1.5105,-1.6292,-1.7501,-1.8873,-1.9595,-2.0739,-2.2299,0.0,0.0,0.0,0.0,0.0,0.0,0.0,0.0,0.0,0.0,0.0,0.0,0.0,0.0,0.0,0.0,0.0,0.0,0.0,0.0,0.0,0.0,0.0,-0.147,-0.2548,-0.3576,-0.4604,-0.5721,-0.6393,-0.6333,-0.6372,-0.6387,-0.6387,-0.6387,-0.6387,-0.6387,-0.6387,-0.7378,-0.9509,-0.9558,-1.0592,-1.271,-1.2764,-1.2764,-1.2813,-1.2813,-1.2813,-1.2813,-1.2813,-1.2813,-1.2813,-1.2813,-1.3055,-1.3491,-1.3491,-1.3823,-1.4298,-1.4298,-1.4908,-1.5656,-1.4675,-1.4298,-1.4298,-1.4298,-1.4298,-1.41,-1.3071,-1.2678,-1.2436,-1.117,-1.0587,-1.0096,-0.8775,-0.8177,-0.7694,-0.6594,-0.632,-0.6257,-0.5969,-0.5861,-0.5552,-0.4546,-0.4302,-0.3985,-0.3045,-0.3583,-0.3604,-0.1745,-0.1372,-0.1062,-0.0127,0.0,0.0,0.0,-0.0253,-0.038,-0.0379,-0.1305,-0.202,-0.2227,-0.3318,-0.4944,-0.7035,-0.7566,-0.9383,-1.2989,-1.3454,-1.4348,-1.5811,-1.6311,-1.7411,-1.9169,0.0,0.0,0.0,0.0,0.0,0.0,0.0,0.0,0.0,0.0,0.0,0.0,0.0,0.0,0.0,0.0,0.0,0.0,0.0,0.0,0.0,0.0,-0.0393,-0.147,-0.2528,-0.3598,-0.4646,-0.5717,-0.6373,-0.6393,-0.6368,-0.6387,-0.6387,-0.6387,-0.6387,-0.6387,-0.6387,-0.703,-0.8418,-0.8418,-0.9452,-1.1619,-1.1619,-1.2014,-1.2813,-1.2813,-1.2813,-1.2813,-1.2813,-1.2813,-1.2813,-1.2813,-1.3055,-1.3491,-1.3491,-1.3823,-1.4298,-1.4298,-1.4484,-1.4675,-1.4388,-1.4298,-1.4298,-1.4298,-1.4298,-1.41,-1.3071,-1.2678,-1.2436,-1.117,-1.0342,-0.9608,-0.8676,-0.7932,-0.7276,-0.6548,-0.6331,-0.63,-0.6184,-0.5514,-0.4787,-0.4487,-0.3845,-0.3001,-0.2017,-0.2017,-0.2013,-0.1513,-0.085,-0.0313,-0.0044,0.0,-0.0088,-0.0259,-0.035,-0.0175,0.0345,-0.0175,-0.0572,-0.0614,-0.1757,-0.2985,-0.4241,-0.6227,-0.795,-0.9262,-1.1408,-1.317,-1.4518,-1.5276,-1.5922,0.0,0.0,0.0,0.0,0.0,0.0,0.0,0.0,0.0,0.0,0.0,0.0,0.0,0.0,0.0,0.0,0.0,0.0,0.0,0.0,0.0,0.0,-0.0392,-0.1042,-0.2132,-0.2802,-0.3575,-0.4684,-0.5734,-0.6387,-0.6387,-0.6387,-0.6387,-0.6387,-0.6387,-0.6387,-0.6387,-0.6387,-0.6883,-0.7975,-0.8418,-0.9501,-1.117,-1.1668,-1.2165,-1.2813,-1.2813,-1.2813,-1.2813,-1.2813,-1.2813,-1.2813,-1.2813,-1.3007,-1.3346,-1.3346,-1.3582,-1.3968,0.0,0.0,0.0,0.0,-1.4298,-1.4298,-1.4298,-1.4004,-1.3463,-1.2387,-1.1755,-1.117,-0.9998,-0.9213,-0.8676,-0.8187,-0.759,-0.6939,-0.6639,-0.6437,-0.6227,-0.5738,-0.5115,-0.4332,-0.3417,-0.2725,-0.1973,-0.0987,-0.0808,0.0,-0.0808,-0.0359,0.0,0.0,-0.009,-0.0223,-0.0397,-0.0579,-0.0536,-0.0088,-0.0356,-0.0493,-0.0179,-0.0799,0.0,0.0,0.0,-0.569,-0.7296,-0.9798,0.0,0.0,0.0,0.0,0.0,0.0,0.0,0.0,-1.7295,-1.7636,0.0,0.0,0.0,0.0,0.0,0.0,0.0,0.0,0.0,0.0,0.0,0.0,0.0,0.0,0.0,0.0,-0.0997,-0.2016,-0.3224,-0.3374,-0.3776,-0.4834,-0.5834,-0.6392,-0.6406,-0.6408,-0.6414,-0.6427,-0.6427,-0.6427,-0.6427,-0.6427,0.0,0.0,0.0,-0.9978,-1.1056,-1.2103,-1.2715,-1.2894,-1.2862,-1.2851,-1.2851,-1.2824,-1.2813,-1.2813,-1.2813,-1.2905,-1.3098,-1.3147,-1.334,-1.3636,-1.4064,-1.425,-1.4298,-1.4298,-1.4298,-1.4292,-1.4148,0.0,0.0,-1.1365,-1.0391,-0.941,-0.8333,-0.7842,-0.7646,-0.7596,-0.7244,-0.6895,-0.6845,-0.6539,-0.6009,-0.5027,-0.4548,-0.3842,-0.1907,-0.1369,-0.099,-0.018,-0.0045,-0.0045,-0.009,-0.0045,0.0,0.0045,-0.0135,-0.0269,-0.0224,-0.0583,-0.0807,-0.0717,-0.0897,0.0,0.0,0.0,-0.0174,-0.0477,-0.1277,-0.3132,-0.6272,-0.8185,-0.9247,-0.9289,-1.0077,-1.0352,-1.0029,-1.0985,-1.1387,-1.1238,-1.3155,-1.4711,0.0,0.0,0.0,0.0,0.0,0.0,0.0,0.0,0.0,0.0,0.0,0.0,0.0,0.0,0.0,-0.1127,-0.1444,-0.2267,-0.423,-0.4481,-0.4883,-0.5984,-0.6287,-0.6425,-0.6575,-0.6584,-0.6624,-0.6722,-0.6733,-0.6733,-0.6733,-0.6733,-0.6791,-0.689,-0.7903,-0.9062,-1.0217,-1.123,-1.2279,-1.334,-1.3136,0.0,-1.3034,-1.285,-1.2813,-1.2813,-1.2813,-1.2905,-1.3098,-1.3346,-1.3727,-1.4106,-1.4022,-1.4118,-1.4298,-1.4298,-1.4298,-1.4196,-1.3318,-1.2877,-1.2387,-1.0538,-0.9756,-0.941,-0.8333,-0.7942,0.0,-0.7643,-0.7547,-0.7394,-0.7191,-0.6284,-0.5425,-0.5409,-0.3751,-0.2132,-0.1948,-0.1025,-0.0274,-0.0315,-0.0314,-0.0359,-0.0538,-0.0448,-0.0135,0.0493,0.0404,0.0403,0.0762,0.0718,0.0986,0.1702,0.1434,0.1614,0.2734,0.1965,0.1381,0.1292,-0.031,-0.2058,-0.3884,-0.491,-0.5686,-0.6254,-0.7332,-0.7812,-0.7675,-0.8501,-0.8828,-0.8682,-1.1192,-1.2544,0.0,0.0,0.0,0.0,0.0,0.0,0.0,0.0,0.0,0.0,0.0,-0.0143,-0.0724,0.0,-0.1131,-0.2232,-0.2854,-0.3575,-0.4634,-0.5286,-0.5787,-0.6337,-0.6387,-0.6433,-0.6608,-0.6619,-0.6671,-0.6793,-0.6801,-0.6801,-0.6801,-0.6801,-0.6774,-0.6711,-0.8308,-0.944,-1.0053,-1.1703,-1.2842,-1.3475,-1.3351,-1.3292,-1.3281,-1.3044,-1.2931,-1.2926,-1.2862,-1.2905,-1.3098,-1.3394,-1.3732,-1.4022,-1.3383,-1.3624,-1.4298,-1.4298,-1.395,-1.3414,-1.2877,-1.1999,-1.0974,-0.9948,-0.9217,-0.8676,-0.8187,-0.7988,-0.7992,-0.7842,-0.7693,-0.7394,-0.6631,-0.5879,-0.5081,-0.3875,-0.2781,-0.1857,-0.1308,-0.0667,-0.0233,-0.0366,-0.041,-0.0227,0.0269,0.0045,-0.0045,0.0493,0.0673,0.0852,0.1076,0.0987,0.1076,0.1568,0.1389,0.1659,0.2601,0.2467,0.2199,0.1839,0.0313,-0.1067,-0.2157,-0.3473,-0.4308,-0.4662,-0.5624,-0.6071,-0.6003,-0.6399,-0.6562,-0.6496,-0.7839,-0.9236,0.0,0.0,0.0,0.0,0.0,0.0,0.0,0.0,0.0,0.0,-0.0145,-0.0581,-0.1425,-0.1774,-0.2277,-0.3316,-0.423,-0.4885,-0.5083,-0.5837,-0.6387,-0.6387,-0.6387,-0.6443,-0.6641,-0.6654,-0.6714,-0.6861,-0.6872,-0.6872,-0.6872,-0.6872,-0.6861,-0.6839,-0.8986,-1.0032,-0.9822,-1.2077,-1.3251,-1.3293,-1.3251,-1.3333,-1.3534,-1.3238,-1.3104,-1.3087,-1.291,-1.3001,-1.3201,-1.3491,-1.3588,-1.3582,-1.2786,-1.298,-1.3709,-1.3709,-1.3167,-1.2387,-1.2193,-1.1023,-0.9558,-0.9361,-0.8726,-0.7988,-0.7988,-0.7988,-0.7988,-0.7988,-0.7842,-0.7391,-0.6079,-0.5579,-0.4778,-0.2469,-0.1994,-0.1823,-0.0786,-0.0485,-0.0429,-0.0514,-0.0512,-0.0139,0.0911,0.0543,0.0315,0.0807,0.1076,0.13,0.1436,0.1256,0.1121,0.1121,0.1121,0.139,0.1974,0.2558,0.2649,0.2064,0.112,0.0179,-0.0718,-0.2282,-0.3266,-0.3582,-0.4378,-0.4776,-0.4776,-0.4865,-0.4919,-0.4938,-0.4895,-0.6136,0.0,0.0,0.0,0.0,0.0,0.0,0.0,0.0,0.0,0.0,-0.0752,-0.1454,-0.1558,-0.2361,-0.3366,-0.4431,-0.4734,-0.5135,-0.6087,-0.6337,-0.6387,-0.6387,-0.6387,-0.6476,-0.6757,-0.6782,-0.6874,-0.7152,-0.7172,-0.7172,-0.7172,-0.7172,-0.7122,-0.697,-0.9101,-0.9846,-0.8883,-1.1124,-1.2331,-1.2508,-1.2327,-1.2773,-1.3766,-1.3308,-1.3104,-1.3093,-1.3057,-1.3195,-1.3491,-1.3738,-1.3431,-1.2829,-1.2732,-1.2193,-1.156,-1.156,-1.1463,-1.1219,-1.0293,-0.9801,-0.946,-0.8482,-0.8088,-0.7988,-0.7988,-0.7988,-0.7988,-0.7988,-0.7992,-0.769,-0.6587,-0.5427,-0.4271,-0.3272,-0.1964,-0.1002,-0.1084,-0.0735,-0.0535,-0.1002,-0.0903,-0.0617,-0.019,0.028,0.1053,0.2426,0.2107,0.1974,0.2604,0.2694,0.2649,0.2649,0.2649,0.2694,0.2784,0.2873,0.2873,0.2784,0.2648,0.1929,0.0538,-0.009,-0.1074,-0.2378,-0.3448,-0.4026,-0.4026,-0.4425,-0.469,-0.4723,-0.4499,-0.4771,0.0269,0.0135,0.0,0.0,0.0,0.0,0.0,0.0,-0.0197,-0.0804,-0.1311,-0.1966,-0.3224,-0.3827,-0.4481,-0.5534,-0.5734,-0.5884,-0.6337,-0.6387,-0.6387,-0.6387,-0.6449,-0.6611,-0.6785,-0.6801,-0.6902,-0.7191,-0.721,-0.721,-0.721,-0.721,-0.7188,-0.7141,-0.8664,-0.9261,-0.8828,-1.0454,-1.1305,-1.1433,-1.2004,-1.2505,-1.2983,-1.3357,-1.3418,-1.3342,-1.335,-1.3491,-1.369,-1.3335,-1.298,-1.2581,-1.1365,-1.0632,-1.0342,-1.0979,-1.0779,-1.0194,-0.9756,-0.9217,-0.8577,-0.8137,-0.7988,-0.7988,-0.7988,-0.7988,-0.7988,-0.7988,-0.754,-0.6786,-0.5577,-0.4474,-0.3371,-0.2117,-0.1515,-0.126,-0.12,-0.1048,-0.0943,-0.1169,-0.0728,-0.0048,0.0764,0.123,0.1922,0.3206,0.2869,0.2558,0.2873,0.292,0.292,0.292,0.292,0.292,0.292,0.292,0.292,0.292,0.2513,0.1974,0.1345,0.0762,-0.009,-0.1121,-0.1613,-0.206,-0.2464,-0.2674,-0.2562,-0.2122,-0.2008,-0.2079,0.0359,0.0135,0.0,0.0,0.0,-0.0047,-0.0338,-0.0389,-0.0685,-0.1744,-0.225,-0.2953,-0.4528,-0.5035,-0.5495,-0.6329,-0.6435,-0.6435,-0.6435,-0.6435,-0.6435,-0.6435,-0.6564,-0.6681,-0.6836,-0.6853,-0.6937,-0.7193,-0.721,-0.721,-0.721,-0.721,-0.721,-0.721,-0.8312,-0.8758,-0.8426,-0.9633,-1.0178,-1.0233,-1.1051,-1.176,-1.2408,-1.3498,-1.3819,-1.3601,-1.3673,-1.3651,-1.3437,-1.2931,-1.2375,-1.1747,-1.0222,-0.9514,-0.9407,-1.015,-0.9888,-0.9167,-0.9167,-0.8627,-0.7988,-0.7988,-0.7988,-0.7988,-0.7988,-0.7988,-0.7939,-0.7637,-0.6989,-0.6032,-0.4474,-0.3623,-0.2821,-0.1363,-0.1314,-0.1566,-0.1364,-0.1263,-0.1157,-0.0992,-0.0445,0.0394,0.1649,0.1926,0.2351,0.3454,0.3219,0.2968,0.2968,0.2953,0.2936,0.2921,0.292,0.292,0.292,0.292,0.292,0.292,0.2379,0.2019,0.1794,0.13,0.0673,-0.009,-0.009,-0.0317,-0.0814,-0.0831,-0.0561,0.0047,0.0191,0.0194,0.009,0.0,0.0,0.0,0.0,-0.0232,-0.1138,-0.1381,-0.1676,-0.2733,-0.3821,-0.463,-0.4768,-0.5634,-0.6425,-0.6543,-0.6613,-0.6613,-0.6613,-0.6613,-0.6613,-0.6613,-0.6616,-0.6714,-0.6956,-0.698,-0.7029,-0.7202,-0.721,-0.721,-0.721,-0.721,-0.721,-0.721,-0.8312,-0.8367,-0.7265,-0.8371,-0.8975,-0.8975,-0.8975,-1.0178,-1.2462,-1.371,-1.4133,-1.391,-1.4153,-1.3603,-1.2446,-1.2635,-1.1584,-0.9872,-0.9821,-0.9263,-0.8521,-0.857,-0.8337,-0.8038,-0.8038,-0.8038,-0.7988,-0.7988,-0.7988,-0.7988,-0.7988,-0.7988,-0.7789,-0.6736,-0.6437,-0.5934,-0.3775,-0.3224,-0.2923,-0.1818,-0.1566,-0.1617,-0.1566,-0.1364,-0.1061,-0.0505,-0.0202,0.0403,0.1762,0.1934,0.2204,0.299,0.3085,0.3091,0.3091,0.3039,0.298,0.2925,0.292,0.292,0.292,0.292,0.292,0.292,0.2873,0.2558,0.1839,0.1794,0.1436,0.0673,0.0732,0.0739,0.0739,0.0802,0.0817,0.088,0.1419,0.1582,0.0315,0.0136,0.0,0.0,0.0,-0.0232,-0.1184,-0.1379,-0.1913,-0.3754,-0.4454,-0.4922,-0.5715,-0.6137,-0.6427,-0.66,-0.6619,-0.6646,-0.6728,-0.6741,-0.6741,-0.6741,-0.6812,-0.6896,-0.6978,-0.6986,-0.7032,-0.7202,-0.721,-0.721,-0.721,-0.721,-0.721,-0.721,-0.7595,-0.7595,-0.721,-0.7595,-0.7762,-0.7762,-0.8754,-1.0453,-1.2738,-1.3174,-1.3885,-1.4652,-1.3812,-1.3281,-1.2954,-1.153,-1.0604,-0.9947,-0.9231,-0.8748,-0.8482,-0.8482,-0.8418,-0.8319,-0.8225,-0.8194,-0.8177,-0.8022,-0.7988,-0.7988,-0.7988,-0.7487,-0.6886,-0.6487,-0.5381,-0.4126,-0.3374,-0.2672,-0.207,-0.1667,-0.1617,-0.1617,-0.1617,-0.1516,-0.1263,-0.0556,0.0101,0.0857,0.1815,0.2408,0.2848,0.3149,0.3115,0.3097,0.3097,0.3079,0.3058,0.3039,0.3,0.2976,0.2976,0.2976,0.2976,0.2976,0.3014,0.2943,0.2663,0.2663,0.2335,0.1587,0.1926,0.1886,0.1414,0.1778,0.2238,0.2744,0.2875,0.2949,0.0319,0.0137,0.0,0.0,0.0,-0.0321,-0.1626,-0.1956,-0.258,-0.4768,-0.5184,-0.5479,-0.6313,-0.6452,-0.6556,-0.6722,-0.6749,-0.6777,-0.6858,-0.6866,-0.6866,-0.6866,-0.6937,-0.7162,-0.7641,-0.7319,-0.713,-0.7204,-0.721,-0.721,-0.721,-0.721,-0.721,-0.721,-0.721,-0.721,-0.721,-0.721,-0.7265,-0.7379,-0.8758,-1.0507,-1.2575,-1.2607,-1.335,-1.4583,-1.3221,-1.2486,-1.2098,-1.0707,-0.9915,-0.9557,-0.8825,-0.8598,-0.8645,-0.8645,-0.8645,-0.8618,-0.8414,-0.8347,-0.833,-0.8231,-0.8197,-0.8096,-0.7683,-0.7071,-0.6347,-0.5496,-0.432,-0.3149,-0.2727,-0.212,-0.1617,-0.1617,-0.1617,-0.1617,-0.1617,-0.1617,-0.1263,-0.0202,0.0454,0.1159,0.2219,0.2876,0.318,0.318,0.3312,0.3347,0.3133,0.308,0.3122,0.3098,0.3061,0.3037,0.3037,0.3037,0.3037,0.3037,0.3263,0.338,0.338,0.3572,0.3428,0.295,0.3306,0.3268,0.2787,0.3134,0.3609,0.4108,0.4251,0.4325,0.0093,0.0,0.0,0.0,-0.0045,-0.0584,-0.2466,-0.2957,-0.3579,-0.5654,-0.6081,-0.6189,-0.6545,-0.6578,-0.6719,-0.694,-0.6986,-0.6994,-0.6994,-0.6994,-0.6994,-0.6994,-0.7048,-0.7526,-0.8689,-0.7873,-0.7265,-0.721,-0.721,-0.721,-0.721,-0.721,-0.721,-0.721,-0.721,-0.721,-0.721,-0.721,-0.7324,-0.7607,-0.8816,-1.0233,-1.1928,-1.1928,-1.2573,-1.3656,-1.2442,-1.1274,-1.0112,-1.006,-0.9534,-0.8723,-0.8723,-0.8811,-0.8885,-0.8885,-0.8885,-0.8841,-0.8551,-0.8447,-0.844,-0.8486,-0.843,-0.8111,-0.7051,-0.6629,-0.6077,-0.3906,-0.3267,-0.2945,-0.1882,-0.1622,-0.1622,-0.1622,-0.1622,-0.1621,-0.162,-0.1568,-0.1062,0.0504,0.0857,0.1412,0.2927,0.318,0.318,0.318,0.3632,0.3757,0.32,0.3144,0.3123,0.3112,0.3151,0.3148,0.3102,0.3148,0.3148,0.3148,0.3626,0.3961,0.3961,0.4441,0.4683,0.4683,0.4713,0.4755,0.4755,0.4841,0.4885,0.4885,0.5384,0.5634,0.0095,0.0,0.0,0.0,-0.0507,-0.1371,-0.2615,-0.3454,-0.4336,-0.5779,-0.6095,-0.615,-0.6423,-0.6613,-0.6761,-0.6866,-0.6997,-0.7166,-0.7166,-0.7166,-0.7166,-0.7166,-0.788,-0.8222,-0.7703,-0.8149,-0.8094,-0.7265,-0.721,-0.721,-0.721,-0.721,-0.721,-0.721,-0.721,-0.721,-0.721,-0.7379,-0.7549,-0.7607,-0.8374,-0.9416,-1.0672,-1.0945,-1.1679,-1.271,-1.1526,-1.085,-1.0484,-0.9573,-0.9061,-0.8824,-0.8824,-0.8848,-0.8885,-0.8885,-0.8885,-0.8761,-0.7801,-0.7382,-0.7446,-0.8253,-0.7264,-0.5941,-0.6521,-0.5519,-0.4035,-0.3438,-0.2748,-0.206,-0.1736,-0.1682,-0.1682,-0.1682,-0.1682,-0.1676,-0.1655,-0.1185,-0.041,0.0606,0.1765,0.2725,0.313,0.318,0.318,0.318,0.3331,0.3325,0.3209,0.3506,0.36,0.3235,0.3485,0.3552,0.3116,0.3843,0.4132,0.3697,0.4237,0.4567,0.4567,0.4718,0.4767,0.4767,0.5185,0.5395,0.5395,0.5772,0.5984,0.5987,0.6134,0.6187,0.0048,-0.034,-0.068,-0.0707,-0.1387,-0.2367,-0.3381,-0.3995,-0.4728,-0.5852,-0.614,-0.6253,-0.6437,-0.6662,-0.6805,-0.6882,-0.7056,-0.721,-0.721,-0.721,-0.7376,-0.7873,-0.8094,-0.8312,-0.8696,-0.8367,-0.8094,-0.7983,-0.7487,-0.721,-0.721,-0.721,-0.721,-0.721,-0.721,-0.7265,-0.7379,-0.766,-0.7826,-0.7992,-0.8322,-0.9196,-1.0398,-1.0076,-1.0566,-1.1596,-1.0406,-0.9915,-0.986,-0.9154,-0.8885,-0.8885,-0.8885,-0.8885,-0.8826,-0.8325,-0.81,-0.7934,-0.6758,-0.5941,-0.5663,-0.6748,-0.6239,-0.5158,-0.532,-0.4456,-0.3314,-0.2806,-0.2208,-0.1721,-0.1707,-0.1704,-0.1704,-0.1704,-0.1704,-0.1594,-0.121,-0.0735,-0.0052,0.1127,0.24,0.3211,0.3185,0.318,0.3281,0.3531,0.3732,0.3882,0.3882,0.3984,0.3982,0.3932,0.4143,0.4166,0.3871,0.4413,0.4611,0.4314,0.4856,0.5135,0.5135,0.5386,0.5484,0.5484,0.5787,0.5937,0.5937,0.6237,0.6587,0.6933,0.6933,0.7132,-0.0246,-0.1031,-0.1799,-0.1807,-0.25,-0.344,-0.4314,-0.4578,-0.4942,-0.5913,-0.6199,-0.6362,-0.6539,-0.6734,-0.6887,-0.6973,-0.7129,-0.7229,-0.7213,-0.7321,-0.7817,-0.8754,-0.8146,-0.842,-1.0288,-0.864,-0.7762,-0.8589,-0.7762,-0.721,-0.721,-0.721,-0.721,-0.7265,-0.7265,-0.7435,-0.7662,-0.7934,-0.8211,-0.8484,-0.854,-0.9199,-1.0457,-0.9372,-0.9482,-1.0402,-0.9372,-0.8885,-0.8885,-0.8885,-0.8885,-0.8885,-0.8885,-0.8826,-0.8546,-0.7487,-0.6985,-0.6705,-0.5586,-0.447,-0.3804,-0.5027,-0.5194,-0.4749,-0.3858,-0.3469,-0.3125,-0.2092,-0.181,-0.1804,-0.1723,-0.1716,-0.1716,-0.1716,-0.1609,-0.1339,-0.0588,-0.0213,0.0424,0.1983,0.2811,0.3315,0.3203,0.3192,0.339,0.3833,0.4334,0.4734,0.4784,0.4383,0.4282,0.4734,0.4784,0.4784,0.4784,0.4935,0.4985,0.4935,0.5434,0.5687,0.5687,0.6234,0.6534,0.6534,0.6686,0.6736,0.6736,0.6736,0.7083,0.7779,0.7779,0.8127,-0.1656,-0.2256,-0.2901,-0.2934,-0.3578,-0.4293,-0.4463,-0.5104,-0.5748,-0.6032,-0.623,-0.6351,-0.6561,-0.6784,-0.699,-0.6975,-0.7171,-0.7269,-0.7224,-0.7983,-0.8702,-0.8865,-0.9633,-0.9849,-0.9251,-0.8865,-0.8315,-0.7543,-0.7321,-0.721,-0.721,-0.721,-0.7324,-0.7549,-0.7771,-0.7878,-0.7934,-0.8266,-0.8429,-0.8484,-0.8712,-0.8992,-0.921,-0.8992,-0.8992,-0.921,-0.8992,-0.8885,-0.8885,-0.8885,-0.8885,-0.8885,-0.8885,-0.8269,-0.7376,-0.7152,-0.648,-0.5528,-0.4305,-0.3748,-0.3804,-0.5027,-0.4026,-0.2576,-0.3358,-0.2912,-0.2073,-0.1844,-0.1787,-0.1786,-0.178,-0.1779,-0.1779,-0.1779,-0.1167,-0.0609,-0.0437,0.0753,0.2023,0.2973,0.3289,0.3377,0.3316,0.3305,0.3289,0.3338,0.3783,0.4284,0.4734,0.4734,0.4684,0.4784,0.4784,0.4784,0.4784,0.5636,0.5937,0.5484,0.5984,0.6237,0.6237,0.6983,0.7381,0.7381,0.8028,0.8375,0.8375,0.8375,0.8474,0.8574,0.8574,0.8673,-0.3017,-0.3723,-0.4429,-0.4425,-0.5083,-0.5719,-0.5842,-0.6003,-0.6346,-0.7033,-0.7209,-0.7442,-0.8226,-0.8671,-0.8861,-0.8811,-0.8579,-0.8493,-0.8978,-0.8972,-0.9361,-1.0562,-1.0726,-1.0726,-1.0722,-1.0288,-0.9578,-0.8423,-0.8478,-0.8205,-0.7435,-0.7546,-0.7657,-0.7826,-0.81,-0.8266,-0.8266,-0.8546,-0.8712,-0.8712,-0.8826,-0.8885,-0.8885,-0.8885,-0.8885,-0.8885,-0.8885,-0.8885,-0.8885,-0.8885,-0.8885,-0.8885,-0.8885,-0.8156,-0.7041,-0.6424,-0.5475,-0.4305,-0.3079,-0.2688,-0.2744,-0.3358,-0.2744,-0.1907,-0.2465,-0.2242,-0.1795,-0.1795,-0.1795,-0.1795,-0.1795,-0.1795,-0.1795,-0.1795,-0.0729,0.0392,0.0832,0.198,0.3056,0.3408,0.3455,0.3533,0.3701,0.3764,0.3959,0.4403,0.4723,0.509,0.5591,0.5386,0.5334,0.5586,0.5636,0.5636,0.5636,0.6087,0.6284,0.6037,0.6634,0.7033,0.7033,0.7779,0.8226,0.8226,0.8623,0.8825,0.8825,0.8825,0.9023,0.9422,0.9422,0.9718,-0.4422,-0.5175,-0.5937,-0.5937,-0.6546,-0.7174,-0.7351,-0.727,-0.7417,-0.844,-0.857,-0.8847,-0.9933,-1.0427,-1.0659,-1.0649,-1.0143,-1.0053,-1.0773,-1.0288,-1.0507,-1.2363,-1.1814,-1.1601,-1.2526,-1.1542,-1.0453,-0.9578,-0.9526,-0.8978,-0.7771,-0.7937,-0.81,-0.81,-0.8432,-0.8598,-0.8598,-0.8771,-0.8885,-0.8885,-0.8885,-0.8885,-0.8885,-0.8885,-0.8885,-0.8885,-0.8885,-0.8885,-0.8885,-0.8885,-0.8885,-0.8881,-0.8605,-0.7765,-0.6591,-0.5419,-0.4249,-0.3079,-0.213,-0.1795,-0.1795,-0.1795,-0.1795,-0.1795,-0.1795,-0.1795,-0.1795,-0.1795,-0.1795,-0.1739,-0.157,-0.1514,-0.1402,-0.1009,0.0168,0.1401,0.2297,0.3081,0.3574,0.3525,0.3626,0.3807,0.4111,0.435,0.4765,0.5428,0.5653,0.5919,0.6234,0.5999,0.5937,0.6337,0.6287,0.6287,0.6387,0.6534,0.6637,0.6637,0.7431,0.7879,0.7879,0.8627,0.9072,0.9072,0.9217,0.9316,0.9316,0.9316,0.9636,1.0326,1.0326,1.078,-0.5854,-0.6431,-0.7039,-0.7039,-0.7556,-0.8124,-0.842,-0.8993,-0.9601,-0.9931,-1.0084,-1.025,-1.0506,-1.0789,-1.0974,-1.1039,-1.1207,-1.1357,-1.1411,-1.2299,-1.2965,-1.3181,-1.3127,-1.3073,-1.3236,-1.1219,-0.9853,-0.9798,-0.903,-0.8429,-0.7989,-0.8266,-0.8429,-0.8429,-0.8712,-0.8881,-0.8881,-0.8881,-0.8885,-0.8885,-0.8885,-0.8885,-0.8885,-0.8885,-0.8885,-0.8885,-0.8885,-0.8885,-0.8885,-0.8885,-0.8885,-0.8771,-0.7709,-0.6591,-0.5417,-0.4193,-0.3024,-0.1963,-0.1851,-0.1795,-0.1795,-0.1795,-0.1795,-0.1795,-0.1795,-0.1795,-0.1795,-0.1795,-0.1795,-0.1627,-0.0729,-0.0505,-0.0112,0.1456,0.196,0.2353,0.325,0.3531,0.3586,0.358,0.4024,0.4387,0.4359,0.4839,0.5192,0.5256,0.5539,0.5791,0.5833,0.6151,0.6337,0.6387,0.5984,0.5887,0.6337,0.7083,0.7481,0.7481,0.8226,0.8676,0.8676,0.9472,0.9871,0.9871,1.0605,1.0998,1.0998,1.0998,1.11,1.1336,1.1336,1.1494,-0.7351,-0.7999,-0.8695,-0.8836,-0.934,-0.991,-1.032,-1.0336,-1.051,-1.1327,-1.1433,-1.1636,-1.2673,-1.3039,-1.3265,-1.3487,-1.3096,-1.2994,-1.355,-1.3447,-1.3565,-1.4218,-1.4326,-1.4326,-1.4326,-1.3673,-1.2689,-1.1433,-0.975,-0.8657,-0.8549,-0.8657,-0.8768,-0.8768,-0.8826,-0.8885,-0.8885,-0.8885,-0.8885,-0.8885,-0.8885,-0.8885,-0.8885,-0.8885,-0.8885,-0.8885,-0.8885,-0.8885,-0.8885,-0.8885,-0.8491,-0.7768,-0.7265,-0.5977,-0.4249,-0.3804,-0.2856,-0.1795,-0.1795,-0.1795,-0.1795,-0.1795,-0.1795,-0.1795,-0.1795,-0.1795,-0.1795,-0.1795,-0.1795,-0.1739,-0.1346,-0.0841,0.0056,0.1792,0.2184,0.2464,0.3418,0.3587,0.3587,0.3587,0.4089,0.4568,0.4818,0.5448,0.598,0.6141,0.6346,0.6494,0.6425,0.6531,0.6657,0.6657,0.6321,0.6187,0.6387,0.7132,0.758,0.758,0.8825,0.9521,0.9521,1.031,1.0703,1.0703,1.1177,1.1387,1.1387,1.151,1.1614,1.1699,1.1699,1.1808,-0.9117,-0.956,-0.9846,-1.0427,-1.0965,-1.1451,-1.1914,-1.1819,-1.1853,-1.2791,-1.2862,-1.3144,-1.4217,-1.4699,-1.5,-1.5187,-1.4722,-1.4578,-1.519,-1.4595,-1.4374,-1.5196,-1.525,-1.525,-1.525,-1.4874,-1.384,-1.2037,-1.0025,-0.8885,-0.8885,-0.8885,-0.8885,-0.8885,-0.8885,-0.8885,-0.8885,-0.8885,-0.8885,-0.8885,-0.8885,-0.8885,-0.8885,-0.8885,-0.8885,-0.8885,-0.8885,-0.8885,-0.8885,-0.8885,-0.8214,-0.7041,-0.6705,-0.5365,-0.358,-0.3191,-0.2521,-0.1795,-0.1795,-0.1795,-0.1795,-0.1795,-0.1795,-0.1795,-0.1795,-0.1795,-0.1795,-0.1795,-0.1402,-0.1009,-0.1009,-0.0112,0.1121,0.2297,0.2632,0.28,0.3475,0.3755,0.3866,0.3866,0.448,0.5131,0.5456,0.6107,0.6654,0.6878,0.695,0.6953,0.6866,0.6825,0.6907,0.7167,0.7004,0.6895,0.6895,0.7528,0.8115,0.8456,0.9677,1.0412,1.053,1.1024,1.1321,1.1378,1.1529,1.1605,1.1609,1.1746,1.185,1.1912,1.1912,1.1973,-1.1219,-1.0925,-1.0336,-1.1625,-1.2145,-1.2437,-1.2954,-1.3474,-1.3928,-1.4226,-1.4505,-1.4704,-1.4704,-1.5129,-1.547,-1.5476,-1.5713,-1.5885,-1.5891,-1.5891,-1.5891,-1.5891,-1.5891,-1.5891,-1.5891,-1.3771,-1.1978,-1.0781,-0.9588,-0.8885,-0.8885,-0.8885,-0.8885,-0.8885,-0.8885,-0.8885,-0.8885,-0.8885,-0.8885,-0.8885,-0.8885,-0.8885,-0.8885,-0.8885,-0.8885,-0.8885,-0.8885,-0.8885,-0.8885,-0.8885,-0.8214,-0.6985,-0.5864,-0.4693,-0.3469,-0.2242,-0.1795,-0.1795,-0.1795,-0.1795,-0.1795,-0.1795,-0.1795,-0.1795,-0.1795,-0.1795,-0.1795,-0.1795,-0.0505,0.0897,0.0897,0.2186,0.3587,0.3587,0.3587,0.3587,0.3587,0.4089,0.448,0.448,0.5483,0.6262,0.626,0.6763,0.7207,0.7207,0.7111,0.6986,0.6983,0.6877,0.7115,0.8,0.8102,0.8098,0.8098,0.8501,0.9315,1.0495,1.0975,1.1383,1.1742,1.1619,1.1609,1.1808,1.1813,1.1813,1.1813,1.1817,1.1874,1.2085,1.2085,1.2082,-1.188,-1.2258,-1.2542,-1.3171,-1.3636,-1.4028,-1.4408,-1.4829,-1.5315,-1.5644,-1.5749,-1.5845,-1.6331,-1.5895,-1.5535,-1.5713,-1.5832,-1.5891,-1.5891,-1.5891,-1.5891,-1.5891,-1.5891,-1.5891,-1.5891,-1.3771,-1.2254,-1.1869,-1.0025,-0.8885,-0.8885,-0.8885,-0.8885,-0.8885,-0.8885,-0.8885,-0.8885,-0.8885,-0.8885,-0.8885,-0.8885,-0.8885,-0.8885,-0.8885,-0.8885,-0.8885,-0.8885,-0.8885,-0.8826,-0.7989,-0.6982,-0.5808,-0.4639,-0.3413,-0.2297,-0.1963,-0.1795,-0.1795,-0.1795,-0.1795,-0.1795,-0.1795,-0.1795,-0.1795,-0.1795,-0.1795,-0.1683,-0.1009,-0.0449,0.028,0.1457,0.2241,0.28,0.3474,0.3587,0.3699,0.4145,0.4367,0.4648,0.5037,0.5761,0.6318,0.6318,0.6818,0.721,0.721,0.718,0.7155,0.7155,0.7122,0.7204,0.7474,0.7936,0.8425,0.8954,0.9633,1.0189,1.0568,1.1233,1.168,1.1813,1.1756,1.1751,1.1817,1.1964,1.1987,1.1987,1.2123,1.2168,1.2022,1.2022,1.1946,-1.3725,-1.3899,-1.437,-1.5034,-1.5297,-1.5571,-1.6217,-1.6142,-1.6191,-1.6925,-1.7028,-1.7009,-1.7192,-1.6692,-1.6189,-1.5945,-1.5891,-1.5891,-1.5891,-1.5891,-1.5891,-1.5891,-1.5891,-1.5891,-1.5891,-1.4207,-1.2906,-1.2413,-1.0621,-0.9372,-0.8937,-0.8885,-0.8885,-0.8885,-0.8885,-0.8885,-0.8885,-0.8885,-0.8885,-0.8885,-0.8885,-0.8885,-0.8885,-0.8885,-0.8885,-0.8881,-0.8436,-0.8214,0.0,-0.6927,-0.5753,-0.4637,-0.3914,-0.2856,-0.1795,-0.1795,-0.1795,-0.1795,-0.1795,-0.1795,-0.1795,-0.1795,-0.1795,-0.1795,-0.1795,-0.1795,-0.1627,-0.0673,-0.0168,0.0392,0.1848,0.2464,0.2857,0.3475,0.3587,0.3699,0.4089,0.4313,0.4702,0.526,0.5873,0.6374,0.6596,0.6932,0.721,0.721,0.721,0.721,0.721,0.721,0.7429,0.8091,0.8616,0.9334,1.0465,1.0548,1.0793,1.1252,1.1594,1.1888,1.2044,1.1926,1.1973,1.1996,1.2133,1.2145,1.2037,1.2109,1.2005,1.1841,1.1841,1.1678,0.0,-1.5832,-1.5913,-1.7088,-1.7042,-1.6942,-1.8145,-1.7383,0.0,-1.8095,-1.8398,-1.8258,-1.7599,-1.7513,-1.7256,-1.6182,-1.5945,-1.5891,-1.5891,-1.5891,-1.5891,-1.5891,-1.5891,-1.5891,-1.5891,-1.4869,-1.3673,-1.2472,-1.1328,-1.0186,-0.8937,-0.8885,-0.8885,-0.8885,-0.8885,-0.8885,-0.8885,-0.8885,-0.8885,-0.8885,-0.8885,-0.8885,-0.8885,-0.8885,-0.8885,-0.8826,-0.7598,-0.7096,-0.6985,-0.5753,-0.4637,-0.358,-0.3525,-0.28,-0.1795,-0.1795,-0.1795,-0.1795,-0.1795,-0.1795,-0.1795,-0.1795,-0.1795,-0.1795,-0.1795,-0.1739,-0.1514,-0.0561,0.0336,0.1177,0.2073,0.2969,0.3587,0.3587,0.3587,0.3587,0.3643,0.4089,0.4702,0.5316,0.5929,0.6485,0.7099,0.721,0.721,0.721,0.721,0.721,0.721,0.721,0.7817,0.9467,0.9743,1.0457,1.2055,1.1292,1.1186,1.2304,1.2077,1.2035,1.2368,1.2208,1.2194,1.2382,1.2382,1.2278,1.2005,1.1732,1.1568,1.1568,1.1568,1.1404,-1.8234,0.0,-1.8048,-1.8373,-1.8187,-1.801,0.0,-1.8793,-1.9319,-1.971,-1.9979,-2.0095,-2.0033,-1.8674,-1.7496,-1.7256,-1.648,-1.5891,-1.5891,-1.5891,-1.5891,-1.5891,-1.5891,-1.5891,-1.5891,-1.4869,-1.3673,-1.2472,-1.1328,-1.0186,-0.8937,-0.8885,-0.8885,-0.8885,-0.8885,-0.8885,-0.8885,-0.8885,-0.8885,-0.8885,-0.8885,-0.8885,-0.8885,-0.8885,-0.8885,-0.8826,-0.7598,-0.7096,-0.693,-0.4862,-0.3858,-0.3525,-0.2576,-0.2074,-0.1795,-0.1795,-0.1795,-0.1795,-0.1795,-0.1795,-0.1795,-0.1795,-0.1795,-0.1795,-0.1795,-0.129,-0.0561,0.0336,0.1233,0.2129,0.3025,0.3418,0.3587,0.3587,0.3587,0.3699,0.4201,0.4424,0.4814,0.5873,0.6207,0.6485,0.7099,0.721,0.721,0.721,0.721,0.721,0.721,0.721,0.7376,0.7762,0.9027,0.9962,1.0402,1.1368,1.2121,1.2377,1.2292,1.2283,1.2382,1.234,1.234,1.2387,1.2223,1.2055,1.2005,1.1732,1.1459,1.124,1.124,1.1072,-2.0167,-1.9929,-1.9777,-1.9777,-1.963,-1.9668,-2.0075,-2.0109,-2.0197,-2.0762,-2.0912,-2.0858,-2.0655,-1.9236,-1.8003,-1.7635,-1.6655,-1.5891,-1.5891,-1.5891,-1.5891,-1.5891,-1.5891,-1.5891,-1.5891,-1.5351,-1.4266,-1.2526,-1.1814,-1.0731,-0.8992,-0.8885,-0.8885,-0.8885,-0.8885,-0.8885,-0.8885,-0.8885,-0.8885,-0.8885,-0.8885,-0.8885,-0.8885,-0.8885,-0.8885,-0.8826,-0.7093,-0.6313,-0.6144,-0.3748,-0.28,-0.2688,-0.2074,-0.1795,-0.1795,-0.1795,-0.1795,-0.1795,-0.1795,-0.1795,-0.1795,-0.1795,-0.1795,-0.1795,-0.1795,-0.1121,-0.0224,0.0673,0.1233,0.1905,0.325,0.3587,0.3587,0.3587,0.3811,0.4033,0.4089,0.4313,0.4758,0.5706,0.5873,0.6151,0.7043,0.721,0.721,0.721,0.721,0.721,0.721,0.721,0.7376,0.7765,0.8647,0.9526,1.0351,1.1286,1.1946,1.2387,1.2387,1.2387,1.2387,1.2387,1.2387,1.2387,1.2005,1.1841,1.1841,1.1404,1.1076,1.0911,1.0911,1.0857,-2.2073,-2.1735,-2.1357,-2.1104,-2.1076,-2.1287,-2.2016,-2.1181,-2.0483,-2.1391,-2.1465,-2.1147,-2.0418,-1.9445,-1.8544,-1.7799,-1.6681,-1.5934,-1.5897,-1.5891,-1.5891,-1.5891,-1.5891,-1.5891,-1.5891,-1.5891,-1.5018,-1.2852,-1.2526,-1.1437,-0.9265,-0.8992,-0.8885,-0.8885,-0.8885,-0.8885,-0.8885,-0.8885,-0.8885,-0.8885,-0.8885,-0.8885,-0.8885,-0.8885,-0.8771,-0.8491,-0.6364,-0.5306,-0.4972,-0.2744,-0.1795,-0.1795,-0.1795,-0.1795,-0.1795,-0.1795,-0.1795,-0.1795,-0.1795,-0.1795,-0.1795,-0.1795,-0.1795,-0.1795,-0.1795,-0.1234,-0.0449,0.0449,0.0897,0.1457,0.3138,0.3587,0.3587,0.3587,0.3977,0.4201,0.3699,0.3977,0.4536,0.5148,0.526,0.565,0.6877,0.7043,0.7099,0.721,0.721,0.721,0.721,0.721,0.7487,0.8208,0.8429,0.9089,1.0578,1.0962,1.14,1.2169,1.2332,1.2387,1.2387,1.2387,1.2382,1.2332,1.1841,1.1568,1.1514,1.0966,1.0692,1.0692,1.0692,1.0692,-2.352,-2.3566,-2.3434,-2.1943,-2.1853,-2.2007,-2.1861,-2.1726,-2.1667,-2.1591,-2.1942,-2.1833,-2.052,-1.9661,-1.8878,-1.8082,-1.6989,-1.6145,-1.5922,-1.5891,-1.5891,-1.5891,-1.5891,-1.5891,-1.5891,-1.5891,-1.5351,-1.4002,-1.2965,-1.1819,-1.0511,-0.9482,-0.8885,-0.8885,-0.8885,-0.8885,-0.8885,-0.8885,-0.8885,-0.8885,-0.8885,-0.8885,-0.8885,-0.8885,-0.8325,-0.7318,-0.5975,-0.4804,-0.3748,-0.2353,-0.1795,-0.1795,-0.1795,-0.1795,-0.1795,-0.1795,-0.1795,-0.1795,-0.1795,-0.1795,-0.1795,-0.1795,-0.1795,-0.1795,-0.1795,-0.1683,-0.1402,-0.0449,0.084,0.2241,0.3306,0.3587,0.3587,0.3587,0.3699,0.3699,0.3643,0.3699,0.3921,0.4536,0.4646,0.5037,0.6207,0.6429,0.6599,0.7099,0.721,0.721,0.721,0.721,0.7265,0.7376,0.8042,0.8595,0.8871,1.0245,1.1181,1.1291,1.2001,1.2387,1.2387,1.2387,1.2278,1.206,1.1787,1.1459,1.1181,1.0857,1.0692,1.0692,1.0692,1.0692,-2.3614,-2.3676,-2.3638,-2.2371,-2.2474,-2.2885,-2.2702,-2.2601,-2.2387,-2.2004,-2.2108,-2.1867,-2.0561,-1.9671,-1.8681,-1.73,-1.663,-1.6199,-1.5928,-1.5891,-1.5891,-1.5891,-1.5891,-1.5891,-1.5891,-1.5891,-1.5405,-1.4277,-1.3073,-1.1928,-1.0781,-0.9533,-0.8885,-0.8885,-0.8885,-0.8885,-0.8885,-0.8885,-0.8885,-0.8885,-0.8885,-0.8885,-0.8885,-0.8885,-0.8266,-0.7041,-0.5919,-0.4693,-0.3525,-0.2297,-0.1795,-0.1795,-0.1795,-0.1795,-0.1795,-0.1795,-0.1795,-0.1795,-0.1795,-0.1795,-0.1795,-0.1795,-0.1795,-0.1795,-0.1795,-0.1795,-0.1627,-0.0673,0.0504,0.1681,0.2632,0.3194,0.3587,0.3587,0.3866,0.3977,0.3643,0.3866,0.4145,0.4424,0.448,0.4758,0.565,0.5817,0.5929,0.6207,0.6485,0.6707,0.6707,0.6707,0.6821,0.7154,0.6985,0.7149,0.7928,0.9189,1.0457,1.1728,1.2164,1.2387,1.2387,1.2273,1.2114,1.2005,1.1568,1.1236,1.1072,1.0857,1.0692,1.0692,1.0692,1.0692,-2.4204,-2.3929,-2.3824,-2.2978,-2.3,-2.3233,-2.3334,-2.3003,-2.2597,-2.2348,-2.2247,-2.1764,-2.0263,-1.9236,-1.8009,-1.6465,-1.6314,-1.6284,-1.594,-1.5891,-1.5891,-1.5891,-1.5891,-1.5891,-1.5891,-1.5672,-1.5137,-1.4277,-1.2856,-1.1596,-1.0726,-0.9533,-0.8885,-0.8885,-0.8885,-0.8885,-0.8885,-0.8885,-0.8885,-0.8885,-0.8885,-0.8885,-0.8881,-0.8602,-0.782,-0.6649,-0.5475,-0.4305,-0.3135,-0.2186,-0.1795,-0.1795,-0.1795,-0.1795,-0.1795,-0.1795,-0.1795,-0.1795,-0.1795,-0.1795,-0.1795,-0.1795,-0.1795,-0.1795,-0.1795,-0.1627,-0.1346,-0.0617,0.0392,0.1345,0.2016,0.2913,0.3587,0.3587,0.3977,0.4145,0.3699,0.3977,0.4313,0.4479,0.4369,0.459,0.5483,0.5483,0.5427,0.5594,0.5984,0.6262,0.6096,0.6096,0.6262,0.6707,0.5929,0.5926,0.726,0.8247,0.9677,1.1669,1.2055,1.2223,1.2273,1.206,1.1896,1.1787,1.135,1.1072,1.1017,1.0802,1.0692,1.0692,1.0692,1.0692,-2.6482,-2.56,-2.4866,-2.4294,-2.3277,-2.2465,-2.2858,-2.2499,-2.2169,-2.2474,-2.2478,-2.1739,-1.9587,-1.7916,-1.6649,-1.6054,-1.6344,-1.6489,-1.5964,-1.5891,-1.5891,-1.5891,-1.5891,-1.5891,-1.5891,-1.4922,-1.4277,-1.4223,-1.2091,-1.0781,-1.0726,-0.9533,-0.8885,-0.8885,-0.8885,-0.8885,-0.8885,-0.8885,-0.8885,-0.8885,-0.8885,-0.8885,-0.8881,-0.7765,-0.6591,-0.5472,-0.4249,-0.3023,-0.1907,-0.1851,-0.1795,-0.1795,-0.1795,-0.1795,-0.1795,-0.1795,-0.1795,-0.1795,-0.1795,-0.1795,-0.1795,-0.1795,-0.1795,-0.1795,-0.1795,-0.1177,-0.0505,-0.0393,0.0784,0.2128,0.2184,0.2913,0.3587,0.3587,0.3643,0.3643,0.3587,0.3643,0.381,0.4369,0.4033,0.4201,0.5929,0.5761,0.5594,0.6151,0.6262,0.6096,0.5539,0.5483,0.5483,0.5539,0.5427,0.5759,0.67,0.7861,0.8965,0.9908,1.1013,1.1787,1.2005,1.1787,1.1459,1.1181,1.1131,1.0966,1.0747,1.0692,1.0692,1.0692,1.0692,1.0692,-2.6415,-2.5583,-2.4893,-2.4136,-2.3268,-2.284,-2.3547,-2.3736,-2.3772,-2.3802,-2.3364,-2.2212,-1.9594,-1.7655,-1.6374,-1.6181,-1.6314,-1.6314,-1.594,-1.5891,-1.5891,-1.5891,-1.5891,-1.5618,-1.4922,-1.4439,-1.3894,-1.3127,-1.1596,-1.0726,-1.0726,-0.9533,-0.8885,-0.8885,-0.8885,-0.8885,-0.8885,-0.8885,-0.8885,-0.8885,-0.8885,-0.8491,-0.7768,-0.7321,-0.6091,-0.4249,-0.3804,-0.2912,-0.1795,-0.1795,-0.1795,-0.1795,-0.1795,-0.1795,-0.1795,-0.1795,-0.1795,-0.1795,-0.1795,-0.1795,-0.1795,-0.1795,-0.1402,-0.0953,-0.0953,-0.028,0.0393,0.0393,0.1289,0.2184,0.2184,0.289,0.353,0.353,0.353,0.353,0.353,0.3893,0.4201,0.4479,0.4592,0.4925,0.5594,0.5539,0.5483,0.5706,0.604,0.6096,0.5483,0.5427,0.5427,0.5427,0.5037,0.5202,0.6089,0.6422,0.7196,0.8572,1.0511,1.1623,1.1732,1.1459,1.1236,1.1072,1.0966,1.0802,1.0692,1.0692,1.0692,1.0692,1.0692,1.0692,-2.6099,-2.5444,-2.5062,-2.3989,-2.3498,-2.3447,-2.3804,-2.424,-2.4592,-2.4459,-2.3366,-2.1722,-1.9598,-1.7636,-1.6229,-1.6079,-1.6181,-1.6187,-1.5928,-1.5891,-1.5785,-1.5405,-1.5351,-1.4917,-1.3727,-1.329,-1.2748,-1.1923,-1.0781,-1.0131,-1.0131,-0.9375,-0.8885,-0.8885,-0.8885,-0.8885,-0.8885,-0.8885,-0.8885,-0.8881,-0.8491,-0.7878,-0.7096,-0.6705,-0.5477,-0.358,-0.3191,-0.2577,-0.1795,-0.1795,-0.1795,-0.1795,-0.1795,-0.1795,-0.1795,-0.1795,-0.1795,-0.1795,-0.1795,-0.1795,-0.1795,-0.1795,-0.1346,-0.0785,-0.0505,0.0224,0.0953,0.1233,0.2073,0.2908,0.2893,0.3307,0.377,0.377,0.3863,0.396,0.4038,0.4409,0.4786,0.5031,0.526,0.5539,0.5929,0.5817,0.5706,0.5706,0.604,0.604,0.5204,0.5093,0.5037,0.4869,0.4479,0.4468,0.5052,0.5297,0.591,0.7081,0.9044,1.0402,1.0907,1.0574,1.0578,1.0962,1.0802,1.0692,1.0692,1.0692,1.0692,1.0692,1.0637,1.0582,-2.5831,-2.5439,-2.5476,-2.4043,-2.3991,-2.4094,-2.3359,-2.3721,-2.4221,-2.426,-2.2116,-2.0009,-1.948,-1.7682,-1.6109,-1.559,-1.594,-1.6187,-1.5928,-1.5891,-1.5458,-1.4331,-1.4169,-1.3727,-1.2526,-1.1378,-1.0726,-1.0672,-0.9588,-0.8885,-0.8885,-0.8885,-0.8885,-0.8885,-0.8885,-0.8885,-0.8885,-0.8885,-0.8881,-0.8881,-0.7654,-0.7096,-0.7041,-0.5919,-0.4749,-0.3525,-0.2297,-0.1795,-0.1795,-0.1795,-0.1795,-0.1795,-0.1795,-0.1795,-0.1795,-0.1795,-0.1795,-0.1795,-0.1795,-0.1795,-0.1795,-0.1795,-0.1795,-0.1627,-0.0673,0.0224,0.1065,0.1961,0.3302,0.4463,0.4337,0.4319,0.4319,0.4317,0.4636,0.5024,0.5168,0.5188,0.5433,0.6132,0.5817,0.5817,0.6988,0.671,0.6318,0.6318,0.6318,0.5873,0.4646,0.448,0.4257,0.3643,0.3587,0.3563,0.3503,0.4657,0.5333,0.5295,0.6416,0.775,0.9306,0.903,0.9475,1.0637,1.0692,1.0692,1.0692,1.0692,1.0692,1.0692,1.0421,1.0312,-2.7157,-2.5952,-2.5203,-2.4778,-2.389,-2.3045,-2.2851,-2.3592,-2.3922,-2.2511,-2.1003,-1.9475,-1.7957,-1.6759,-1.5958,-1.5801,-1.5903,-1.5976,-1.5897,-1.519,-1.46,-1.4223,-1.3457,-1.2472,-1.1328,-1.0891,-1.0347,-0.9478,-0.9099,-0.8885,-0.8885,-0.8885,-0.8885,-0.8885,-0.8885,-0.8885,-0.8885,-0.8885,-0.8491,-0.7654,-0.7265,-0.6702,-0.5864,-0.4695,-0.3469,-0.2297,-0.1963,-0.1795,-0.1795,-0.1795,-0.1795,-0.1795,-0.1795,-0.1795,-0.1795,-0.1795,-0.1795,-0.1795,-0.1795,-0.1795,-0.1795,-0.1795,-0.1346,-0.0673,0.0224,0.0673,0.1234,0.2745,0.336,0.3622,0.4173,0.4918,0.5428,0.4872,0.4923,0.5045,0.5009,0.542,0.5904,0.6098,0.6436,0.6765,0.7154,0.7043,0.6932,0.6932,0.6596,0.5873,0.4646,0.4145,0.3811,0.3643,0.3587,0.358,0.3563,0.3911,0.4115,0.4044,0.4436,0.5588,0.7695,0.7695,0.8195,0.942,0.942,0.975,1.0421,1.0421,1.0308,1.0088,0.9981,0.9926,-2.6956,-2.5991,-2.5409,-2.4524,-2.385,-2.3142,-2.2285,-2.2672,-2.2886,-2.1966,-2.034,-1.8748,-1.7492,-1.651,-1.5855,-1.5753,-1.5447,-1.5244,-1.5244,-1.4213,-1.3344,-1.2856,-1.2146,-1.1273,-1.0076,-0.997,-0.9699,-0.8937,-0.8885,-0.8885,-0.8885,-0.8885,-0.8885,-0.8885,-0.8885,-0.866,-0.8214,-0.8211,-0.7595,-0.6424,-0.5922,-0.5365,-0.4637,-0.3914,-0.2967,-0.1795,-0.1795,-0.1795,-0.1795,-0.1795,-0.1795,-0.1795,-0.1795,-0.1795,-0.1795,-0.1795,-0.1795,-0.1795,-0.1795,-0.1795,-0.1795,-0.1795,-0.1402,-0.0785,0.0224,0.0561,0.0897,0.2466,0.2912,0.3177,0.406,0.5023,0.569,0.5374,0.5509,0.5686,0.5707,0.6098,0.6401,0.654,0.6887,0.721,0.721,0.721,0.721,0.721,0.6485,0.5594,0.4648,0.3977,0.3587,0.3587,0.3587,0.3578,0.3553,0.3574,0.3561,0.35,0.353,0.4169,0.5472,0.6086,0.6919,0.8026,0.8026,0.8472,0.9364,0.9364,0.9533,0.9816,0.9706,0.9651,-2.6023,-2.5827,-2.583,-2.3738,-2.3751,-2.3768,-2.1661,-2.1135,-2.1277,-2.1908,-1.9911,-1.7929,-1.7609,-1.6624,-1.5813,-1.5572,-1.4775,-1.4223,-1.4223,-1.3073,-1.1873,-1.0836,-1.0617,-1.0131,-0.8992,-0.8885,-0.8885,-0.8885,-0.8885,-0.8885,-0.8885,-0.8885,-0.883,-0.8716,-0.8716,-0.8156,-0.6985,-0.693,-0.6369,-0.525,-0.4249,-0.3636,-0.3413,-0.3413,-0.2856,-0.1795,-0.1795,-0.1739,-0.1739,-0.1739,-0.1739,-0.1739,-0.1795,-0.1795,-0.1795,-0.1795,-0.1795,-0.1795,-0.1795,-0.1795,-0.1795,-0.1739,-0.1739,-0.1514,-0.0336,0.0,0.0168,0.1455,0.2179,0.2832,0.3873,0.468,0.532,0.5711,0.6245,0.6698,0.6921,0.6891,0.6883,0.7152,0.7202,0.721,0.721,0.721,0.7154,0.7043,0.6096,0.5148,0.448,0.3921,0.3587,0.3587,0.3587,0.3565,0.351,0.3555,0.3561,0.35,0.3447,0.3307,0.3129,0.4468,0.5637,0.6634,0.6689,0.7135,0.814,0.814,0.8699,0.9706,0.9489,0.9379,-2.7522,-2.6443,-2.5657,-2.4496,-2.351,-2.2429,-2.0864,-1.9868,-1.9162,-1.8738,-1.8133,-1.7437,-1.6477,-1.6045,-1.5867,-1.5813,-1.4888,-1.4223,-1.4223,-1.2363,-1.0945,-1.0726,-0.986,-0.921,-0.8937,-0.8885,-0.8885,-0.8885,-0.8885,-0.8885,-0.8885,-0.8885,-0.8491,-0.7543,-0.7487,-0.6927,-0.5753,-0.5753,-0.514,-0.397,-0.4693,-0.4026,-0.2186,-0.2186,-0.2018,-0.1795,-0.1514,-0.1402,-0.1402,-0.1402,-0.1402,-0.1458,-0.1683,-0.1795,-0.1795,-0.1795,-0.1795,-0.1795,-0.1795,-0.1795,-0.1739,-0.1514,-0.1402,-0.1177,-0.0056,-0.0167,-0.033,0.1319,0.1686,0.1821,0.2682,0.4113,0.5374,0.5335,0.6092,0.6777,0.6831,0.6896,0.6961,0.7013,0.715,0.721,0.721,0.721,0.6877,0.5929,0.5594,0.5037,0.3921,0.3699,0.3587,0.3587,0.3587,0.3582,0.357,0.3356,0.3282,0.35,0.31,0.2944,0.3081,0.3409,0.4472,0.6359,0.6359,0.7307,0.9096,0.9096,0.9099,0.9103,0.9047,0.8992,-2.7922,-2.6576,-2.5478,-2.4257,-2.2911,-2.1478,-2.0101,-1.8928,-1.7901,-1.6969,-1.6789,-1.6577,-1.5998,-1.5891,-1.5725,-1.519,-1.4105,-1.3127,-1.258,-1.095,-0.986,-0.986,-0.9261,-0.8885,-0.8885,-0.8885,-0.8885,-0.8885,-0.8885,-0.866,-0.8045,-0.8045,-0.7485,-0.6311,-0.6311,-0.5699,-0.4526,-0.4973,-0.436,-0.2744,-0.3692,-0.3134,-0.1402,-0.1683,-0.1739,-0.157,-0.1402,-0.129,-0.129,-0.129,-0.1402,-0.157,-0.1739,-0.1795,-0.1795,-0.1795,-0.1683,-0.157,-0.157,-0.1458,-0.1346,-0.1177,-0.1121,-0.0953,-0.0224,-0.0279,-0.0443,0.0664,0.0824,0.1034,0.264,0.3735,0.4742,0.5879,0.655,0.6904,0.6959,0.6978,0.6999,0.7056,0.7169,0.721,0.721,0.721,0.6765,0.5594,0.5427,0.4981,0.3755,0.3587,0.3587,0.3587,0.3587,0.3531,0.3362,0.3194,0.3126,0.3101,0.2826,0.266,0.2658,0.2692,0.347,0.5139,0.5753,0.6755,0.8094,0.8094,0.8318,0.8712,0.8712,0.8768,-2.8094,-2.6605,-2.5179,-2.3744,-2.2367,-2.0928,-1.9531,-1.8356,-1.7265,-1.6152,-1.5891,-1.5891,-1.5891,-1.5731,-1.5298,-1.4326,-1.3019,-1.1764,-1.0836,-0.9644,-0.8885,-0.8885,-0.8885,-0.8885,-0.8885,-0.8885,-0.8885,-0.8885,-0.8716,-0.8156,-0.7152,-0.7096,-0.6591,-0.5417,-0.5584,-0.5085,-0.386,-0.4306,-0.3694,-0.1963,-0.2241,-0.1961,-0.1233,-0.1514,-0.1514,-0.1234,-0.1177,-0.1177,-0.1234,-0.1234,-0.1402,-0.1739,-0.1739,-0.1739,-0.1795,-0.1683,-0.1514,-0.129,-0.1234,-0.1065,-0.0897,-0.0841,-0.0841,-0.0729,-0.0449,-0.0336,-0.0279,-0.0056,0.0,0.0445,0.2442,0.3025,0.3665,0.5766,0.6349,0.6546,0.7077,0.7136,0.7043,0.7191,0.721,0.721,0.721,0.721,0.6765,0.5594,0.5427,0.4981,0.3755,0.3587,0.3587,0.3587,0.3531,0.3418,0.3137,0.3026,0.2859,0.2693,0.2547,0.2377,0.2187,0.2379,0.2927,0.3917,0.5031,0.5977,0.6644,0.6813,0.7426,0.8429,0.8429,0.8543,-2.9133,-2.6732,-2.4479,-2.3619,-2.2367,-2.0928,-1.9531,-1.8356,-1.7265,-1.6152,-1.5891,-1.5891,-1.5891,-1.5083,-1.4385,-1.4218,-1.2363,-1.0891,-1.0726,-0.9644,-0.8885,-0.8885,-0.8885,-0.8885,-0.8885,-0.8885,-0.8885,-0.8885,-0.7934,-0.7265,-0.7096,-0.7096,-0.6591,-0.5417,-0.6366,-0.6202,-0.4752,-0.3802,-0.3078,-0.2576,-0.1625,-0.1624,-0.2405,-0.1457,-0.1009,-0.0953,-0.0673,-0.0673,-0.0953,-0.0953,-0.1121,-0.1346,-0.1346,-0.157,-0.1739,-0.1234,-0.1121,-0.129,-0.1009,-0.0953,-0.0841,-0.0561,-0.0449,-0.0393,-0.0112,-0.0056,-0.0055,0.0,0.0,0.0054,0.0376,0.1245,0.2074,0.2461,0.3315,0.4628,0.6758,0.7199,0.7191,0.7207,0.721,0.721,0.721,0.721,0.6765,0.5594,0.5427,0.4981,0.3755,0.3587,0.3587,0.3587,0.3362,0.3138,0.3081,0.2635,0.2412,0.2693,0.2183,0.2015,0.2188,0.2962,0.3461,0.3636,0.4529,0.5477,0.6362,0.7371,0.7931,0.8045,0.8045,0.81,-2.9347,-2.7071,-2.5145,-2.4398,-2.2852,-2.1124,-1.9539,-1.8356,-1.7265,-1.6152,-1.5891,-1.5672,-1.5083,-1.4546,-1.3786,-1.2472,-1.1383,-1.0457,-0.9805,-0.9096,-0.8712,-0.8881,-0.8602,-0.8546,-0.8881,-0.8768,-0.8712,-0.8881,-0.8436,-0.7823,-0.7154,-0.6864,-0.6358,-0.5415,-0.5482,-0.4983,-0.3913,-0.3692,-0.3134,-0.2184,-0.1121,-0.084,-0.1176,-0.0616,-0.0505,-0.0617,-0.0449,-0.0505,-0.0617,-0.0841,-0.0953,-0.1065,-0.1234,-0.129,-0.129,-0.1009,-0.0841,-0.0785,-0.0673,-0.0505,-0.0393,-0.0224,-0.0168,-0.0168,-0.0056,0.0,0.0,0.0,0.0,0.0165,0.0822,0.1377,0.1993,0.2656,0.3227,0.3916,0.4975,0.5704,0.6207,0.6207,0.5646,0.5198,0.5198,0.5198,0.4977,0.4479,0.4369,0.4201,0.3643,0.3587,0.3587,0.3587,0.3306,0.3026,0.2915,0.2468,0.2188,0.2188,0.1964,0.1851,0.1964,0.2353,0.2409,0.2072,0.3913,0.5025,0.5306,0.5584,0.6086,0.676,0.676,0.7207,-2.9354,-2.7711,-2.6336,-2.5083,-2.3453,-2.1566,-1.9731,-1.8464,-1.737,-1.6256,-1.6048,-1.5658,-1.4178,-1.3806,-1.3073,-1.1055,-1.0398,-0.9801,-0.8933,-0.8543,-0.8432,-0.866,-0.8322,-0.8266,-0.866,-0.8543,-0.8543,-0.8657,-0.838,-0.7823,-0.693,-0.6623,-0.6174,-0.5639,-0.5357,-0.4913,-0.4247,-0.4308,-0.3358,-0.1344,-0.1232,-0.0784,0.0,-0.0336,-0.0392,-0.028,-0.028,-0.0336,-0.0393,-0.0673,-0.0841,-0.0897,-0.1009,-0.1009,-0.0897,-0.0729,-0.0561,-0.0393,-0.0336,-0.0168,0.0,0.0,0.0,0.0,0.0,0.0,0.0,0.0,0.0,0.0224,0.112,0.1344,0.1567,0.2463,0.2686,0.2854,0.3469,0.4308,0.4923,0.4923,0.4196,0.358,0.358,0.358,0.3526,0.3305,0.325,0.3138,0.2914,0.2914,0.2858,0.2688,0.2408,0.2185,0.213,0.1851,0.1683,0.1795,0.1795,0.1795,0.1795,0.1739,0.1458,0.1009,0.2795,0.3798,0.3801,0.4191,0.4804,0.5701,0.6035,0.676,-2.9462,-2.8743,-2.7919,-2.5184,-2.3816,-2.2482,-2.0128,-1.8724,-1.7666,-1.6532,-1.6471,-1.5912,-1.352,-1.2737,-1.2087,-1.0891,-0.9526,-0.8595,-0.854,-0.8208,-0.8045,-0.8045,-0.8318,-0.8374,-0.81,-0.8322,-0.8377,-0.8045,-0.7041,-0.6429,-0.6318,-0.6313,-0.6311,-0.6262,-0.7257,-0.7651,-0.7382,-0.5984,-0.358,-0.0112,-0.2351,-0.2239,-0.0056,-0.1176,-0.1064,0.0,0.0,-0.0168,-0.0393,-0.0393,-0.0617,-0.0897,-0.0561,-0.0617,-0.0841,-0.028,-0.0224,-0.0336,-0.0112,0.0,0.0,0.0,0.0,0.0,0.0,0.0,0.0,0.0,0.0,0.0,0.0056,0.0112,0.0112,0.0168,0.0168,0.084,0.3134,0.3636,0.3692,0.3692,0.3636,0.358,0.358,0.358,0.3301,0.2408,0.2296,0.1961,0.1121,0.1065,0.084,0.0224,-0.0056,0.0,0.056,0.028,0.0617,0.1739,0.1795,0.1795,0.1795,0.1514,0.129,0.129,0.0841,0.1065,0.1959,0.4195,0.5371,0.5427,0.6596,0.7154,-3.0343,-2.9434,-2.8652,-2.7088,-2.5315,-2.3362,-2.1073,-1.9635,-1.83,-1.6623,-1.6362,-1.5698,-1.3338,-1.2599,-1.1726,-0.9734,-0.8709,-0.8152,-0.8152,-0.7934,-0.7826,-0.7989,-0.782,-0.7765,-0.7989,-0.7937,-0.7937,-0.7989,-0.7598,-0.7376,-0.7376,-0.7062,-0.7013,-0.7308,-0.7158,-0.6741,-0.595,-0.4653,-0.3374,-0.2202,-0.3082,-0.3045,-0.2351,-0.2742,-0.2742,-0.2295,-0.2295,-0.1512,-0.028,-0.2016,-0.224,-0.1457,-0.1513,-0.1513,-0.1345,-0.0392,-0.0056,-0.0112,-0.0056,0.0,0.0,0.0,0.0,0.0,0.0,0.0,0.0,0.0,0.0,0.0,0.0,0.0,0.0,0.0,0.0,0.0224,0.112,0.1903,0.2462,0.2462,0.1791,0.1288,0.1288,0.112,0.1008,0.1065,0.0896,0.084,0.0897,0.056,0.0224,0.0,-0.056,-0.0895,-0.0672,-0.0952,-0.0952,-0.056,0.0224,0.0617,0.0617,0.1065,0.1234,0.1065,0.0617,0.0561,0.0896,0.1624,0.2351,0.3134,0.4305,0.5312,-3.1109,-3.0279,-2.9642,-2.8568,-2.6651,-2.4526,-2.2518,-2.0731,-1.9019,-1.7369,-1.6679,-1.5803,-1.3841,-1.2941,-1.1604,-0.9033,-0.8252,-0.7944,-0.7944,-0.7705,-0.7621,-0.7788,-0.7578,-0.7494,-0.7721,-0.7686,-0.766,-0.7712,-0.7709,-0.7709,-0.7709,-0.7345,-0.7251,-0.7505,-0.6973,-0.614,-0.499,-0.4618,-0.406,-0.3351,-0.4185,-0.4223,-0.355,-0.4016,-0.3971,-0.3636,-0.4029,-0.3078,-0.1344,-0.3134,-0.3301,-0.2407,-0.2574,-0.2574,-0.2295,-0.1512,-0.1232,-0.1176,-0.0728,-0.0616,-0.056,-0.0112,0.0,0.0,0.0,0.0,0.0,0.0,0.0,0.0,0.0,0.0,0.0,0.0,0.0,0.0,0.0,0.0616,0.1176,0.1176,0.056,0.0,0.0,-0.0224,-0.0336,-0.0056,-0.028,-0.0393,-0.0336,-0.0672,-0.1064,-0.1454,-0.2014,-0.2127,-0.1512,-0.1735,-0.1623,-0.0784,-0.0112,0.028,0.028,0.0729,0.0897,0.0729,0.0449,0.028,0.028,0.0504,0.1008,0.1847,0.3022,0.4029,0.0,0.0,0.0,-2.9499,-2.7756,-2.5969,-2.4356,-2.1951,-1.9713,-1.8635,-1.7524,-1.6334,-1.5033,-1.3611,-1.1772,-0.9033,-0.8161,-0.7792,-0.7792,-0.7616,-0.7519,-0.7519,-0.77,-0.7678,-0.7336,-0.7458,-0.7499,-0.721,-0.721,-0.721,-0.7204,-0.7092,-0.6918,-0.6796,-0.679,-0.6205,-0.5037,-0.6205,-0.5622,-0.3342,-0.5833,-0.5773,-0.3542,-0.488,-0.4806,-0.3745,-0.4921,-0.481,-0.3692,-0.3692,-0.3692,-0.3636,-0.3636,-0.3636,-0.3636,-0.3636,-0.358,-0.3413,-0.2239,-0.1847,-0.1679,-0.0504,-0.0112,-0.0112,-0.0056,-0.0056,-0.0056,0.0,0.0,0.0,0.0,0.0,0.0,0.0,0.0,0.0,0.0,0.0,0.0,0.0,0.0,0.0,0.0,-0.0224,-0.0505,-0.0841,-0.1121,-0.1627,-0.2581,-0.2693,-0.3197,-0.4367,-0.4536,-0.3807,-0.2071,-0.2128,-0.1288,0.0953,0.0897,0.0785,0.0785,0.0505,0.0336,0.0336,0.0112,0.0,-0.0056,0.1176,0.1735,0.1791,0.2965,0.358,-3.1646,0.0,0.0,0.0,0.0,0.0,-2.4806,-2.2346,-2.0004,-1.8656,-1.795,-1.6895,-1.5022,-1.4296,-1.3116,-1.0403,-0.9037,-0.8214,-0.7985,-0.7901,-0.7749,-0.7519,-0.7547,-0.7489,-0.7345,-0.7363,-0.7421,-0.7502,-0.7493,-0.7453,-0.7359,-0.694,-0.6665,-0.6492,-0.6487,-0.6332,-0.6025,-0.6332,-0.6221,-0.5676,-0.6547,-0.6608,-0.5889,-0.6536,-0.6533,-0.6101,-0.6508,-0.6541,-0.6202,-0.6202,-0.5701,-0.4923,-0.4923,-0.4923,-0.481,-0.3916,-0.358,-0.3525,-0.3245,-0.3078,-0.3022,-0.2686,-0.263,-0.2462,-0.1567,-0.1288,-0.112,-0.0224,0.0,0.0,0.0,0.0,0.0,0.0,0.0,0.0,0.0,0.0,0.0,0.0,0.0,-0.0056,-0.028,-0.0561,-0.0841,-0.1121,-0.1458,-0.1908,-0.2637,-0.3085,-0.3643,-0.4424,-0.4873,-0.4931,-0.4426,-0.3863,-0.358,-0.3804,-0.2517,-0.1678,-0.1678,-0.1119,-0.084,-0.084,-0.028,-0.0448,-0.1288,-0.0112,0.0504,0.0504,0.1735,0.2742,-3.2457,-3.2217,-3.2197,-3.1547,0.0,0.0,-2.6421,-2.3824,-2.1301,-2.017,-1.9181,-1.801,-1.633,-1.5534,-1.4513,-1.2585,-1.1315,-0.9985,-0.8531,-0.8343,-0.8322,-0.8084,-0.8036,-0.7976,-0.7898,-0.7798,-0.7763,-0.7859,-0.7803,-0.7691,-0.7505,-0.7142,-0.6819,-0.6595,-0.6589,-0.6489,-0.6387,-0.6387,-0.6472,-0.6698,-0.691,-0.6972,-0.6893,-0.7226,-0.7254,-0.6991,-0.7161,-0.721,-0.721,-0.721,-0.6765,-0.6151,-0.6151,-0.6151,-0.604,-0.5367,-0.5087,-0.5031,-0.4531,-0.4364,-0.425,-0.3748,-0.358,-0.3469,-0.2742,-0.2574,-0.2295,-0.1064,-0.0392,0.0,0.0,0.0,0.0,0.0,0.0,0.0,0.0,0.0,0.0,0.0,-0.0112,-0.0224,-0.0393,-0.0785,-0.1121,-0.129,-0.1795,-0.2412,-0.2973,-0.3587,-0.4201,-0.4817,-0.5266,-0.5377,-0.4873,-0.4533,-0.4475,-0.4643,-0.3691,-0.3075,-0.3075,-0.2683,-0.2404,-0.2404,-0.2069,-0.2238,-0.2909,-0.0952,-0.0056,-0.0168,0.056,0.1232,-3.3562,-3.3407,-3.3565,-3.3239,-3.0997,0.0,-2.8436,-2.5783,-2.3138,-2.2445,-2.1004,-1.9582,-1.8485,-1.7182,-1.6034,-1.5176,-1.4181,-1.2479,-0.9437,-0.9074,-0.9095,-0.8915,-0.8808,-0.8725,-0.8709,-0.8494,-0.8343,-0.8369,-0.8152,-0.7898,-0.766,-0.7504,-0.7214,-0.6848,-0.6795,-0.6692,-0.6487,-0.6437,-0.6589,-0.6845,-0.7011,-0.7018,-0.6973,-0.7263,-0.7271,-0.6972,-0.7141,-0.7199,-0.721,-0.721,-0.721,-0.721,-0.721,-0.721,-0.721,-0.721,-0.721,-0.7043,-0.5984,-0.5594,-0.5427,-0.4362,-0.4027,-0.3971,-0.386,-0.3804,-0.3525,-0.2351,-0.112,-0.0224,-0.0224,-0.0112,0.0,0.0,0.0,-0.0056,-0.0056,-0.0056,-0.0112,-0.0112,-0.028,-0.0449,-0.0561,-0.1065,-0.1458,-0.1514,-0.2244,-0.3029,-0.3643,-0.4201,-0.4817,-0.5603,-0.5768,-0.5485,-0.4531,-0.4697,-0.4472,-0.3578,-0.3691,-0.3804,-0.386,-0.408,-0.419,-0.4244,-0.4526,-0.4639,-0.447,-0.1791,-0.0616,-0.0841,-0.0728,-0.0673,-3.3971,-3.3682,-3.3264,-3.2884,-3.0879,0.0,-2.8814,-2.649,-2.4135,-2.3445,-2.2613,-2.1573,-2.0166,-1.8988,-1.7875,-1.666,-1.575,-1.4156,-1.1183,-1.0816,-1.0358,-0.9034,-0.8891,-0.8832,-0.8719,-0.866,-0.8598,-0.8606,-0.8304,-0.807,-0.8019,-0.7514,-0.7216,-0.7138,-0.6892,-0.6892,-0.7036,-0.6839,-0.6842,-0.7138,-0.7372,-0.7234,-0.6838,-0.7244,-0.7218,-0.6844,-0.6967,-0.7125,-0.721,-0.721,-0.721,-0.721,-0.721,-0.721,-0.721,-0.721,-0.721,-0.7154,-0.6932,-0.6877,-0.6818,-0.6594,-0.6482,-0.6316,-0.5369,-0.5035,-0.481,-0.358,-0.2407,-0.1456,-0.1456,-0.0728,0.0,0.0,-0.0168,-0.0336,-0.0336,-0.0561,-0.0729,-0.0729,-0.0561,-0.0729,-0.1683,-0.1964,-0.2299,-0.3027,-0.3307,-0.3699,-0.4538,-0.4761,-0.5483,-0.7313,-0.6712,-0.649,-0.7141,-0.5808,-0.52,-0.5929,-0.5425,-0.5146,-0.5365,-0.5419,-0.5584,-0.5859,-0.5917,-0.5472,-0.4526,-0.3913,-0.3634,-0.3689,-0.2684,-0.2237,-3.462,-3.4467,-3.4318,-3.3253,-3.2048,0.0,0.0,-2.8255,-2.6673,-2.5865,-2.4997,-2.3811,-2.1999,-2.1089,-2.0167,-1.8769,-1.8077,-1.7091,-1.5349,-1.3603,-1.2221,-1.1382,-1.1261,-1.129,-1.12,-1.111,-1.0744,-0.9964,-0.9559,-0.9029,-0.8328,-0.7744,-0.7391,-0.7391,-0.7141,-0.7039,-0.7188,-0.758,-0.7925,-0.8226,-0.8867,-0.897,-0.8623,-0.8888,-0.8754,-0.8325,-0.8551,-0.8686,-0.8757,-0.8886,-0.8585,-0.7983,-0.7432,-0.721,-0.721,-0.721,-0.721,-0.721,-0.721,-0.721,-0.721,-0.721,-0.721,-0.7099,-0.6485,-0.5873,-0.526,-0.4643,-0.3636,-0.2741,-0.2852,-0.2461,-0.2014,-0.2181,-0.235,-0.2462,-0.2462,-0.2573,-0.2574,-0.2071,-0.2128,-0.2185,-0.2188,-0.297,-0.3695,-0.4199,-0.514,-0.5973,-0.6364,-0.6972,-0.7799,-0.8958,-0.8741,-0.8796,-0.9504,-0.8724,-0.8449,-0.9065,-0.8838,-0.84,-0.7802,-0.8079,-0.8407,-0.8679,-0.9435,-0.9212,-0.8005,-0.8005,-0.6845,-0.4691,-0.4077,-0.3798,-3.5517,-3.5419,-3.5492,-3.4136,-3.3456,-3.2779,0.0,0.0,0.0,-2.8353,-2.74,-2.6075,-2.4072,-2.3122,-2.2286,-2.1111,-2.0432,-1.9851,-1.9416,-1.6911,-1.481,-1.4001,-1.3753,-1.3608,-1.3608,-1.341,-1.2818,-1.1637,-1.1139,-1.0343,-0.9001,-0.8544,-0.8265,-0.7992,-0.7932,-0.7928,-0.7978,-0.8761,-0.9304,-0.9608,-1.0435,-1.0734,-1.0493,-1.0553,-1.0297,-0.9892,-1.0132,-1.0241,-1.0313,-1.0508,-1.0096,-0.914,-0.7983,-0.7376,-0.721,-0.721,-0.721,-0.721,-0.721,-0.721,-0.721,-0.721,-0.721,-0.721,-0.721,-0.6541,-0.5761,-0.5817,-0.4977,-0.4081,-0.4357,-0.4244,-0.419,-0.4414,-0.4526,-0.4582,-0.4582,-0.4693,-0.4528,-0.3745,-0.4247,-0.4362,-0.2969,-0.403,-0.5198,-0.5584,-0.7077,-0.8235,-0.8507,-0.9391,-1.0214,-1.0811,-1.092,-1.1139,-1.1629,-1.1679,-1.1679,-1.1679,-1.195,-1.1579,-1.0449,-1.0887,-1.1324,-1.1542,-1.2674,-1.2832,-1.1914,-1.1864,-0.9768,-0.5855,-0.5577,-0.5522,-3.6815,-3.6332,-3.5848,-3.563,-3.4211,-3.285,-3.2918,0.0,-3.0658,-2.9622,0.0,-2.8164,-2.6789,0.0,0.0,-2.3544,-2.2052,-2.0854,-2.0919,-2.0596,-1.894,-1.5203,-1.3948,-1.3337,-1.3337,-1.3144,-1.3069,-1.3147,-1.2435,-1.1504,-1.0428,-1.0852,-1.0612,-0.9414,-1.0047,-1.0534,-1.073,-1.0632,-1.073,-1.0979,-1.1126,-1.1023,-1.0734,-1.0511,-1.0315,-1.0117,-0.9967,-1.0016,-1.0305,-1.0325,-1.0421,-1.0398,-0.9192,-0.8094,-0.721,-0.721,-0.721,-0.721,-0.721,-0.721,-0.721,-0.721,-0.721,-0.721,-0.721,-0.7099,-0.7043,-0.7271,-0.6485,-0.5644,-0.5973,-0.5248,-0.447,-0.447,-0.4691,-0.4856,-0.4856,-0.525,-0.5644,-0.553,-0.6579,-0.6908,-0.4918,-0.5198,-0.6308,-0.8186,-0.8627,-0.9175,-1.0268,-1.0487,-1.1302,-1.3102,-1.2448,-1.2394,-1.3647,-1.2871,-1.2316,-1.2316,-1.2316,-1.238,-1.2448,-1.2832,-1.2999,-1.3048,-1.321,-1.3367,-1.346,-1.3205,-1.1751,-0.9199,-0.814,-0.7639,-3.7133,-3.6566,-3.6006,-3.5966,-3.5045,-3.4145,-3.4189,-3.3321,-3.2372,-3.181,0.0,0.0,0.0,0.0,0.0,0.0,-2.4716,-2.4279,-2.46,-2.404,-2.2328,-1.8721,-1.7909,-1.7391,-1.6779,-1.592,-1.511,-1.438,-1.3772,-1.2815,-1.136,-1.1337,-1.1133,-1.0542,-1.073,-1.093,-1.1219,-1.1658,-1.195,-1.2096,-1.2684,-1.2883,-1.2597,-1.25,-1.2211,-1.1905,-1.1939,-1.2046,-1.2182,-1.2488,-1.2273,-1.1715,-1.1557,-1.0558,-0.9244,-0.9244,-0.9244,-0.9244,-0.9244,-0.9244,-0.9244,-0.9244,-0.8916,-0.8478,-0.8478,-0.8094,-0.7712,-0.7823,-0.7487,-0.7149,-0.7479,-0.7199,-0.6866,-0.7035,-0.7146,-0.7202,-0.7202,-0.7593,-0.7703,-0.698,-0.8026,-0.8789,-0.7898,-0.8504,-0.9395,-1.0276,-1.1315,-1.2191,-1.2901,-1.327,-1.3922,-1.5066,-1.4793,-1.4787,-1.5541,-1.515,-1.4978,-1.5144,-1.4694,-1.4528,-1.4812,-1.4978,-1.5032,-1.5032,-1.5837,-1.6302,-1.6364,-1.6265,-1.5358,-1.3697,-1.2095,-1.1239,-3.7435,-3.691,-3.6419,-3.6589,-3.6032,-3.54,-3.5278,-3.4605,-3.3908,-3.3684,-3.304,0.0,0.0,0.0,-2.9184,-2.7817,0.0,-2.7613,-2.7659,-2.7003,-2.5409,-2.2513,-2.1624,-2.0825,-1.9862,-1.8671,-1.7466,-1.6154,-1.5614,-1.447,-1.2606,-1.2327,-1.2119,-1.1752,-1.1736,-1.1853,-1.2047,-1.278,-1.3119,-1.3167,-1.395,-1.4208,-1.4027,-1.3931,-1.369,-1.3309,-1.3434,-1.3545,-1.364,-1.4122,-1.3813,-1.3092,-1.3585,-1.2965,-1.1814,-1.1156,-1.0937,-1.0937,-1.0937,-1.0937,-1.0937,-1.0937,-1.0503,-0.9959,-0.9959,-0.9302,-0.8484,-0.8592,-0.8374,-0.8263,-0.8923,-0.9085,-0.9254,-0.9856,-0.9966,-0.9966,-1.008,-1.0245,-1.008,-0.924,-0.9959,-1.0832,-1.0975,-1.1256,-1.1705,-1.225,-1.3457,-1.4493,-1.4982,-1.5506,-1.6045,-1.6583,-1.6696,-1.6849,-1.7153,-1.7153,-1.7265,-1.749,-1.7173,-1.7035,-1.7312,-1.762,-1.7771,-1.7771,-1.879,-1.931,-1.9354,-1.9243,-1.8867,-1.8164,-1.5964,-1.466,-3.798,-3.7623,-3.7237,-3.8028,-3.7249,-3.624,-3.6168,-3.5623,-3.5078,-3.4792,-3.4512,-3.4275,-3.4162,-3.3046,-3.1847,-3.0813,-3.0462,0.0,0.0,-2.9199,-2.8379,-2.5906,-2.3613,-2.1941,-2.1194,-2.0628,-1.9835,-1.8734,-1.8157,-1.6804,-1.4341,-1.4688,-1.4403,-1.3071,-1.3788,-1.4202,-1.4202,-1.425,-1.4244,-1.4244,-1.4292,-1.4298,-1.4298,-1.4022,-1.3883,-1.3883,-1.3599,-1.3639,-1.3928,-1.4185,-1.439,-1.4535,-1.4832,-1.4928,-1.46,-1.229,-1.1465,-1.1465,-1.1465,-1.1465,-1.1465,-1.1465,-1.1465,-1.1411,-1.1411,-1.066,-0.9798,-1.0069,-0.9357,-0.8813,-1.0233,-1.0617,-1.0996,-1.2344,-1.2665,-1.2773,-1.3102,-1.2955,-1.2802,-1.2743,-1.2975,-1.3364,-1.3948,-1.2635,-1.2195,-1.4218,-1.4546,-1.4982,-1.6111,-1.6477,-1.6889,-1.7477,-1.7799,-1.8062,-1.8318,-1.837,-1.837,-1.837,-1.9324,-1.987,-1.987,-2.0939,-2.1541,-2.1541,-2.155,-2.171,-2.1979,-2.171,-2.1853,-2.2223,-1.9375,-1.7492,-3.7284,-3.6936,-3.6671,-3.7926,-3.7189,-3.6314,-3.688,-3.6399,-3.5834,-3.5745,-3.5556,-3.5369,-3.5265,-3.4771,-3.408,-3.3255,-3.3185,-3.296,0.0,-3.1904,-3.1578,-3.0981,-2.7357,-2.4748,-2.4365,-2.268,-2.1426,-2.0869,-1.9889,-1.8549,-1.6847,-1.6583,-1.585,-1.4493,-1.4334,-1.4298,-1.4298,-1.4956,-1.4956,-1.4298,-1.4956,-1.4956,-1.4298,-1.4208,-1.407,-1.3883,-1.3786,-1.3833,-1.3932,-1.4187,-1.4443,-1.4699,-1.5164,-1.5323,-1.5208,-1.4213,-1.3825,-1.3825,-1.3825,-1.3825,-1.3825,-1.3825,-1.3447,-1.2955,-1.2955,-1.2304,-1.1378,-1.0726,-1.0781,-1.1051,-1.1,-1.1538,-1.229,-1.294,-1.3254,-1.3254,-1.2788,-1.3112,-1.3334,-1.296,-1.357,-1.4385,-1.5173,-1.5108,-1.5114,-1.5678,-1.6051,-1.653,-1.7113,-1.7681,-1.8258,-1.8691,-1.9101,-1.9413,-1.9509,-1.9717,-2.0012,-2.0562,-2.1065,-2.1617,-2.2165,-2.2567,-2.2776,-2.2776,-2.2776,-2.3126,-2.3939,-2.3881,-2.393,-2.4088,-2.3808,-2.2505,-3.6506,-3.6357,-3.6241,-3.7235,-3.6786,-3.6275,-3.6906,-3.6631,-3.6297,-3.6563,-3.6698,-3.6684,-3.6362,-3.6741,-3.6621,-3.5142,-3.5624,-3.5821,0.0,-3.4463,-3.4333,-3.4246,-3.066,-2.7793,-2.6792,-2.5439,-2.3904,-2.2128,-2.1538,-2.0523,-1.8818,-1.8182,-1.7415,-1.654,-1.5855,-1.5514,-1.5514,-1.6075,-1.6035,-1.5378,-1.5656,-1.5473,-1.4813,-1.4813,-1.4723,-1.4586,-1.4962,-1.4914,-1.461,-1.4973,-1.5053,-1.5023,-1.5597,-1.5767,-1.5743,-1.5416,-1.5303,-1.5303,-1.5303,-1.5303,-1.5357,-1.5416,-1.5083,-1.4643,-1.4745,-1.4094,-1.3171,-1.2462,-1.2462,-1.2733,-1.262,-1.3151,-1.3954,-1.5026,-1.5394,-1.5441,-1.518,-1.55,-1.5559,-1.4829,-1.5269,-1.5914,-1.6299,-1.6876,-1.7199,-1.6955,-1.7378,-1.7845,-1.8167,-1.893,-1.9502,-1.9672,-2.0138,-2.0395,-2.0395,-2.079,-2.1285,-2.1785,-2.2634,-2.3343,-2.384,-2.4236,-2.4442,-2.4442,-2.462,-2.51,-2.5983,-2.6252,-2.6604,-2.7133,-2.7953,-2.7588]},{"header":{"parameterUnit":"m.s-1","parameterCategory":1,"la1":30.6,"la2":29.2853,"lo1":-89.7004,"lo2":-87.6739,"dy":0.0162,"dx":0.0183,"nx":112,"ny":82,"refTime":"2026-05-05T12:00:00:Z","depth":0,"parameterNumber":3,"parameterNumberName":"V-component_of_WINDS"},"data":[0.0,0.0,0.0,0.0,0.0,0.0,0.0,0.0,0.0,0.0,0.0,0.0,0.0,0.0,0.0,0.0,0.0,0.0,0.0,0.0,0.0,0.0,0.0,0.0,0.0,0.0,0.0,0.0,0.0,0.0,0.0,0.0,0.0,0.0,0.0,0.0,0.0,0.0,0.0,0.0,0.0,0.0,0.0,0.0,0.0,0.0,0.0,0.0,0.0,0.0,0.0,0.0,0.0,0.0,0.0,0.0,0.0,0.0,0.0,0.0,0.0,0.0,0.0,0.0,0.0,0.0,0.0,0.0,0.0,0.0,0.0,0.0,0.0,0.0,0.0,0.0,0.0,0.0,0.0,0.0,0.0,0.0,0.0,0.0,0.0,0.0,0.0,0.0,0.0,0.0,3.5799,3.6203,3.746,3.8534,3.9236,3.8696,3.7263,3.4847,0.0,0.0,0.0,0.0,0.0,0.0,0.0,0.0,0.0,0.0,0.0,0.0,0.0,0.0,0.0,0.0,0.0,0.0,0.0,0.0,0.0,0.0,0.0,0.0,0.0,0.0,0.0,0.0,0.0,0.0,0.0,0.0,0.0,0.0,0.0,0.0,0.0,0.0,0.0,0.0,0.0,0.0,0.0,0.0,0.0,0.0,0.0,0.0,0.0,0.0,0.0,0.0,0.0,0.0,0.0,0.0,0.0,0.0,0.0,0.0,0.0,0.0,0.0,0.0,0.0,0.0,0.0,0.0,0.0,0.0,0.0,0.0,0.0,0.0,0.0,0.0,0.0,0.0,0.0,0.0,0.0,0.0,0.0,0.0,0.0,0.0,0.0,0.0,0.0,0.0,0.0,0.0,0.0,0.0,0.0,0.0,0.0,0.0,0.0,0.0,0.0,0.0,0.0,0.0,3.557,3.7178,3.7761,3.84,3.9223,3.8696,3.7507,3.5642,0.0,0.0,0.0,0.0,0.0,0.0,0.0,0.0,0.0,0.0,0.0,0.0,0.0,0.0,0.0,0.0,0.0,0.0,0.0,0.0,0.0,0.0,0.0,0.0,0.0,0.0,0.0,0.0,0.0,0.0,0.0,0.0,0.0,0.0,0.0,0.0,0.0,0.0,0.0,0.0,0.0,0.0,0.0,0.0,0.0,0.0,0.0,0.0,0.0,0.0,0.0,0.0,0.0,0.0,0.0,0.0,0.0,0.0,0.0,0.0,0.0,0.0,0.0,0.0,0.0,0.0,0.0,0.0,0.0,0.0,0.0,0.0,0.0,0.0,0.0,0.0,0.0,0.0,0.0,0.0,0.0,0.0,0.0,0.0,0.0,0.0,0.0,0.0,0.0,0.0,0.0,0.0,0.0,0.0,0.0,0.0,0.0,0.0,0.0,0.0,0.0,0.0,0.0,3.545,3.6272,3.8164,3.8363,3.8632,3.9248,3.8557,3.7221,3.5169,3.5817,0.0,0.0,0.0,0.0,0.0,0.0,0.0,0.0,0.0,0.0,0.0,0.0,0.0,0.0,0.0,0.0,0.0,0.0,0.0,0.0,0.0,0.0,0.0,0.0,0.0,0.0,0.0,0.0,0.0,0.0,0.0,0.0,0.0,0.0,0.0,0.0,0.0,0.0,0.0,0.0,0.0,0.0,0.0,0.0,0.0,0.0,0.0,0.0,0.0,0.0,0.0,0.0,0.0,0.0,0.0,0.0,0.0,0.0,0.0,0.0,0.0,0.0,0.0,0.0,0.0,0.0,0.0,0.0,0.0,0.0,0.0,0.0,0.0,0.0,0.0,0.0,0.0,0.0,0.0,0.0,0.0,0.0,0.0,0.0,0.0,0.0,0.0,0.0,0.0,0.0,0.0,0.0,0.0,0.0,0.0,0.0,0.0,0.0,0.0,0.0,0.0,0.0,3.6168,3.69,3.8729,3.8818,3.8806,3.8926,3.8233,3.6836,3.4634,3.5218,0.0,0.0,0.0,0.0,0.0,0.0,0.0,0.0,0.0,0.0,0.0,0.0,0.0,0.0,0.0,0.0,0.0,0.0,0.0,0.0,0.0,0.0,0.0,0.0,0.0,0.0,0.0,0.0,0.0,0.0,0.0,0.0,0.0,0.0,0.0,0.0,0.0,0.0,0.0,0.0,0.0,0.0,0.0,0.0,0.0,0.0,0.0,0.0,0.0,0.0,0.0,0.0,0.0,0.0,0.0,0.0,0.0,0.0,0.0,0.0,0.0,0.0,0.0,0.0,0.0,0.0,0.0,0.0,0.0,0.0,0.0,0.0,0.0,0.0,0.0,0.0,0.0,0.0,0.0,0.0,0.0,0.0,0.0,0.0,0.0,0.0,0.0,0.0,0.0,0.0,0.0,0.0,0.0,0.0,0.0,0.0,0.0,0.0,0.0,0.0,0.0,0.0,3.6069,3.6857,3.8531,3.8811,3.8607,3.796,3.7608,3.6593,3.4619,3.4575,0.0,0.0,0.0,0.0,0.0,0.0,0.0,0.0,0.0,0.0,0.0,0.0,0.0,0.0,0.0,0.0,0.0,0.0,0.0,0.0,0.0,0.0,0.0,0.0,0.0,0.0,0.0,0.0,0.0,0.0,0.0,0.0,0.0,0.0,0.0,0.0,0.0,0.0,0.0,0.0,0.0,0.0,0.0,0.0,0.0,0.0,0.0,0.0,0.0,0.0,0.0,0.0,0.0,0.0,0.0,0.0,0.0,0.0,0.0,0.0,0.0,0.0,0.0,0.0,0.0,0.0,0.0,0.0,0.0,0.0,0.0,0.0,0.0,0.0,0.0,0.0,0.0,0.0,0.0,0.0,0.0,0.0,0.0,0.0,0.0,0.0,0.0,0.0,0.0,0.0,0.0,0.0,0.0,0.0,0.0,0.0,0.0,0.0,0.0,0.0,0.0,0.0,3.6109,3.6831,3.8629,3.8093,3.761,3.7678,3.6897,3.5675,3.3994,0.0,0.0,0.0,0.0,0.0,0.0,0.0,0.0,0.0,0.0,0.0,0.0,0.0,0.0,0.0,0.0,0.0,0.0,0.0,0.0,0.0,0.0,0.0,0.0,0.0,0.0,0.0,0.0,0.0,0.0,0.0,0.0,0.0,0.0,0.0,0.0,0.0,0.0,0.0,0.0,0.0,0.0,0.0,0.0,0.0,0.0,0.0,0.0,0.0,0.0,0.0,0.0,0.0,0.0,0.0,0.0,0.0,0.0,0.0,0.0,0.0,0.0,0.0,0.0,0.0,0.0,0.0,0.0,0.0,0.0,0.0,0.0,0.0,0.0,0.0,0.0,0.0,0.0,0.0,0.0,0.0,0.0,0.0,0.0,0.0,0.0,0.0,0.0,0.0,0.0,0.0,0.0,0.0,0.0,0.0,0.0,0.0,0.0,0.0,0.0,0.0,0.0,3.6228,3.6329,3.6844,3.8386,3.7686,3.7049,3.6879,3.5884,3.4512,3.2773,0.0,0.0,0.0,0.0,0.0,0.0,0.0,0.0,0.0,0.0,0.0,0.0,0.0,0.0,0.0,0.0,0.0,0.0,0.0,0.0,0.0,0.0,0.0,0.0,0.0,0.0,0.0,0.0,0.0,0.0,0.0,0.0,0.0,0.0,0.0,0.0,0.0,0.0,0.0,0.0,0.0,0.0,0.0,0.0,0.0,0.0,0.0,0.0,0.0,0.0,0.0,0.0,0.0,0.0,0.0,0.0,0.0,0.0,0.0,0.0,0.0,0.0,0.0,0.0,0.0,0.0,0.0,0.0,0.0,0.0,0.0,0.0,0.0,0.0,0.0,0.0,0.0,0.0,0.0,0.0,0.0,0.0,0.0,0.0,0.0,0.0,0.0,0.0,0.0,0.0,0.0,0.0,0.0,0.0,0.0,0.0,0.0,0.0,0.0,0.0,0.0,0.0,3.6674,3.6726,3.6891,3.7697,3.7789,3.7096,3.5433,3.454,3.3174,0.0,0.0,0.0,0.0,0.0,0.0,0.0,0.0,0.0,0.0,0.0,0.0,0.0,0.0,0.0,0.0,0.0,0.0,0.0,0.0,0.0,0.0,0.0,0.0,0.0,0.0,0.0,0.0,0.0,0.0,0.0,0.0,0.0,0.0,0.0,0.0,0.0,0.0,0.0,0.0,0.0,0.0,0.0,0.0,0.0,0.0,0.0,0.0,0.0,0.0,0.0,0.0,0.0,0.0,0.0,0.0,0.0,0.0,0.0,0.0,0.0,0.0,0.0,0.0,0.0,0.0,0.0,0.0,0.0,0.0,0.0,0.0,0.0,0.0,0.0,0.0,0.0,0.0,0.0,0.0,0.0,0.0,0.0,0.0,0.0,0.0,0.0,0.0,0.0,0.0,0.0,0.0,0.0,0.0,0.0,0.0,0.0,0.0,0.0,0.0,0.0,0.0,0.0,3.6134,3.6205,3.6417,3.7025,3.638,3.5643,3.4999,3.3823,3.2361,3.0577,0.0,0.0,0.0,0.0,0.0,0.0,0.0,0.0,0.0,0.0,0.0,0.0,0.0,0.0,0.0,0.0,0.0,0.0,0.0,0.0,0.0,0.0,0.0,0.0,0.0,0.0,0.0,0.0,0.0,0.0,0.0,0.0,0.0,0.0,0.0,0.0,0.0,0.0,0.0,0.0,0.0,0.0,0.0,0.0,0.0,0.0,0.0,0.0,0.0,0.0,0.0,0.0,0.0,0.0,0.0,0.0,0.0,0.0,0.0,0.0,0.0,0.0,0.0,0.0,0.0,0.0,0.0,0.0,0.0,0.0,0.0,0.0,0.0,0.0,0.0,0.0,0.0,0.0,0.0,0.0,0.0,0.0,0.0,0.0,0.0,0.0,0.0,0.0,0.0,0.0,0.0,0.0,0.0,0.0,0.0,0.0,0.0,0.0,0.0,0.0,0.0,0.0,3.5949,3.5979,3.6058,3.6361,3.5831,3.515,3.4385,3.3412,3.1902,2.9685,0.0,0.0,0.0,0.0,0.0,0.0,0.0,0.0,0.0,0.0,0.0,0.0,0.0,0.0,0.0,0.0,0.0,0.0,0.0,0.0,0.0,0.0,0.0,0.0,0.0,0.0,0.0,0.0,0.0,0.0,0.0,0.0,0.0,0.0,0.0,0.0,0.0,0.0,0.0,0.0,0.0,0.0,0.0,0.0,0.0,0.0,0.0,0.0,0.0,0.0,0.0,0.0,0.0,0.0,0.0,0.0,0.0,0.0,0.0,0.0,0.0,0.0,0.0,0.0,0.0,0.0,0.0,0.0,0.0,0.0,0.0,0.0,0.0,0.0,0.0,0.0,0.0,0.0,0.0,0.0,0.0,0.0,0.0,0.0,0.0,0.0,0.0,0.0,0.0,0.0,0.0,0.0,0.0,0.0,0.0,0.0,0.0,0.0,0.0,0.0,0.0,0.0,3.596,3.5939,3.5813,3.5735,3.5813,3.5278,3.3771,3.328,3.1746,2.8708,0.0,0.0,0.0,0.0,0.0,0.0,0.0,0.0,0.0,0.0,0.0,0.0,0.0,0.0,0.0,0.0,0.0,0.0,0.0,0.0,0.0,0.0,0.0,0.0,0.0,0.0,0.0,0.0,0.0,0.0,0.0,0.0,0.0,0.0,0.0,0.0,0.0,0.0,0.0,0.0,0.0,0.0,0.0,0.0,0.0,0.0,0.0,0.0,0.0,0.0,0.0,0.0,0.0,0.0,0.0,0.0,0.0,0.0,0.0,0.0,3.5892,3.4585,0.0,0.0,0.0,0.0,0.0,0.0,0.0,0.0,0.0,0.0,0.0,0.0,0.0,0.0,0.0,0.0,0.0,0.0,0.0,0.0,0.0,0.0,0.0,0.0,0.0,0.0,0.0,0.0,0.0,0.0,0.0,0.0,0.0,0.0,0.0,0.0,0.0,0.0,0.0,0.0,3.5682,3.5587,3.5411,3.5189,3.5049,3.4703,3.4049,3.3154,3.1683,2.948,2.78,0.0,0.0,0.0,0.0,0.0,0.0,0.0,0.0,0.0,0.0,0.0,0.0,0.0,0.0,0.0,0.0,0.0,0.0,0.0,0.0,0.0,0.0,0.0,0.0,0.0,0.0,0.0,0.0,0.0,0.0,0.0,0.0,0.0,0.0,0.0,0.0,0.0,0.0,0.0,0.0,0.0,0.0,0.0,0.0,0.0,0.0,0.0,0.0,0.0,0.0,0.0,0.0,0.0,0.0,0.0,0.0,0.0,0.0,0.0,3.7584,3.6756,0.0,0.0,0.0,0.0,0.0,0.0,0.0,0.0,0.0,0.0,0.0,0.0,0.0,0.0,0.0,0.0,0.0,0.0,0.0,0.0,0.0,0.0,0.0,0.0,0.0,0.0,0.0,0.0,0.0,0.0,0.0,0.0,0.0,0.0,0.0,0.0,0.0,0.0,0.0,0.0,3.6118,3.5746,3.5513,3.5698,3.5304,3.4737,3.4012,3.3396,3.2166,3.0173,2.8142,0.0,0.0,0.0,0.0,0.0,0.0,0.0,0.0,0.0,0.0,0.0,0.0,0.0,0.0,0.0,0.0,0.0,0.0,0.0,0.0,0.0,0.0,0.0,0.0,0.0,0.0,0.0,0.0,0.0,0.0,0.0,0.0,0.0,0.0,0.0,0.0,0.0,0.0,0.0,0.0,0.0,0.0,0.0,0.0,0.0,0.0,0.0,0.0,0.0,0.0,0.0,0.0,0.0,4.1987,4.1917,4.1649,4.1649,4.1501,4.1177,3.9615,3.9452,4.0185,3.8401,0.0,0.0,0.0,0.0,0.0,0.0,0.0,0.0,0.0,0.0,0.0,0.0,0.0,0.0,0.0,0.0,0.0,0.0,0.0,0.0,0.0,0.0,3.8134,3.7312,3.7898,3.7917,3.5303,0.0,0.0,0.0,0.0,0.0,0.0,0.0,0.0,0.0,0.0,0.0,3.6517,3.5958,3.5739,3.6289,3.5755,3.4996,3.4069,3.3759,3.2806,3.0923,2.8836,2.6146,0.0,0.0,0.0,0.0,0.0,0.0,0.0,0.0,0.0,0.0,0.0,0.0,0.0,0.0,0.0,0.0,0.0,0.0,0.0,0.0,0.0,0.0,0.0,0.0,0.0,0.0,0.0,0.0,0.0,0.0,0.0,0.0,3.8706,3.7964,0.0,0.0,0.0,0.0,0.0,0.0,0.0,0.0,0.0,0.0,0.0,0.0,0.0,4.1061,4.1764,4.1742,4.1812,4.1978,4.2742,4.3085,4.3025,4.2974,4.3305,4.3841,4.2742,0.0,3.9884,3.8567,0.0,0.0,0.0,0.0,0.0,0.0,0.0,0.0,0.0,0.0,0.0,0.0,0.0,0.0,0.0,0.0,0.0,0.0,0.0,0.0,0.0,0.0,3.9429,3.8577,3.8612,3.8555,3.745,3.6587,3.6008,3.6021,3.6152,3.6064,0.0,0.0,0.0,0.0,0.0,0.0,3.5839,3.5698,3.5622,3.5713,3.5427,3.5095,3.4784,3.4106,3.32,3.2049,3.0131,2.753,2.4177,2.224,0.0,0.0,0.0,0.0,0.0,0.0,0.0,0.0,0.0,0.0,0.0,0.0,0.0,0.0,0.0,0.0,0.0,0.0,0.0,0.0,0.0,0.0,0.0,0.0,0.0,0.0,0.0,0.0,0.0,3.9829,4.0276,4.0256,4.0082,3.95,0.0,0.0,0.0,0.0,0.0,0.0,0.0,0.0,0.0,4.0817,4.1283,4.1995,4.3,4.2812,4.2929,4.3412,4.3801,4.397,4.397,4.3947,4.4107,4.4364,4.3658,4.2822,4.185,4.0854,4.0177,3.9711,0.0,0.0,0.0,0.0,3.8398,3.851,3.8418,3.8331,3.8161,3.7471,0.0,0.0,0.0,0.0,0.0,0.0,0.0,3.8794,3.9006,3.9486,3.9821,3.9565,3.9659,3.9668,3.9209,3.8497,3.7784,3.7288,3.7204,3.703,3.6402,3.6251,0.0,0.0,0.0,3.597,3.6431,3.6004,3.5797,3.617,3.574,3.5295,3.4977,3.4434,3.3938,3.3581,3.1969,3.0203,2.8319,2.5848,2.3339,0.0,0.0,0.0,0.0,0.0,0.0,0.0,0.0,0.0,0.0,0.0,0.0,0.0,0.0,0.0,0.0,0.0,0.0,0.0,0.0,0.0,0.0,0.0,0.0,0.0,0.0,0.0,0.0,4.1295,4.1703,4.2068,4.1859,4.1166,0.0,0.0,0.0,0.0,0.0,0.0,3.9898,4.1179,4.2039,4.227,4.2617,4.3213,4.4053,4.3768,4.3914,4.4501,4.4501,4.4501,4.4501,4.4501,4.4468,4.4397,4.403,4.3804,4.3617,4.2577,4.1742,4.1024,4.0336,3.9976,3.9878,3.968,3.9955,4.0384,4.0238,4.0366,4.0415,3.9514,3.92,3.8999,3.8118,0.0,0.0,0.0,0.0,4.0251,4.0285,4.0324,4.0348,4.028,4.0433,4.0546,4.04,3.9954,3.9329,3.8358,3.8154,3.7896,3.7091,3.6799,0.0,3.5911,3.6018,3.6304,3.6708,3.6168,3.5917,3.641,3.5958,3.5501,3.5182,3.5001,3.4902,3.4833,3.3913,3.2913,3.1892,2.9768,2.7534,2.5279,0.0,0.0,0.0,0.0,0.0,0.0,0.0,0.0,0.0,0.0,0.0,0.0,0.0,0.0,0.0,0.0,0.0,0.0,0.0,0.0,0.0,0.0,0.0,0.0,0.0,0.0,0.0,0.0,0.0,4.2189,4.3414,0.0,0.0,0.0,0.0,4.2354,4.2657,4.2835,4.2797,4.3836,4.4237,4.3797,4.4607,4.4862,4.4481,4.4439,4.4463,4.4501,4.4501,4.4501,4.4501,4.4501,4.4501,4.4501,4.4397,4.4325,4.4136,4.2424,4.1484,4.1064,4.0636,4.0238,3.9938,4.0311,4.0647,4.0965,4.0948,4.1193,4.1527,4.1468,4.0969,4.0556,4.1297,4.1081,0.0,0.0,4.2223,4.2098,4.1484,4.1461,4.1415,4.0654,4.0646,4.0784,4.0778,4.0739,4.0398,3.933,3.9123,3.8691,3.734,0.0,3.8614,3.6248,3.6592,3.6821,3.5967,3.5825,3.5803,3.5836,3.5761,3.5664,3.5587,3.6029,3.6055,3.5483,3.58,3.5223,3.3462,3.2953,3.1478,2.8879,2.7181,0.0,0.0,0.0,0.0,0.0,0.0,0.0,0.0,0.0,0.0,0.0,0.0,0.0,0.0,0.0,0.0,0.0,0.0,0.0,0.0,0.0,0.0,0.0,0.0,0.0,0.0,0.0,0.0,4.3812,4.4246,0.0,4.2828,4.2975,4.3134,4.3061,4.3655,4.404,4.404,4.4766,4.5101,4.4929,4.4946,4.4868,4.4688,4.456,4.4501,4.4501,4.4501,4.4501,4.4501,4.4501,4.4501,4.4501,4.4426,4.4354,4.4252,4.3579,4.3019,4.2577,4.2429,4.2266,4.2141,4.2014,4.2213,4.2542,4.2542,4.2627,4.2721,4.2458,4.1828,4.1277,4.1684,4.1718,4.1713,4.2252,4.2457,4.2512,4.2448,4.2071,4.1655,4.1509,4.1126,4.0797,4.0797,4.0797,4.0706,4.0355,3.9843,3.9295,3.8795,3.8812,3.8597,3.7716,3.7837,3.7718,3.6815,3.7142,3.7256,3.6696,3.7127,3.74,3.7283,3.7295,3.7281,3.7238,3.7073,3.665,3.5915,3.4914,3.3639,3.2145,3.0574,2.8936,0.0,0.0,0.0,0.0,0.0,0.0,0.0,0.0,0.0,0.0,0.0,0.0,0.0,0.0,0.0,0.0,0.0,0.0,0.0,0.0,0.0,0.0,0.0,0.0,0.0,4.4479,4.4779,4.4705,4.4879,4.4678,4.3827,4.3982,4.4136,4.4136,4.4678,4.5007,4.5007,4.5376,4.5552,4.5399,4.5099,4.4856,4.4701,4.456,4.4501,4.4501,4.4501,4.4501,4.4501,4.4501,4.4501,4.4501,4.444,4.4368,4.43,4.4259,4.3974,4.361,4.361,4.3508,4.337,4.3248,4.3371,4.361,4.361,4.361,4.3568,4.3397,4.2994,4.259,4.2779,4.2944,4.313,4.3379,4.35,4.3579,4.3558,4.3104,4.2567,4.2105,4.1583,4.1132,4.0889,4.0837,4.0851,4.0915,4.0444,3.9958,3.9707,3.9511,3.9199,3.8622,3.878,3.8663,3.7783,3.8138,3.8255,3.7678,3.8102,3.8387,3.8285,3.8084,3.7976,3.8004,3.7634,3.7238,3.6806,3.6168,3.5294,3.4223,3.2772,3.0891,2.8605,0.0,0.0,0.0,0.0,0.0,0.0,0.0,0.0,0.0,0.0,0.0,0.0,0.0,0.0,0.0,0.0,0.0,0.0,0.0,0.0,0.0,0.0,0.0,4.4917,4.4869,4.4818,4.4744,4.5363,4.549,4.471,4.5336,4.5807,4.5807,4.5807,4.5807,4.5807,4.5807,4.5618,4.5222,4.5211,4.4981,4.451,4.4515,4.4515,4.4501,4.4501,4.4501,4.4501,4.4501,4.4501,4.4501,4.4501,4.443,4.43,4.43,4.4177,4.4005,4.4005,4.3761,4.3457,4.386,4.4005,4.4005,4.4005,4.4005,4.4048,4.4303,4.4397,4.4465,4.48,4.4962,4.5074,4.541,4.5502,4.5368,4.4791,4.4613,4.4168,4.2473,4.2035,4.182,4.1097,4.0927,4.092,4.0981,4.0957,4.068,3.9962,4.0543,4.0552,3.8925,3.9394,0.0,3.875,3.8651,3.867,3.8631,3.8591,3.8541,3.8471,3.8412,3.8197,3.7729,3.7606,3.7114,3.6176,3.6839,3.6542,3.5099,3.3723,3.1817,2.9307,0.0,0.0,0.0,0.0,0.0,0.0,0.0,0.0,0.0,0.0,0.0,0.0,0.0,0.0,0.0,0.0,0.0,0.0,0.0,0.0,0.0,4.4277,4.4979,4.4917,4.5398,4.5718,4.5643,4.5738,4.571,4.549,4.5671,4.5807,4.5807,4.5807,4.5807,4.5807,4.5807,4.5673,4.5418,4.5418,4.5194,4.4726,4.4726,4.4642,4.4501,4.4501,4.4501,4.4501,4.4501,4.4501,4.4501,4.4501,4.443,4.43,4.43,4.4177,4.4005,4.4005,4.3923,4.386,4.3955,4.4005,4.4005,4.4005,4.4005,4.4048,4.4303,4.4397,4.4465,4.48,4.5019,4.5201,4.5429,4.5565,4.5615,4.5508,4.5045,4.4478,4.4001,4.2968,4.2013,4.1811,4.1345,4.0984,4.1064,4.1064,4.0986,4.0773,4.0987,4.1014,4.0547,4.0684,4.0527,3.9647,4.0057,4.0175,3.9549,4.0019,4.0347,4.023,4.0235,4.0163,3.9932,3.9038,3.8644,3.8953,3.8053,3.719,3.639,3.4717,3.3195,0.0,0.0,0.0,0.0,0.0,0.0,0.0,0.0,0.0,0.0,0.0,0.0,0.0,0.0,0.0,0.0,0.0,0.0,0.0,0.0,0.0,0.0,4.4959,4.5476,4.5419,4.5813,4.6072,4.6012,4.5873,4.5807,4.5807,4.5807,4.5807,4.5807,4.5807,4.5807,4.5807,4.5807,4.5715,4.5518,4.5418,4.5184,4.48,4.4714,4.4621,4.4501,4.4501,4.4501,4.4501,4.4501,4.4501,4.4501,4.4501,4.4444,4.4344,4.4344,4.4252,4.4131,0.0,0.0,0.0,0.0,4.4005,4.4005,4.4005,4.4079,4.4206,4.4479,4.465,4.48,4.5096,4.5283,4.5429,4.5559,4.5662,4.5746,4.5791,4.5445,4.5021,4.4711,4.3627,4.2553,4.2245,4.1571,4.1066,4.1121,4.1144,0.0,4.1144,4.117,4.1191,4.1191,4.1172,4.0976,4.0467,4.0816,4.0914,4.039,4.0799,4.1071,4.0996,4.0676,0.0,0.0,0.0,3.8942,3.9607,3.858,0.0,0.0,0.0,0.0,0.0,0.0,0.0,0.0,3.2103,3.2651,0.0,0.0,0.0,0.0,0.0,0.0,0.0,0.0,0.0,0.0,0.0,0.0,0.0,0.0,0.0,0.0,4.5673,4.6167,4.6098,4.6087,4.6056,4.5997,4.5861,4.5845,4.5942,4.5962,4.6,4.6097,4.6097,4.6097,4.6097,4.6097,0.0,0.0,0.0,4.5241,4.4969,4.478,4.4711,4.4782,4.467,4.4632,4.4632,4.4538,4.4501,4.4501,4.4501,4.4454,4.4397,4.4383,4.4325,4.4255,4.4101,4.402,4.4005,4.4005,4.4005,4.3986,4.4033,0.0,0.0,4.4751,4.5007,4.5243,4.5513,4.564,4.5693,4.5701,4.5738,4.5792,4.58,4.5805,4.5641,4.4993,4.42,4.3365,4.2613,4.1813,4.1238,4.1191,4.1191,4.1191,4.1191,4.1191,4.1191,4.1191,4.1132,4.1093,4.1093,4.1109,4.1105,4.1087,4.1103,0.0,4.1094,4.0391,3.9902,3.9782,3.9022,3.8721,3.905,3.8714,3.8515,3.8505,3.8447,3.797,3.7106,3.6936,3.6814,3.6758,3.5659,3.5405,0.0,0.0,0.0,0.0,0.0,0.0,0.0,0.0,0.0,0.0,0.0,0.0,0.0,0.0,0.0,4.4908,4.5641,4.6155,4.6036,4.6013,4.5972,4.5841,4.5821,4.6078,4.6786,4.6844,4.7134,4.7831,4.7908,4.7908,4.7908,4.7908,4.7564,4.68,4.66,4.6349,4.6088,4.5892,4.6027,4.6523,4.581,0.0,4.5453,4.4815,4.4501,4.4501,4.4501,4.4454,4.4397,4.4344,4.4207,4.4067,4.4135,4.4104,4.4005,4.4005,4.4005,4.4017,4.425,4.436,4.4479,4.4973,4.5169,4.5243,4.5513,4.5622,0.0,4.5673,4.5709,4.5714,4.5727,4.5801,4.5832,4.5697,4.5137,4.4382,4.3531,4.2722,4.1933,4.1249,4.1112,4.1112,4.1129,4.1111,4.1113,4.111,4.1111,4.1092,4.1106,4.1107,4.1082,4.1039,4.1069,4.1081,4.1022,4.091,4.0836,4.0819,4.0546,4.0103,3.9438,3.9284,3.9219,3.9211,3.9084,3.8612,3.7723,3.8946,3.9214,3.8566,3.6894,3.656,0.0,0.0,0.0,0.0,0.0,0.0,0.0,0.0,0.0,0.0,0.0,4.3828,4.4232,0.0,4.5064,4.5433,4.5849,4.6072,4.6017,4.5947,4.5886,4.5814,4.5807,4.6136,4.7018,4.7096,4.7463,4.8333,4.8392,4.8392,4.8392,4.8392,4.8198,4.7753,4.7422,4.719,4.7043,4.6721,4.6704,4.6993,4.6561,4.6354,4.6317,4.5491,4.5097,4.5078,4.467,4.4454,4.4397,4.4329,4.4226,4.4135,4.4292,4.4218,4.4005,4.4005,4.4075,4.4221,4.436,4.4585,4.4849,4.5107,4.5302,4.5429,4.5559,4.5594,4.5614,4.564,4.5665,4.5714,4.5733,4.5816,4.5931,4.6028,4.5462,4.4786,4.4395,4.3647,4.2792,4.1912,4.1756,4.1601,4.1171,4.1094,4.1094,4.1091,4.1108,4.1104,4.1099,4.1101,4.1099,4.1044,4.107,4.108,4.105,4.1078,4.1093,4.1092,4.1014,4.0748,4.0313,4.0202,4.0141,4.014,4.0017,3.9734,3.929,4.0118,4.0289,3.9885,3.8965,3.8658,0.0,0.0,0.0,0.0,0.0,0.0,0.0,4.291,4.3144,4.4023,4.4199,4.4371,4.5036,4.5141,4.5333,4.5974,4.6036,4.5991,4.595,4.588,4.5807,4.5807,4.5807,4.6213,4.725,4.7347,4.7773,4.8817,4.8894,4.8894,4.8894,4.8894,4.8817,4.8662,4.8193,4.7966,4.8009,4.7553,4.7381,4.7531,4.7381,4.7277,4.7199,4.6167,4.5697,4.5641,4.4838,4.4426,4.4387,4.43,4.427,4.4252,4.4407,4.4351,4.4151,4.4151,4.4275,4.4479,4.4533,4.4837,4.5211,4.5253,4.5419,4.5594,4.5594,4.5594,4.5594,4.5594,4.564,4.5695,4.579,4.5853,4.5944,4.6145,4.566,4.5139,4.5013,4.445,4.3689,4.2829,4.2653,4.2422,4.1728,4.1461,4.1288,4.1105,4.1099,4.1093,4.1108,4.1094,4.1098,4.1098,4.1098,4.109,4.1105,4.1092,4.1106,4.11,4.1059,4.1035,4.1107,4.0972,4.0924,4.0937,4.0801,4.0736,4.0736,4.0726,4.0798,4.0953,4.0978,4.0752,4.1191,4.1191,4.1367,4.209,4.2266,4.2695,0.0,4.4707,4.4961,4.582,4.5951,4.5953,4.6048,4.6014,4.5971,4.6018,4.6007,4.5964,4.5848,4.5814,4.5807,4.5807,4.5807,4.6445,4.8082,4.8256,4.8914,5.0492,5.0627,5.0627,5.0627,5.0627,5.0279,4.9591,4.9105,4.8941,4.9125,4.8667,4.8778,4.9478,4.8759,4.8301,4.8007,4.6411,4.5697,4.566,4.4796,4.4368,4.43,4.4244,4.4277,4.4374,4.4402,4.4533,4.4701,4.4701,4.4726,4.4788,4.503,4.514,4.5232,4.5485,4.5577,4.5594,4.5594,4.5594,4.5594,4.5594,4.5614,4.5646,4.5778,4.5852,4.5935,4.6075,4.613,4.5926,4.5163,4.4916,4.4606,4.3719,4.3545,4.3511,4.3437,4.2772,4.1979,4.1139,4.1059,4.1105,4.1109,4.1103,4.1106,4.1106,4.1106,4.1103,4.1097,4.1091,4.1091,4.1097,4.1087,4.1087,4.111,4.1035,4.1021,4.1083,4.0949,4.0876,4.0876,4.0815,4.1159,4.1863,4.1927,4.1877,4.1132,4.1172,4.1387,4.2207,4.2402,4.2851,4.4609,4.5,4.5234,4.6067,4.6212,4.6189,4.6098,4.6052,4.6013,4.5898,4.5873,4.5854,4.5814,4.5807,4.5807,4.5807,4.6252,4.7038,4.8275,4.8392,4.9107,5.0763,5.0898,5.0898,5.0898,5.0898,5.0743,5.0415,5.0096,4.9969,5.0067,4.9713,4.9707,5.0019,4.9523,4.9238,4.9094,4.7757,4.6603,4.5588,4.471,4.43,4.4259,4.4306,4.4351,4.4425,4.4751,4.4931,4.5019,4.4868,4.4896,4.5052,4.5169,4.5302,4.5448,4.5568,4.5594,4.5594,4.5594,4.5594,4.5594,4.5594,4.5671,4.5749,4.5834,4.5935,4.6049,4.6182,4.6264,4.6194,4.5844,4.575,4.5498,4.4633,4.4467,4.4277,4.3743,4.3342,4.2945,4.2516,4.1679,4.1092,4.1091,4.1107,4.1107,4.1107,4.1107,4.1107,4.1107,4.1107,4.1107,4.1107,4.1095,4.1105,4.1091,4.1067,4.1074,4.1098,4.1042,4.1022,4.102,4.1496,4.1894,4.2251,4.2785,4.329,4.1112,4.1152,4.1387,4.2207,4.2402,4.2793,4.4276,4.4608,4.4838,4.565,4.5804,4.5823,4.5969,4.5975,4.6001,4.613,4.6155,4.6155,4.6155,4.6155,4.6155,4.6155,4.6709,4.754,4.8643,4.8759,4.9359,5.0782,5.0898,5.0898,5.0898,5.0898,5.0898,5.0898,5.069,5.0635,5.0691,5.0436,5.0309,5.0298,5.0104,4.9943,4.9765,4.8671,4.7219,4.5552,4.4898,4.4476,4.4296,4.4365,4.4624,4.5016,4.5406,4.574,4.5981,4.5783,4.554,4.5312,4.5312,4.5438,4.5594,4.5594,4.5594,4.5594,4.5594,4.5594,4.5603,4.5635,4.5739,4.5815,4.5935,4.6029,4.6125,4.6269,4.6309,4.6302,4.6308,4.6291,4.6118,4.5477,4.5369,4.5135,4.4442,4.4118,4.3941,4.3888,4.2691,4.1789,4.1789,4.1575,4.1341,4.1127,4.1107,4.1107,4.1107,4.1107,4.1107,4.1107,4.1103,4.1103,4.1094,4.1093,4.1108,4.1094,4.1347,4.1464,4.1457,4.2335,4.2867,4.3105,4.3749,4.4492,4.1172,4.1191,4.1387,4.2207,4.2402,4.2616,4.3442,4.363,4.3874,4.4682,4.4798,4.4997,4.5846,4.5886,4.6078,4.6929,4.7057,4.7057,4.7057,4.7057,4.7057,4.7057,4.7076,4.7773,4.9494,4.9668,5.0016,5.084,5.0898,5.0898,5.0898,5.0898,5.0898,5.0898,5.069,5.0681,5.089,5.07,5.0577,5.0577,5.0577,5.0309,4.9752,4.8611,4.7146,4.5499,4.5404,4.5021,4.4503,4.443,4.5199,4.6443,4.6454,4.7106,4.8019,4.7991,4.6981,4.5586,4.5586,4.5586,4.5594,4.5594,4.5594,4.5594,4.5594,4.5594,4.5629,4.5757,4.58,4.5848,4.6037,4.6098,4.6138,4.6273,4.6302,4.63,4.6302,4.6308,4.6296,4.6267,4.6269,4.6229,4.6138,4.5428,4.4868,4.4861,4.4111,4.3523,4.3523,4.2783,4.1965,4.1185,4.1107,4.1107,4.1107,4.1107,4.1107,4.1107,4.1091,4.1092,4.1092,4.1094,4.1108,4.1108,4.1927,4.2357,4.2357,4.3235,4.4055,4.4815,4.4841,4.5304,4.1288,4.1562,4.2051,4.2324,4.2402,4.2616,4.3421,4.3591,4.3825,4.4588,4.472,4.4946,4.5718,4.5841,4.6097,4.696,4.7096,4.7289,4.7869,4.7966,4.7966,4.7966,4.8469,4.9068,4.9649,4.9707,5.0035,5.084,5.0898,5.0898,5.0898,5.0898,5.0898,5.0898,5.0822,5.0822,5.0898,5.0822,5.0797,5.0797,5.0616,5.0252,4.9702,4.8739,4.783,4.7007,4.663,4.6317,4.6125,4.6462,4.6862,4.7305,4.749,4.778,4.8105,4.8105,4.774,4.7182,4.6644,4.6471,4.6374,4.5787,4.5594,4.5594,4.5594,4.566,4.5734,4.5793,4.5896,4.6007,4.6087,4.6173,4.6243,4.6298,4.63,4.63,4.63,4.6303,4.6291,4.6305,4.6269,4.6222,4.6195,4.5952,4.5751,4.5751,4.454,4.3601,4.3601,4.3348,4.3056,4.2783,4.2237,4.1906,4.1906,4.1906,4.1906,4.1906,4.2432,4.275,4.2769,4.2769,4.2768,4.2763,4.3043,4.3201,4.3199,4.4027,4.4573,4.4857,4.5378,4.5764,4.1717,4.1972,4.2324,4.2031,4.1973,4.2089,4.2567,4.267,4.295,4.398,4.4209,4.4626,4.6014,4.6271,4.6651,4.7831,4.8024,4.8217,4.8798,4.8856,4.8856,4.8856,4.9359,4.978,5.0005,5.0093,5.0337,5.0859,5.0898,5.0898,5.0898,5.0898,5.0898,5.0898,5.0898,5.0898,5.0898,5.0898,5.089,5.0893,5.0635,5.0241,4.9744,4.9191,4.8549,4.7887,4.7673,4.7427,4.7205,4.756,4.793,4.8322,4.85,4.8759,4.9029,4.9029,4.9029,4.8875,4.7721,4.7336,4.724,4.6682,4.649,4.6508,4.6538,4.6615,4.664,4.6434,4.646,4.6495,4.6248,4.624,4.63,4.63,4.63,4.63,4.63,4.63,4.6291,4.6269,4.6228,4.6196,4.6197,4.62,4.6199,4.6199,4.523,4.4386,4.4108,4.4052,4.3952,4.362,4.3094,4.2763,4.2763,4.2763,4.2763,4.2763,4.3275,4.356,4.356,4.3565,4.3557,4.3552,4.384,4.398,4.3994,4.4812,4.5227,4.5244,4.5721,4.5969,4.248,4.25,4.2324,4.1504,4.1269,4.1207,4.1059,4.1007,4.1428,4.295,4.3266,4.404,4.6573,4.718,4.7811,4.9378,4.9707,4.9765,4.9765,4.9765,4.9765,4.9765,4.9757,4.9983,5.0567,5.078,5.089,5.0898,5.0898,5.0898,5.0898,5.0898,5.0898,5.0898,5.0898,5.0898,5.0898,5.0898,5.0901,5.0899,5.0645,5.0298,4.9923,4.9923,4.9281,4.8221,4.8548,4.8351,4.7829,4.784,4.8485,4.9471,4.9471,4.9971,5.0712,5.0712,5.0712,5.0462,4.8807,4.8211,4.8172,4.8125,4.8115,4.815,4.8257,4.8317,4.8192,4.7633,4.7466,4.7311,4.6603,4.6436,4.6436,4.6436,4.6436,4.6417,4.6378,4.636,4.6335,4.6228,4.6203,4.6209,4.6196,4.6199,4.6199,4.6199,4.6146,4.5823,4.5062,4.4968,4.4656,4.3815,4.3695,4.3656,4.3679,4.3656,4.3656,4.3656,4.3639,4.3629,4.3629,4.3622,4.3636,4.3636,4.4379,4.4768,4.4768,4.5583,4.5991,4.5991,4.5916,4.5886,4.3535,4.3848,4.4043,4.2773,4.2243,4.1872,4.1284,4.1027,4.1257,4.246,4.2692,4.3414,4.5703,4.8201,4.9679,4.8856,4.9784,5.0589,5.0589,5.0589,5.0589,5.0589,5.0463,5.0487,5.0786,5.0736,5.0745,5.089,5.0898,5.0898,5.0898,5.0898,5.0898,5.0898,5.0898,5.0898,5.0898,5.0893,5.0888,5.0899,5.072,5.0497,5.0206,5.0147,4.9841,4.9367,4.9676,4.9709,4.9587,4.9831,5.0105,5.0366,5.0366,5.05,5.0712,5.0712,5.0712,5.0654,5.0317,4.9768,4.9087,4.8344,4.8245,4.8387,4.8312,4.8437,4.8563,4.8413,4.8398,4.8394,4.8211,4.8154,4.8154,4.8154,4.8154,4.7998,4.7393,4.7231,4.699,4.6324,4.6197,4.6209,4.6203,4.6199,4.6199,4.6199,4.6189,4.6111,4.5884,4.5823,4.5737,4.5549,4.4904,4.4507,4.4559,4.4483,4.4437,4.4495,4.5035,4.5356,4.5356,4.5361,4.5356,4.5356,4.5506,4.558,4.558,4.577,4.5841,4.5861,4.5822,4.5834,4.4375,4.4549,4.4506,4.3217,4.236,4.1691,4.1229,4.1017,4.1096,4.1641,4.235,4.3459,4.5445,4.778,4.9594,5.0155,5.0604,5.0898,5.0898,5.0898,5.0874,5.078,5.0745,5.069,5.0606,5.0681,5.0745,5.0763,5.0858,5.0898,5.0898,5.0898,5.0898,5.0898,5.0898,5.089,5.0893,5.0872,5.0846,5.0821,5.0748,5.0537,5.0264,5.0369,5.0249,4.9981,5.0302,5.0421,5.0432,5.0624,5.0712,5.0712,5.0712,5.0712,5.0702,5.0767,5.0784,5.081,5.0901,5.0668,5.0189,4.9582,4.9471,4.9596,4.9579,4.9683,4.9733,4.9412,4.9345,4.9286,4.8896,4.8798,4.8798,4.8798,4.8798,4.8685,4.8227,4.81,4.7812,4.6939,4.6774,4.6647,4.6277,4.6199,4.6192,4.6154,4.6138,4.6106,4.6106,4.6117,4.6098,4.6102,4.5633,4.5336,4.5382,4.5313,4.5293,4.5322,4.5719,4.5964,4.5964,4.5935,4.5904,4.5904,4.5886,4.5867,4.5867,4.5827,4.5778,4.5708,4.5708,4.5677,4.5097,4.4988,4.4553,4.3556,4.2387,4.14,4.1043,4.0975,4.0992,4.11,4.2105,4.3542,4.545,4.6803,4.8616,5.166,5.154,5.1033,5.0917,5.0882,5.0789,5.0616,5.0717,5.0653,5.0286,5.0615,5.0797,5.0644,5.0797,5.0898,5.0898,5.0898,5.0898,5.089,5.089,5.0885,5.0891,5.081,5.0766,5.0701,5.0692,5.0557,5.0272,5.0565,5.0544,5.0283,5.0565,5.0712,5.0712,5.0712,5.0712,5.0712,5.0712,5.0702,5.073,5.0858,5.091,5.0928,5.1004,5.1094,5.1187,5.1042,5.1025,5.1069,5.1163,5.1211,5.1096,5.0445,5.026,5.0104,4.9345,4.915,4.915,4.915,4.9153,4.9103,4.9,4.8886,4.8572,4.781,4.7671,4.7404,4.653,4.6375,4.6302,4.613,4.6066,4.6007,4.6002,4.6042,4.6051,4.6007,4.6002,4.6002,4.6002,4.5986,4.598,4.5986,4.591,4.5899,4.5899,4.5808,4.5766,4.5766,4.5764,4.5757,4.5757,4.5757,4.5685,4.5571,4.5571,4.551,4.5986,4.5921,4.5787,4.553,4.423,4.2636,4.1165,4.0834,4.1222,4.2583,4.2001,4.2181,4.5249,4.7151,4.8582,4.9629,5.1022,5.1718,5.0995,5.0763,5.0644,5.0596,5.0436,5.0374,5.0527,5.0596,5.0709,5.085,5.0882,5.0898,5.0898,5.0898,5.0901,5.0888,5.0855,5.0819,5.081,5.0757,5.071,5.0701,5.0702,5.0673,5.0614,5.0673,5.0673,5.0614,5.0673,5.0712,5.0712,5.0712,5.0712,5.0712,5.0712,5.0776,5.0874,5.0887,5.0937,5.099,5.1128,5.1191,5.1187,5.1042,5.115,5.1302,5.1238,5.1284,5.1345,5.1217,5.118,5.1141,5.0984,5.0945,5.0945,5.0945,5.0944,5.0758,5.0037,4.9311,4.8767,4.86,4.856,4.83,4.7423,4.7267,4.7033,4.6286,4.6134,4.6071,4.6007,4.6007,4.6012,4.6002,4.6002,4.6002,4.6002,4.5905,4.5867,4.5904,4.5841,4.5827,4.5827,4.57,4.5637,4.5637,4.5528,4.5465,4.5465,4.5465,4.5447,4.5428,4.5428,4.541,4.6034,4.6021,4.5998,4.5959,4.4614,4.3079,4.2235,4.1403,4.153,4.4091,4.3964,4.3885,4.5493,4.7655,4.9308,4.9654,5.0586,5.1096,5.0596,5.0558,5.0507,5.023,5.0195,5.0195,5.0176,5.0286,5.0446,5.0672,5.0663,5.0727,5.0885,5.0869,5.0852,5.0846,5.0784,5.0757,5.0757,5.073,5.0702,5.0702,5.0702,5.0712,5.0712,5.0712,5.0712,5.0712,5.0712,5.0712,5.0712,5.0712,5.0712,5.0712,5.0712,5.0775,5.0902,5.0944,5.1016,5.1128,5.1255,5.1297,5.1294,5.1238,5.1294,5.139,5.1327,5.1357,5.1394,5.1394,5.1394,5.1394,5.1394,5.1394,5.1394,5.1394,5.1401,5.1287,5.0813,5.0391,4.9965,4.9512,4.941,4.8994,4.7689,4.7821,4.7648,4.6256,4.6401,4.648,4.595,4.5935,4.5922,4.5911,4.5905,4.5905,4.5905,4.5848,4.5801,4.5854,4.5752,4.5692,4.5692,4.5571,4.5493,4.5493,4.5419,4.54,4.54,4.54,4.5361,4.53,4.53,4.5477,4.592,4.5861,4.5867,4.5867,4.4462,4.3158,4.3346,4.231,4.2066,4.4718,4.5409,4.5515,4.5511,4.7522,4.935,4.9832,5.0136,5.0254,5.0145,5.0286,5.0241,4.9817,4.993,5.0,4.9776,4.9993,5.0252,5.0446,5.0476,5.0596,5.0855,5.0829,5.0784,5.0784,5.073,5.0702,5.0702,5.0712,5.0712,5.0712,5.0712,5.0712,5.0712,5.0712,5.0712,5.0712,5.0712,5.0712,5.0712,5.0712,5.0712,5.0693,5.074,5.0816,5.0923,5.1022,5.1132,5.1255,5.1362,5.1394,5.1394,5.1394,5.1394,5.1394,5.1394,5.1394,5.1394,5.1394,5.1394,5.1396,5.1402,5.1403,5.1407,5.1377,5.1386,5.1367,5.1316,5.1294,5.1106,5.0404,5.0279,4.9757,4.8204,4.8497,4.8379,4.6736,4.6887,4.6933,4.6183,4.5958,4.5867,4.5814,4.5821,4.5821,4.5807,4.5766,4.5771,4.5771,4.5629,4.5554,4.5554,4.5438,4.5351,4.5351,4.5302,4.5282,4.5282,4.5282,4.5335,4.5403,4.5403,4.5779,4.6016,4.5761,4.5731,4.5731,4.4262,4.3049,4.3827,4.3474,4.3084,4.345,4.4116,4.4619,4.4619,4.5817,4.7298,4.8786,4.9529,4.9936,4.9923,4.9792,4.9684,4.9627,4.9641,4.9655,4.9612,5.0087,5.0393,5.0404,5.0567,5.071,5.0801,5.0757,5.071,5.071,5.0702,5.0693,5.0693,5.0693,5.0712,5.0712,5.0712,5.0712,5.0712,5.0712,5.0712,5.0712,5.0712,5.0712,5.0712,5.0712,5.0712,5.0712,5.0825,5.0923,5.1002,5.1137,5.1278,5.1388,5.1392,5.1394,5.1394,5.1394,5.1394,5.1394,5.1394,5.1394,5.1394,5.1394,5.1394,5.14,5.1401,5.1404,5.1386,5.1327,5.131,5.1313,5.1303,5.1304,5.1281,5.1203,5.1131,5.0787,4.9829,4.9687,4.9396,4.8485,4.7687,4.7165,4.7081,4.6332,4.5814,4.5807,4.5841,4.5874,4.5814,4.5685,4.5621,4.5621,4.5493,4.5429,4.5429,4.529,4.5224,4.5224,4.5038,4.4943,4.4943,4.4943,4.5361,4.6107,4.6107,4.6531,4.6414,4.595,4.5525,4.5995,4.4659,4.3575,4.4924,4.3897,4.2951,4.3995,4.4209,4.4197,4.4195,4.5472,4.7032,4.8633,4.9306,4.9575,4.9487,4.9535,4.9544,4.938,4.9349,4.9349,4.9349,4.9514,4.9735,5.0019,5.0453,5.0712,5.075,5.0712,5.0693,5.0693,5.0702,5.0712,5.0712,5.0712,5.0712,5.0712,5.0712,5.0712,5.0712,5.0712,5.0712,5.0712,5.0712,5.0712,5.0712,5.0712,5.074,5.0836,5.089,5.0979,5.1132,5.1187,5.1288,5.1394,5.1394,5.1394,5.1394,5.1394,5.1394,5.1394,5.1394,5.1394,5.1394,5.1394,5.1394,5.1396,5.1408,5.1399,5.1387,5.1316,5.1301,5.1308,5.1292,5.13,5.13,5.13,5.1243,5.0928,5.0042,5.0252,5.0054,4.8696,4.8611,4.8512,4.799,4.7601,4.7366,4.7366,4.6447,4.5834,4.5807,4.5677,4.5605,4.5605,4.54,4.5279,4.5279,4.5106,4.5014,4.5014,4.5462,4.5672,4.5672,4.6165,4.6582,4.6923,4.6923,4.7359,4.6099,4.571,4.535,4.6081,4.4811,4.3882,4.5658,4.4108,4.2742,4.4243,4.467,4.473,4.4749,4.6092,4.7574,4.8723,4.911,4.9214,4.911,4.927,4.9315,4.9129,4.9113,4.9113,4.9113,4.9228,4.9488,4.9897,5.0399,5.0712,5.0712,5.0712,5.0712,5.0712,5.0712,5.0712,5.0712,5.0712,5.0712,5.0712,5.0712,5.0712,5.0712,5.0712,5.0712,5.0712,5.0712,5.0712,5.0712,5.0712,5.0785,5.0902,5.0928,5.1047,5.1203,5.1248,5.1325,5.1394,5.1394,5.1394,5.1394,5.1394,5.1394,5.1394,5.1394,5.1394,5.1394,5.1394,5.1407,5.1396,5.1396,5.1386,5.1355,5.1316,5.13,5.1291,5.1308,5.1288,5.1261,5.1261,5.1211,5.0953,5.033,5.0649,5.054,4.9327,4.9455,4.9475,4.8856,4.8566,4.8377,4.8319,4.7218,4.6483,4.6483,4.591,4.5731,4.6185,4.5526,4.5323,4.5837,4.548,4.5407,4.5634,4.6241,4.6544,4.6563,4.7112,4.7529,4.7776,4.7776,4.8243,4.4788,4.4861,4.522,4.5773,4.4546,4.3735,4.574,4.4244,4.2708,4.3782,4.5313,4.6459,4.6459,4.78,4.888,4.8898,4.8905,4.889,4.8909,4.8909,4.8909,4.8909,4.8909,4.8909,4.8909,4.9446,4.9891,5.0183,5.0504,5.0712,5.0712,5.0712,5.0712,5.0712,5.0712,5.0712,5.0712,5.0712,5.0712,5.0712,5.0712,5.0712,5.0712,5.0712,5.0712,5.0712,5.0712,5.0712,5.0712,5.0712,5.0785,5.091,5.0972,5.1074,5.1211,5.1357,5.1394,5.1394,5.1394,5.1394,5.1394,5.1394,5.1394,5.1394,5.1394,5.1394,5.1394,5.1394,5.1404,5.1398,5.1398,5.136,5.13,5.13,5.13,5.13,5.13,5.1243,5.1211,5.1211,5.1093,5.1004,5.0984,5.094,5.0879,5.0879,5.0202,4.9707,4.9687,4.8933,4.8327,4.8129,4.8092,4.8073,4.8073,4.6435,4.604,4.7587,4.5934,4.5653,4.7315,4.6601,4.6563,4.7359,4.7378,4.7378,4.7378,4.7397,4.7845,4.8698,4.8698,4.9142,4.5324,4.496,4.4659,4.5373,4.4603,4.3989,4.518,4.4159,4.3247,4.4332,4.5578,4.6846,4.7939,4.8558,4.89,4.8905,4.8907,4.8909,4.8909,4.8909,4.8909,4.8909,4.8909,4.8909,4.8909,4.9446,4.9844,4.9917,5.0399,5.0712,5.0712,5.0712,5.0712,5.0712,5.0712,5.0712,5.0712,5.0712,5.0712,5.0712,5.0712,5.0712,5.0712,5.0712,5.0712,5.0712,5.0712,5.0712,5.0702,5.0801,5.089,5.0979,5.1098,5.1214,5.1335,5.1388,5.1394,5.1394,5.1394,5.1394,5.1394,5.1394,5.1394,5.1394,5.1394,5.1394,5.1398,5.1396,5.1404,5.1386,5.1346,5.1318,5.1291,5.1289,5.13,5.1292,5.1239,5.1201,5.1196,5.1139,5.1063,5.0997,5.0997,5.0932,5.0898,5.0898,5.0685,5.0511,5.0511,5.0279,5.007,5.0011,4.9406,4.871,4.802,4.735,4.7174,4.7671,4.7016,4.6847,4.7378,4.715,4.7131,4.7397,4.7984,4.83,4.83,4.885,4.9261,4.9599,4.9599,4.9758,4.4718,4.4419,4.4063,4.477,4.4267,4.3819,4.4708,4.405,4.3448,4.4236,4.5241,4.6415,4.772,4.8476,4.8914,4.8891,4.8909,4.8909,4.8909,4.8909,4.8909,4.8909,4.8909,4.8909,4.8909,4.9343,4.9679,4.9784,5.0237,5.0565,5.0683,5.0712,5.0712,5.0712,5.0712,5.0712,5.0712,5.0712,5.0712,5.0712,5.0712,5.0712,5.0712,5.0712,5.0712,5.0693,5.0749,5.0785,0.0,5.0898,5.0985,5.1079,5.1159,5.1288,5.1394,5.1394,5.1394,5.1394,5.1394,5.1394,5.1394,5.1394,5.1394,5.1394,5.1394,5.1394,5.14,5.1402,5.1406,5.1385,5.1314,5.1308,5.1307,5.1308,5.13,5.1292,5.1243,5.1225,5.1171,5.1117,5.105,5.099,5.0961,5.0937,5.0898,5.0898,5.0898,5.0898,5.0898,5.0898,5.0847,5.0726,5.0144,4.9459,4.8713,4.8075,4.7941,4.8497,4.7834,4.7681,4.8306,4.8054,4.8022,4.8338,4.8888,4.9167,4.9193,4.9719,5.0005,5.0044,5.0044,5.0082,0.0,4.3352,4.3426,4.3943,4.3541,4.3287,4.4214,4.3848,0.0,4.3686,4.4554,4.5475,4.6299,4.7791,4.89,4.8895,4.8891,4.8909,4.8909,4.8909,4.8909,4.8909,4.8909,4.8909,4.8909,4.9209,4.9514,4.979,5.0062,5.0347,5.0683,5.0712,5.0712,5.0712,5.0712,5.0712,5.0712,5.0712,5.0712,5.0712,5.0712,5.0712,5.0712,5.0712,5.0712,5.0702,5.0841,5.0894,5.091,5.0985,5.1079,5.1203,5.1207,5.1291,5.1394,5.1394,5.1394,5.1394,5.1394,5.1394,5.1394,5.1394,5.1394,5.1394,5.1394,5.1396,5.1403,5.1403,5.1405,5.1373,5.1325,5.1301,5.13,5.13,5.13,5.13,5.1296,5.1243,5.1171,5.1111,5.1043,5.0976,5.0914,5.0898,5.0898,5.0898,5.0898,5.0898,5.0898,5.0898,5.0789,5.0467,5.0415,5.0272,4.9973,4.8668,4.8452,4.9811,4.8439,4.8268,4.9836,4.9191,4.9134,4.9893,4.9893,4.9939,5.0005,5.007,5.0108,5.0108,5.0108,5.0145,4.244,0.0,4.2519,4.2635,4.2588,4.2557,0.0,4.2964,4.3265,4.4011,4.4874,4.5805,4.6769,4.802,4.8898,4.89,4.8899,4.8909,4.8909,4.8909,4.8909,4.8909,4.8909,4.8909,4.8909,4.9209,4.9514,4.979,5.0062,5.0347,5.0683,5.0712,5.0712,5.0712,5.0712,5.0712,5.0712,5.0712,5.0712,5.0712,5.0712,5.0712,5.0712,5.0712,5.0712,5.0702,5.0841,5.0894,5.0917,5.1078,5.1163,5.1207,5.1302,5.1364,5.1394,5.1394,5.1394,5.1394,5.1394,5.1394,5.1394,5.1394,5.1394,5.1394,5.1394,5.1409,5.1403,5.1405,5.1352,5.1323,5.1297,5.1292,5.13,5.13,5.13,5.1292,5.1234,5.1215,5.1161,5.105,5.101,5.0976,5.0914,5.0898,5.0898,5.0898,5.0898,5.0898,5.0898,5.0898,5.0874,5.0797,5.0548,5.0372,5.0283,4.9733,4.9535,4.9874,4.9533,4.9495,4.9893,4.9722,4.9722,4.9912,4.9952,4.9973,5.0005,5.007,5.0133,5.0182,5.0182,5.02,4.1578,4.2017,4.2412,4.2412,4.2459,4.242,4.2207,4.2278,4.2582,4.3286,4.3842,4.4731,4.6391,4.7461,4.8151,4.8453,4.8716,4.8909,4.8909,4.8909,4.8909,4.8909,4.8909,4.8909,4.8909,4.9061,4.9346,4.9776,4.993,5.0214,5.0673,5.0712,5.0712,5.0712,5.0712,5.0712,5.0712,5.0712,5.0712,5.0712,5.0712,5.0712,5.0712,5.0712,5.0712,5.0702,5.0875,5.0958,5.0959,5.1191,5.1291,5.1297,5.1364,5.1394,5.1394,5.1394,5.1394,5.1394,5.1394,5.1394,5.1394,5.1394,5.1394,5.1394,5.1394,5.1394,5.1406,5.1402,5.1372,5.1332,5.1303,5.13,5.13,5.13,5.1284,5.1248,5.1243,5.1225,5.1166,5.1069,5.105,5.1017,5.0921,5.0898,5.0898,5.0898,5.0898,5.0898,5.0898,5.0898,5.0874,5.0816,5.0654,5.0476,5.0313,5.0132,4.9999,4.9912,4.9912,4.9912,4.9912,4.9912,4.9912,4.9912,5.0005,5.0044,5.0044,5.0145,5.0219,5.0255,5.0255,5.0267,4.0865,4.1752,4.2603,4.2445,4.2503,4.2463,4.1957,4.1795,4.188,4.2323,4.2701,4.3599,4.5726,4.6657,4.7379,4.8247,4.879,4.9039,4.8927,4.8909,4.8909,4.8909,4.8909,4.8909,4.8909,4.8909,4.9123,4.9693,4.9776,5.0038,5.0604,5.0673,5.0712,5.0712,5.0712,5.0712,5.0712,5.0712,5.0712,5.0712,5.0712,5.0712,5.0712,5.0712,5.0712,5.074,5.0912,5.1014,5.1047,5.1294,5.1394,5.1394,5.1394,5.1394,5.1394,5.1394,5.1394,5.1394,5.1394,5.1394,5.1394,5.1394,5.1394,5.1394,5.1394,5.1391,5.1404,5.1404,5.1398,5.1366,5.131,5.13,5.13,5.13,5.1252,5.1234,5.1292,5.1252,5.1206,5.1128,5.1117,5.1075,5.0944,5.0921,5.0914,5.0898,5.0898,5.0898,5.0898,5.0898,5.0858,5.0747,5.071,5.0576,5.0306,5.0224,5.0126,4.9965,4.9925,4.9912,4.9912,4.9912,4.9893,4.9925,5.0044,5.0108,5.012,5.0243,5.0302,5.0302,5.0302,5.0302,4.084,4.1759,4.2168,4.1378,4.1646,4.194,4.1222,4.1624,4.2182,4.2375,4.3533,4.4764,4.5552,4.646,4.7772,4.9849,5.0047,4.9689,4.9002,4.8909,4.8909,4.8909,4.8909,4.8909,4.8909,4.8909,4.9061,4.9442,4.9684,4.9949,5.026,5.0544,5.0712,5.0712,5.0712,5.0712,5.0712,5.0712,5.0712,5.0712,5.0712,5.0712,5.0712,5.0712,5.0767,5.0863,5.0959,5.1063,5.1191,5.1333,5.1394,5.1394,5.1394,5.1394,5.1394,5.1394,5.1394,5.1394,5.1394,5.1394,5.1394,5.1394,5.1394,5.1394,5.1394,5.1398,5.1407,5.1404,5.136,5.1318,5.13,5.13,5.13,5.13,5.1292,5.1292,5.1296,5.1292,5.1256,5.1206,5.1176,5.1139,5.101,5.0983,5.0981,5.0914,5.0898,5.0898,5.0898,5.0898,5.089,5.0874,5.0773,5.0682,5.0635,5.0355,5.0175,5.0151,4.9986,4.9912,4.9912,4.9912,4.9939,4.9992,5.0057,5.0133,5.0175,5.0267,5.0302,5.0302,5.0302,5.0302,4.0289,4.1111,4.1673,4.1525,4.2378,4.3155,4.281,4.2731,4.2777,4.2954,4.3624,4.4465,4.5512,4.6625,4.8038,5.0064,5.0249,4.9856,4.902,4.8909,4.8909,4.8909,4.8909,4.8909,4.8909,4.8909,4.9044,4.9384,4.9655,4.9923,5.0183,5.0514,5.0712,5.0712,5.0712,5.0712,5.0712,5.0712,5.0712,5.0712,5.0712,5.0712,5.0712,5.0712,5.0757,5.0902,5.0966,5.1074,5.1207,5.1335,5.1394,5.1394,5.1394,5.1394,5.1394,5.1394,5.1394,5.1394,5.1394,5.1394,5.1394,5.1394,5.1394,5.1394,5.1394,5.1394,5.14,5.1402,5.1384,5.1359,5.13,5.1307,5.13,5.13,5.1261,5.1252,5.1296,5.1261,5.1239,5.1215,5.1211,5.1166,5.1075,5.1056,5.1043,5.101,5.0976,5.0947,5.0947,5.0947,5.0952,5.0906,5.091,5.0867,5.0771,5.0499,5.0272,5.005,4.9946,4.9912,4.9912,4.992,4.9978,5.0005,5.0108,5.0163,5.02,5.0267,5.0302,5.0302,5.0302,5.0302,3.9594,4.0421,4.1161,4.1884,4.2917,4.381,4.4,4.3491,4.3064,4.3392,4.3663,4.4254,4.5646,4.7313,4.8815,4.9748,5.0209,5.0116,4.9057,4.8909,4.8909,4.8909,4.8909,4.8909,4.8909,4.8959,4.9127,4.9384,4.9712,4.9981,5.0195,5.0514,5.0712,5.0712,5.0712,5.0712,5.0712,5.0712,5.0712,5.0712,5.0712,5.0712,5.0693,5.0721,5.0808,5.0935,5.1016,5.1128,5.1252,5.136,5.1394,5.1394,5.1394,5.1394,5.1394,5.1394,5.1394,5.1394,5.1394,5.1394,5.1394,5.1394,5.1394,5.1394,5.1394,5.14,5.1408,5.1402,5.1385,5.1369,5.1308,5.1304,5.13,5.13,5.1252,5.1239,5.1292,5.1252,5.1225,5.1191,5.122,5.1181,5.1093,5.1093,5.1099,5.1081,5.1037,5.1004,5.1024,5.1024,5.1004,5.0947,5.1043,5.1024,5.0851,5.0641,5.0368,5.0044,4.9973,4.9952,4.992,4.9992,5.0031,5.0057,5.0158,5.02,5.0212,5.0278,5.0302,5.0302,5.0302,5.0302,3.8985,3.9895,4.0677,4.1972,4.221,4.2361,4.3103,4.2763,4.2473,4.3172,4.4115,4.507,4.6004,4.8891,5.0675,4.9226,5.0302,5.0748,4.9132,4.8909,4.8909,4.8909,4.8909,4.8909,4.8909,4.9193,4.9384,4.9399,4.9884,5.0183,5.0195,5.0514,5.0712,5.0712,5.0712,5.0712,5.0712,5.0712,5.0712,5.0712,5.0712,5.0712,5.0693,5.0816,5.0923,5.0996,5.1132,5.1258,5.139,5.1392,5.1394,5.1394,5.1394,5.1394,5.1394,5.1394,5.1394,5.1394,5.1394,5.1394,5.1394,5.1394,5.1394,5.1394,5.1394,5.1393,5.1404,5.1405,5.1361,5.1303,5.1301,5.1304,5.13,5.13,5.1296,5.1296,5.13,5.1296,5.1265,5.122,5.1248,5.1234,5.1043,5.1063,5.1081,5.1017,5.1004,5.1024,5.1087,5.1093,5.1093,5.1087,5.1099,5.1043,5.0889,5.0703,5.0519,5.0383,5.0193,5.0057,5.0005,5.0057,5.0133,5.0175,5.0207,5.0243,5.029,5.0302,5.0302,5.0302,5.0302,5.0302,3.8344,3.9488,4.0523,4.1386,4.2193,4.3069,4.4285,4.476,4.5183,4.6092,4.5855,4.5796,4.687,4.9006,5.0395,4.98,5.0209,5.0209,4.9057,4.8909,4.8909,4.8909,4.8909,4.8976,4.9193,4.9337,4.9472,4.9641,4.9981,5.0195,5.0195,5.0514,5.0712,5.0712,5.0712,5.0712,5.0712,5.0712,5.0712,5.0712,5.0712,5.074,5.0836,5.0882,5.0985,5.1132,5.1187,5.1284,5.1394,5.1394,5.1394,5.1394,5.1394,5.1394,5.1394,5.1394,5.1394,5.1394,5.1394,5.1394,5.1394,5.1394,5.1407,5.1397,5.1397,5.1405,5.1405,5.1405,5.1351,5.1301,5.1301,5.0894,5.0482,5.0482,5.0482,5.0482,5.0482,5.0886,5.1234,5.1191,5.1201,5.115,5.1081,5.1087,5.1093,5.1069,5.103,5.1024,5.1093,5.1099,5.1099,5.1099,5.1139,5.1103,5.0966,5.0925,5.0801,5.0548,5.026,5.0095,5.007,5.0133,5.0163,5.02,5.0243,5.0278,5.0302,5.0302,5.0302,5.0302,5.0302,5.0302,3.7709,3.8809,3.9913,4.0929,4.2066,4.3297,4.4768,4.5709,4.6495,4.7489,4.7122,4.685,4.746,4.8951,4.9949,4.9485,4.98,4.9819,4.902,4.8909,4.8943,4.9044,4.9061,4.9174,4.9499,4.9598,4.974,4.9904,5.0183,5.0358,5.0358,5.0584,5.0712,5.0712,5.0712,5.0712,5.0712,5.0712,5.0712,5.0693,5.074,5.0819,5.0894,5.0928,5.1035,5.1203,5.1248,5.1322,5.1394,5.1394,5.1394,5.1394,5.1394,5.1394,5.1394,5.1394,5.1394,5.1394,5.1394,5.1394,5.1394,5.1394,5.1408,5.14,5.1404,5.1406,5.1397,5.1372,5.1325,5.1206,5.0953,5.0458,4.9995,4.9995,4.9772,4.9627,4.9915,5.0393,5.0869,5.1081,5.1117,5.1087,5.1043,5.1056,5.1069,5.1069,5.103,5.103,5.1122,5.1134,5.1139,5.1155,5.1191,5.1074,5.0725,5.0936,5.0888,5.0384,5.0327,5.0283,5.0236,5.0287,5.0306,5.0224,5.0278,5.0302,5.0302,5.0302,5.0302,5.0302,5.0314,5.0325,3.7062,3.7804,3.8765,4.0716,4.1764,4.2694,4.4164,4.4967,4.5674,4.6603,4.77,4.8305,4.7615,4.8914,4.9577,4.798,4.9057,4.9819,4.902,4.8909,4.9027,4.9368,4.9415,4.9499,4.9776,5.0031,5.0195,5.0206,5.0504,5.0712,5.0712,5.0712,5.0712,5.0712,5.0712,5.0712,5.0712,5.0712,5.0693,5.0693,5.0833,5.0894,5.0902,5.0966,5.1069,5.1207,5.1335,5.1394,5.1394,5.1394,5.1394,5.1394,5.1394,5.1394,5.1394,5.1394,5.1394,5.1394,5.1394,5.1394,5.1394,5.1394,5.1394,5.14,5.1402,5.1406,5.1395,5.133,5.1241,5.1016,5.0204,4.9989,4.9989,4.997,4.9274,4.8824,4.9693,4.9887,5.0116,5.0862,5.1056,5.1056,5.0929,5.0966,5.0997,5.0997,5.0997,5.105,5.1176,5.1211,5.123,5.1296,5.13,5.095,5.0092,5.0685,5.0736,4.9856,5.0433,5.072,5.0517,5.0567,5.0506,5.0314,5.0302,5.0302,5.0302,5.0302,5.0302,5.0302,5.0379,5.0401,3.7293,3.8566,3.9847,4.0434,4.1799,4.3114,4.3548,4.5079,4.6448,4.6671,4.7732,4.8354,4.7396,4.8329,4.9113,4.863,4.8946,4.9169,4.8927,4.911,4.9289,4.9399,4.9573,4.979,5.0062,5.0159,5.0294,5.0525,5.0634,5.0712,5.0712,5.0712,5.0712,5.0712,5.0712,5.0712,5.0712,5.0712,5.074,5.0833,5.089,5.0908,5.0972,5.1093,5.1211,5.1335,5.1388,5.1394,5.1394,5.1394,5.1394,5.1394,5.1394,5.1394,5.1394,5.1394,5.1394,5.1394,5.1394,5.1394,5.1394,5.1394,5.1408,5.1402,5.1406,5.1402,5.1391,5.1313,5.1257,5.1004,5.0217,4.9934,4.9567,4.8388,4.8363,4.8508,4.8158,4.8998,4.9886,5.0119,5.0588,5.0959,5.0906,5.0921,5.0937,5.0937,5.0961,5.105,5.1176,5.1239,5.1284,5.1296,5.13,5.1203,5.095,5.112,5.0869,4.9993,5.0705,5.1023,5.0728,5.0728,5.067,5.0516,5.0516,5.0453,5.0379,5.0379,5.0382,5.0427,5.0468,5.0478,3.823,3.9267,4.0271,4.1634,4.2696,4.3638,4.4453,4.5723,4.6923,4.7512,4.8357,4.8682,4.7736,4.8291,4.8797,4.8481,4.8805,4.9094,4.9094,4.9362,4.9583,4.9712,4.987,5.0075,5.0369,5.041,5.0483,5.0683,5.0712,5.0712,5.0712,5.0712,5.0712,5.0712,5.0712,5.0731,5.0785,5.0766,5.0822,5.0944,5.0985,5.1047,5.1079,5.1159,5.1262,5.1394,5.1394,5.1394,5.1394,5.1394,5.1394,5.1394,5.1394,5.1394,5.1394,5.1394,5.1394,5.1394,5.1394,5.1394,5.1394,5.1394,5.1407,5.14,5.1406,5.1403,5.1398,5.1347,5.1284,5.1034,5.0187,4.9884,4.9459,4.8099,4.7887,4.8043,4.8218,4.878,4.9451,5.0102,5.0608,5.0898,5.0898,5.0898,5.0898,5.0898,5.0976,5.1081,5.1196,5.1252,5.13,5.13,5.13,5.1164,5.0813,5.1106,5.093,5.0053,5.0482,5.0845,5.0996,5.0946,5.084,5.0677,5.0677,5.0624,5.0526,5.0526,5.0514,5.05,5.0521,5.0532,3.941,3.9865,4.0351,4.3606,4.4087,4.4234,4.6189,4.6646,4.7096,4.8633,4.9126,4.9094,4.8379,4.8623,4.8667,4.7924,4.8707,4.9399,4.9399,4.9655,4.9936,5.0171,5.0218,5.0358,5.0673,5.0712,5.0712,5.0712,5.0712,5.0712,5.0712,5.0712,5.0721,5.0721,5.0721,5.0775,5.091,5.0917,5.0951,5.102,5.1132,5.1199,5.1214,5.1214,5.1288,5.1394,5.1394,5.1396,5.1396,5.1396,5.1396,5.1396,5.1394,5.1394,5.1394,5.1394,5.1394,5.1394,5.1394,5.1394,5.1394,5.1396,5.1396,5.1403,5.1405,5.1348,5.1289,5.1288,5.1184,5.0859,4.9908,4.9741,4.9579,4.8709,4.7836,4.7657,4.9243,4.903,4.8972,5.0492,5.084,5.0898,5.0898,5.0898,5.0906,5.0921,5.1024,5.1128,5.1211,5.1256,5.13,5.13,5.13,5.0989,5.019,5.0833,5.093,5.0053,5.0077,5.0458,5.1154,5.1074,5.0959,5.0819,5.0811,5.077,5.0678,5.0678,5.0625,5.0521,5.0582,5.0603,3.8762,3.9952,4.136,4.3297,4.4216,4.4862,4.5782,4.6245,4.6837,4.8184,4.8498,4.8566,4.8715,4.8838,4.8834,4.8667,4.908,4.9399,4.9399,4.9817,5.0147,5.0195,5.0432,5.0614,5.0683,5.0712,5.0712,5.0712,5.0712,5.0712,5.0712,5.0712,5.074,5.085,5.0858,5.0898,5.0985,5.0985,5.105,5.1155,5.1074,5.115,5.136,5.136,5.1367,5.1394,5.1403,5.1407,5.1407,5.1407,5.1407,5.1405,5.1398,5.1394,5.1394,5.1394,5.1394,5.1394,5.1394,5.1394,5.1396,5.1403,5.1407,5.1393,5.1406,5.0918,5.0389,5.0373,4.9835,4.9068,4.8167,4.885,4.9573,4.8713,4.8309,4.8217,4.8604,4.9068,4.9533,4.99,5.0473,5.0898,5.0898,5.0898,5.0944,5.1043,5.1081,5.1139,5.1256,5.1292,5.13,5.13,5.13,5.1222,5.1047,5.1199,5.0929,5.0053,5.0686,5.0872,5.0374,5.0334,5.0486,5.0874,5.0874,5.0786,5.0615,5.0615,5.0634,5.0653,5.0663,5.0673,3.9508,4.0729,4.1883,4.4101,4.5209,4.5929,4.6506,4.6995,4.7563,4.8421,4.8587,4.866,4.8874,4.8909,4.8942,4.911,4.9393,4.9641,4.9762,5.0166,5.0432,5.0432,5.0585,5.0712,5.0712,5.0712,5.0712,5.0712,5.0712,5.0731,5.0793,5.0793,5.0839,5.0939,5.0939,5.1011,5.1089,5.1067,5.1123,5.1294,5.1195,5.1232,5.1407,5.1398,5.1396,5.1402,5.1407,5.1409,5.1409,5.1409,5.1407,5.1402,5.1396,5.1394,5.1394,5.1394,5.1398,5.1402,5.1402,5.1405,5.1408,5.1393,5.1394,5.1397,5.1406,5.1073,5.0721,5.0718,5.0364,4.9872,4.9343,4.9527,4.9814,4.9673,4.9333,4.9126,4.9513,4.9649,4.9803,5.021,5.0608,5.0898,5.0898,5.0898,5.0959,5.1081,5.1099,5.1145,5.1288,5.13,5.13,5.13,5.13,5.1304,5.1296,5.1307,5.1115,5.0706,5.0742,5.0751,5.0712,5.0319,5.0408,5.1031,5.0985,5.0882,5.0745,5.0745,5.0729,5.0702,5.0702,5.0693,3.9936,4.1362,4.2427,4.5131,4.6242,4.6868,4.7446,4.7975,4.842,4.8803,4.8909,4.8909,4.8909,4.896,4.9077,4.9349,4.967,4.9962,5.0171,5.0493,5.0712,5.0712,5.0712,5.0712,5.0712,5.0712,5.0712,5.0712,5.0721,5.0775,5.0887,5.0894,5.0923,5.1002,5.0984,5.1056,5.1183,5.1147,5.1215,5.1388,5.1338,5.133,5.1372,5.1384,5.1403,5.1391,5.1393,5.1393,5.1391,5.1391,5.1407,5.1396,5.1396,5.1396,5.1394,5.1398,5.1403,5.1409,5.1391,5.1395,5.1398,5.1399,5.1399,5.1401,5.1404,5.1307,5.1191,5.1191,5.1074,5.0935,5.084,5.0358,5.0061,5.061,5.0343,5.0141,5.0759,5.0376,5.0113,5.0763,5.0898,5.0898,5.0898,5.0898,5.0959,5.1081,5.1099,5.1145,5.1288,5.13,5.13,5.13,5.1304,5.1292,5.1291,5.1317,5.1346,5.1394,5.0717,5.0647,5.1379,5.0686,5.0579,5.1198,5.1081,5.0979,5.0896,5.0894,5.0827,5.071,5.071,5.0711,3.7541,4.058,4.371,4.5373,4.6242,4.6868,4.7446,4.7975,4.842,4.8803,4.8909,4.8909,4.8909,4.9144,4.9352,4.938,4.9817,5.0159,5.0195,5.0493,5.0712,5.0712,5.0712,5.0712,5.0712,5.0712,5.0712,5.0712,5.081,5.089,5.0894,5.0894,5.0923,5.1002,5.0932,5.0972,5.1108,5.1167,5.1236,5.1302,5.1361,5.1322,5.1233,5.1346,5.1396,5.1397,5.1402,5.1402,5.1397,5.1397,5.1394,5.1408,5.1408,5.1402,5.1396,5.1391,5.1394,5.139,5.1396,5.1397,5.1399,5.1403,5.1404,5.1405,5.1406,5.0918,5.0351,5.0351,4.9824,4.9238,4.9217,4.9594,5.0015,5.0096,5.0575,5.0982,5.0901,5.0821,5.0763,5.0879,5.0898,5.0898,5.0898,5.0898,5.0959,5.1081,5.1099,5.1145,5.1288,5.13,5.13,5.13,5.1296,5.131,5.1294,5.1358,5.1389,5.1394,5.1282,5.1288,5.1399,5.1184,5.1094,5.1199,5.1128,5.1035,5.0893,5.0835,5.0791,5.0793,5.0793,5.0784,3.7647,4.0707,4.3443,4.4936,4.596,4.6758,4.7464,4.7975,4.842,4.8803,4.8909,4.8959,4.9144,4.9305,4.9503,4.979,5.005,5.0272,5.0442,5.0615,5.0702,5.0693,5.0721,5.073,5.0693,5.0693,5.0702,5.0693,5.0749,5.0827,5.0906,5.0433,5.0421,5.0983,5.0563,5.0595,5.1139,5.1195,5.1232,5.1301,5.1374,5.136,5.1315,5.1363,5.1404,5.1402,5.1404,5.1404,5.1402,5.1399,5.1397,5.1395,5.1391,5.1409,5.139,5.1396,5.1399,5.14,5.1402,5.1404,5.1405,5.1406,5.1406,5.1406,5.1406,5.1152,5.0879,5.0879,5.0605,5.0293,5.0247,5.0489,5.0722,5.0673,5.0933,5.1178,5.1086,5.1049,5.101,5.101,5.1036,5.1064,5.1064,5.1064,5.1106,5.1191,5.122,5.1234,5.1296,5.13,5.13,5.13,5.13,5.1317,5.1343,5.1386,5.1399,5.1399,5.1408,5.1392,5.1408,5.1333,5.1311,5.1306,5.1139,5.1023,5.1014,5.0984,5.0946,5.092,5.092,5.0879,3.7741,4.0226,4.2249,4.4109,4.5415,4.6513,4.7342,4.8101,4.8714,4.9118,4.9392,4.966,5.0062,4.9781,4.9655,5.0123,5.0264,5.0423,5.0664,5.0711,5.073,5.0731,5.0748,5.0757,5.0731,5.0711,5.0711,5.0712,5.0758,5.0827,5.0917,5.0308,5.0286,5.0978,5.0439,5.0445,5.1113,5.1167,5.1238,5.133,5.1333,5.1361,5.1406,5.1386,5.1385,5.1405,5.1405,5.1405,5.1405,5.1402,5.1399,5.1398,5.1396,5.1396,5.1398,5.1401,5.1403,5.1405,5.1405,5.1406,5.1406,5.1406,5.1406,5.1406,5.1406,5.1406,5.1406,5.1406,5.1406,5.1386,5.1335,5.133,5.1304,5.1269,5.1258,5.1249,5.1211,5.1167,5.1131,5.1131,5.1176,5.1203,5.1203,5.1203,5.1226,5.128,5.1303,5.131,5.1323,5.1323,5.1327,5.1297,5.1291,5.1321,5.1362,5.1392,5.1398,5.1394,5.1394,5.1394,5.1394,5.1396,5.1405,5.1396,5.1193,5.1109,5.1148,5.1117,5.1063,5.103,5.0992,5.092,3.6709,3.8404,4.0059,4.2968,4.4673,4.5968,4.7132,4.8462,4.9542,4.9952,5.0692,5.1443,5.2042,5.0851,4.9865,5.0159,5.0476,5.0682,5.0692,5.0747,5.0793,5.0793,5.0729,5.072,5.0784,5.0748,5.0739,5.0793,5.0902,5.0983,5.0997,5.0958,5.0939,5.1004,5.0832,5.0814,5.0913,5.1037,5.1203,5.1386,5.1274,5.1279,5.1406,5.1334,5.1337,5.1406,5.1406,5.1406,5.1405,5.1405,5.1402,5.1398,5.1403,5.1402,5.1399,5.1405,5.1406,5.1405,5.1406,5.1406,5.1406,5.1406,5.1406,5.1406,5.1406,5.1406,5.1406,5.1406,5.1406,5.1406,5.1406,5.1386,5.1386,5.1386,5.1386,5.1341,5.1232,5.1199,5.1195,5.1195,5.1199,5.1203,5.1203,5.1203,5.1222,5.1291,5.1296,5.133,5.1394,5.1395,5.136,5.1308,5.1308,5.1308,5.1305,5.1366,5.1402,5.1396,5.1394,5.1394,5.1394,5.1403,5.1409,5.139,5.1399,5.1356,5.1291,5.1156,5.1105,5.1099,5.0961,5.0906,3.4905,3.6757,3.8545,4.1514,4.3299,4.4758,4.6374,4.7551,4.8623,4.9861,5.0358,5.0752,5.1343,5.1006,5.0793,5.1272,5.102,5.0756,5.0756,5.081,5.0846,5.0801,5.0808,5.0816,5.0801,5.0829,5.0829,5.0801,5.0841,5.0874,5.0874,4.9854,4.9506,5.0016,4.8991,4.8735,4.935,4.9449,4.9808,5.044,5.0394,5.069,5.1274,5.1255,5.1255,5.1277,5.1277,5.1325,5.1386,5.1308,5.1299,5.1346,5.1345,5.1345,5.1349,5.1385,5.1406,5.1406,5.1406,5.1406,5.1406,5.1406,5.1406,5.1406,5.1406,5.1406,5.1406,5.1406,5.1406,5.1406,5.1406,5.1406,5.1406,5.1406,5.1406,5.1386,5.1335,5.1293,5.1249,5.1249,5.1297,5.1331,5.1331,5.1335,5.1338,5.1356,5.1359,5.136,5.1398,5.1364,5.1328,5.1308,5.1305,5.1301,5.1304,5.1319,5.1339,5.1344,5.1386,5.1402,5.1402,5.1395,5.1391,5.1395,5.1402,5.1384,5.1359,5.1322,5.1274,5.1232,5.1128,5.1072,3.3214,3.5218,3.7266,3.9959,4.1935,4.3683,4.5537,4.6976,4.8283,4.9564,5.0212,5.0699,5.1209,5.1424,5.1542,5.1558,5.1373,5.1243,5.1243,5.1556,5.1766,5.1722,5.1476,5.1291,5.1277,5.1046,5.0872,5.0844,5.0825,5.0825,5.0825,4.9517,4.8879,4.9117,4.8091,4.785,4.8494,4.8511,4.8855,4.9476,4.9707,5.0154,5.0774,5.1033,5.1174,5.1199,5.1189,5.1236,5.133,5.1232,5.1222,5.1272,5.1263,5.1263,5.1277,5.1325,5.1333,5.1334,5.1362,5.1363,5.1364,5.1386,5.1406,5.1406,5.1406,5.1406,5.1406,5.1406,5.1406,5.1406,5.1406,5.1406,5.1406,5.1406,5.1406,5.1406,5.1406,5.1363,5.1334,5.1334,5.1364,5.1406,5.1406,5.1406,5.1405,5.1406,5.1405,5.1405,5.1405,5.1363,5.1317,5.1268,5.1269,5.1284,5.1306,5.1299,5.1302,5.1322,5.1386,5.1405,5.1405,5.1401,5.1398,5.1401,5.1404,5.1405,5.1405,5.1384,5.1338,5.1295,5.1239,5.1189,0.0,0.0,0.0,3.8271,4.0575,4.2796,4.4626,4.6808,4.8637,4.9186,5.0358,5.1413,5.1788,5.216,5.2024,5.0904,5.1526,5.2136,5.2136,5.2931,5.3498,5.3498,5.2702,5.2153,5.2202,5.1435,5.0935,5.0898,5.0898,5.0898,5.0859,5.0066,4.9223,4.8353,4.8314,4.8353,4.843,4.8353,4.8405,4.8557,4.9285,4.9705,4.9874,5.0683,5.1083,5.1152,5.1111,5.1122,5.1195,5.1195,5.1195,5.1199,5.1199,5.1199,5.1199,5.1199,5.1203,5.1214,5.1279,5.1295,5.1301,5.1365,5.1386,5.1386,5.1406,5.1406,5.1406,5.1406,5.1406,5.1406,5.1406,5.1406,5.1406,5.1406,5.1406,5.1406,5.1406,5.1406,5.1406,5.1406,5.1406,5.1406,5.1406,5.1406,5.1404,5.1399,5.1394,5.14,5.14,5.1394,5.1346,5.1201,5.1206,5.1226,5.1286,5.1303,5.1312,5.1397,5.1398,5.1381,5.1381,5.1404,5.1405,5.1405,5.1406,5.1406,5.1406,5.1334,5.1299,5.1297,5.1223,5.1203,3.0096,0.0,0.0,0.0,0.0,0.0,4.3075,4.4576,4.6143,4.876,4.9149,4.9418,5.0712,5.155,5.1883,5.1419,5.2251,5.298,5.3035,5.3265,5.3445,5.3498,5.3277,5.2871,5.226,5.1981,5.1578,5.0955,5.0897,5.0626,4.9988,4.8609,4.7424,4.6561,4.6523,4.6524,4.6545,4.6524,4.6854,4.7514,4.7717,4.8162,4.8845,4.965,5.0044,5.0138,5.0717,5.0969,5.0972,5.0972,5.103,5.1131,5.1131,5.1131,5.1122,5.1178,5.1203,5.1207,5.1225,5.1236,5.1239,5.1258,5.1261,5.1249,5.1304,5.1331,5.1335,5.1386,5.1406,5.1406,5.1406,5.1406,5.1406,5.1406,5.1406,5.1406,5.1406,5.1406,5.1406,5.1406,5.1406,5.1406,5.1405,5.1403,5.1399,5.1394,5.1405,5.141,5.1397,5.1353,5.1296,5.1215,5.1194,5.1208,5.1235,5.1222,5.1203,5.1187,5.1227,5.1261,5.1261,5.1296,5.1321,5.1321,5.1386,5.1385,5.1331,5.1367,5.1365,5.1365,5.1299,5.1255,2.8779,3.0573,3.2409,3.496,0.0,0.0,4.1572,4.3202,4.4911,4.7517,4.7925,4.8169,4.934,5.0415,5.1246,5.1673,5.2665,5.355,5.386,5.4205,5.4465,5.4501,5.4173,5.3767,5.3245,5.2569,5.1943,5.1434,5.1067,5.0334,4.9117,4.7789,4.6672,4.5836,4.5798,4.5812,4.5807,4.5807,4.6051,4.6552,4.6935,4.736,4.7905,4.908,4.9649,4.9745,5.055,5.0898,5.0898,5.0898,5.0959,5.1017,5.1017,5.1017,5.103,5.1066,5.1075,5.1081,5.1147,5.1162,5.1152,5.1191,5.1203,5.1211,5.1255,5.1263,5.1277,5.1337,5.1385,5.1406,5.1406,5.1406,5.1406,5.1406,5.1406,5.1406,5.1406,5.1406,5.1406,5.1406,5.1406,5.1406,5.1405,5.14,5.1394,5.139,5.1394,5.1389,5.1359,5.13,5.1234,5.12,5.1175,5.1163,5.1194,5.1167,5.1152,5.1137,5.1176,5.1197,5.1197,5.1199,5.1213,5.1213,5.1247,5.126,5.1226,5.1339,5.1406,5.1406,5.1364,5.1313,2.7728,2.9621,3.1506,3.3384,3.5423,0.0,3.9958,4.1971,4.3861,4.5639,4.6491,4.7129,4.7842,4.903,5.0279,5.1441,5.2695,5.3786,5.4561,5.5335,5.5846,5.5895,5.522,5.4699,5.4603,5.3253,5.2307,5.2105,5.1112,4.9867,4.8362,4.7378,4.6534,4.5819,4.5807,4.5803,4.5793,4.58,4.5798,4.58,4.6565,4.6959,4.7005,4.8601,4.9389,4.961,5.0415,5.0821,5.0898,5.0898,5.0898,5.0898,5.0898,5.0898,5.0898,5.0898,5.0898,5.0921,5.1037,5.1081,5.1099,5.1142,5.117,5.1174,5.1183,5.1187,5.1207,5.1274,5.1335,5.1386,5.1386,5.1386,5.1406,5.1406,5.1406,5.1406,5.1406,5.1406,5.1406,5.1406,5.1405,5.1404,5.1403,5.1395,5.1405,5.1384,5.1396,5.1356,5.1296,5.1234,5.12,5.1159,5.1121,5.1113,5.1147,5.1113,5.1113,5.1164,5.1176,5.1187,5.1183,5.1126,5.1098,5.1074,5.1089,5.1098,5.1094,5.1277,5.1363,5.138,5.1362,5.1382,2.6661,2.8013,2.943,3.2244,3.3773,0.0,3.7467,3.8364,3.9773,4.352,4.4024,4.4478,4.6797,4.8359,4.9446,4.9972,5.1717,5.3531,5.4968,5.532,5.5546,5.5856,5.5741,5.5374,5.466,5.4294,5.3532,5.2126,4.9959,4.8552,4.8244,4.6783,4.5881,4.5715,4.5773,4.5773,4.5712,4.5761,4.5781,4.5715,4.5896,4.5997,4.6097,4.7063,4.7936,4.8701,4.9571,5.0299,5.0898,5.0898,5.0898,5.0898,5.0898,5.0898,5.0898,5.0898,5.0898,5.0906,5.0937,5.0944,5.0932,5.0942,5.0956,5.0977,5.1086,5.112,5.1122,5.1203,5.1272,5.1327,5.1327,5.1362,5.1406,5.1406,5.1406,5.1405,5.1405,5.1403,5.1401,5.1401,5.1403,5.1401,5.1398,5.1408,5.1374,5.1336,5.1319,5.1292,5.1225,5.1205,5.1093,5.0824,5.0986,5.1015,5.0809,5.0979,5.1084,5.1043,5.108,5.1109,5.1047,5.1022,5.0984,5.0933,5.0946,5.0996,5.1089,5.1139,5.116,5.1156,5.1219,5.124,2.5153,2.6627,2.8039,2.9941,3.1701,0.0,0.0,3.6492,3.8094,4.1092,4.1808,4.2517,4.4487,4.5485,4.652,4.8109,4.9331,5.0713,5.2448,5.4057,5.5126,5.5326,5.535,5.5185,5.4745,5.4305,5.3403,5.1864,4.9754,4.8423,4.8152,4.6587,4.5695,4.5695,4.5735,4.5731,4.5708,4.5605,4.5526,4.5493,4.5352,4.5352,4.5419,4.6263,4.6945,4.7518,4.8807,4.9577,4.9981,5.0394,5.0625,5.0763,5.0866,5.0898,5.0898,5.0898,5.0898,5.0898,5.0898,5.0898,5.0898,5.0898,5.0898,5.0914,5.0976,5.105,5.1117,5.1137,5.1199,5.1235,5.121,5.123,5.1249,5.1243,5.1255,5.1249,5.1249,5.1244,5.1263,5.1286,5.1303,5.1321,5.1399,5.132,5.1234,5.1215,5.105,5.094,5.0912,5.0813,5.0673,5.0481,5.0539,5.0529,5.0361,5.0442,5.0489,5.0442,5.0442,5.0537,5.0692,5.0649,5.0575,5.051,5.0294,5.0316,5.0542,5.0542,5.0712,5.1054,5.1087,5.1109,2.4183,2.5615,2.6928,2.8015,2.9861,3.1792,0.0,0.0,0.0,3.8668,3.9682,4.0635,4.201,4.2585,4.3621,4.6056,4.6852,4.7778,4.945,5.2048,5.386,5.4137,5.4402,5.4579,5.4579,5.3783,5.2883,5.1955,4.9985,4.8659,4.8269,4.6666,4.5704,4.5614,4.5565,4.5545,4.5537,4.5333,4.5225,4.5201,4.4977,4.4927,4.5004,4.5712,4.621,4.6538,4.7925,4.87,4.9045,4.9702,5.0186,5.0547,5.0763,5.0874,5.0898,5.0898,5.0898,5.0898,5.0898,5.0898,5.0898,5.0898,5.0898,5.0898,5.0898,5.0969,5.1063,5.1056,5.1106,5.1146,5.1084,5.1074,5.1098,5.1099,5.1089,5.1084,5.1084,5.1074,5.1108,5.1152,5.1113,5.1142,5.1301,5.1209,5.1064,5.0984,5.0759,5.0564,5.0499,5.0362,5.0202,5.0057,5.0033,4.9985,4.9873,4.9841,4.9841,4.9841,4.9777,4.9905,5.0233,5.014,5.0043,4.9993,4.9678,4.9617,4.9866,4.9898,5.0251,5.0895,5.0926,5.0932,2.4949,2.5204,2.5688,2.8341,2.8962,2.9513,3.1789,0.0,3.3604,3.658,0.0,3.8323,4.0378,0.0,0.0,4.3933,4.5591,4.7114,4.811,4.9266,5.049,5.1738,5.298,5.3741,5.3741,5.2964,5.266,5.3224,5.0342,4.8618,4.88,4.7006,4.5738,4.5262,4.5085,4.4954,4.4908,4.4931,4.4908,4.4868,4.4831,4.4837,4.4927,4.508,4.5586,4.635,4.6642,4.763,4.9006,4.9102,4.9561,5.0264,5.0518,5.0745,5.0898,5.0898,5.0898,5.0898,5.0898,5.0898,5.0898,5.0898,5.0898,5.0898,5.0898,5.0914,5.0921,5.0929,5.0976,5.1017,5.094,5.1,5.1094,5.1094,5.1054,5.1019,5.1019,5.102,5.1017,5.101,5.0826,5.0762,5.1072,5.1064,5.0919,5.0612,5.0538,5.0422,5.0191,5.0145,4.9948,4.9547,4.9695,4.9709,4.942,4.9547,4.9627,4.9627,4.9627,4.9652,4.9695,4.9617,4.9594,4.9561,4.9518,4.9456,4.937,4.9499,4.9905,5.0557,5.0678,5.0737,2.3828,2.4375,2.492,2.6191,2.738,2.8525,2.9589,3.0937,3.2372,3.3815,0.0,0.0,0.0,0.0,0.0,0.0,4.2382,4.3576,4.438,4.5571,4.7342,5.0072,5.0927,5.1601,5.2419,5.2482,5.2477,5.252,5.0297,4.8673,4.801,4.6771,4.5714,4.4992,4.4908,4.4879,4.4788,4.4676,4.4599,4.4559,4.4416,4.4379,4.4481,4.4508,4.4791,4.5217,4.5753,4.6371,4.7103,4.8072,4.8772,4.9271,4.981,5.021,5.0489,5.0489,5.0489,5.0489,5.0489,5.0489,5.0489,5.0489,5.0567,5.0663,5.0663,5.0745,5.0844,5.0827,5.0858,5.0867,5.08,5.0821,5.0867,5.0863,5.0848,5.084,5.084,5.0803,5.0786,5.0871,5.0677,5.0491,5.0578,5.048,5.0381,5.0229,5.0005,4.9819,4.966,4.9522,4.9363,4.9087,4.915,4.9132,4.8919,4.898,4.8992,4.8961,4.9017,4.9046,4.9022,4.8992,4.8975,4.8975,4.8742,4.8547,4.8381,4.8436,4.871,4.9183,4.9662,4.9922,2.3166,2.3742,2.4277,2.4796,2.6299,2.7782,2.825,2.9884,3.1482,3.2034,3.2753,0.0,0.0,0.0,3.6607,3.8551,0.0,4.0271,4.1395,4.2081,4.3899,4.7601,4.8568,4.9509,5.0911,5.1298,5.1452,5.1429,4.9899,4.8655,4.788,4.6822,4.5827,4.5035,4.4776,4.4624,4.4572,4.4388,4.4289,4.4275,4.4075,4.4055,4.4153,4.4184,4.4259,4.4396,4.499,4.5365,4.5683,4.7108,4.7973,4.8438,4.9194,4.9684,4.993,5.0061,5.0109,5.0109,5.0109,5.0109,5.0109,5.0109,5.0222,5.0353,5.0353,5.0498,5.0701,5.0663,5.072,5.0738,5.0606,5.0557,5.0546,5.0413,5.0391,5.0391,5.0388,5.0355,5.0388,5.047,5.0353,5.0152,5.0021,4.9998,4.9955,4.9825,4.9573,4.9321,4.9195,4.8991,4.8838,4.8678,4.8661,4.8587,4.8439,4.8439,4.842,4.8381,4.8328,4.8274,4.8217,4.8084,4.8008,4.8008,4.7702,4.7494,4.7307,4.7331,4.7441,4.763,4.8412,4.8904,2.3732,2.3567,2.3666,2.535,2.6143,2.6939,2.8448,2.9496,3.056,3.2021,3.2466,3.3027,3.4311,3.536,3.6314,3.7297,3.7534,0.0,0.0,3.9281,3.9878,4.3653,4.597,4.7867,4.9331,4.8893,4.9094,5.0442,4.9052,4.8458,4.9202,4.7487,4.6206,4.5585,4.4576,4.4036,4.4036,4.402,4.4002,4.4002,4.3986,4.4005,4.4005,4.4135,4.4199,4.4199,4.4308,4.4786,4.5555,4.6396,4.7252,4.8106,4.8894,4.9211,4.9289,4.9754,4.9911,4.9911,4.9911,4.9911,4.9911,4.9911,4.9911,4.9923,4.9923,5.0149,5.0404,5.0331,5.0488,5.0625,5.0298,5.0218,5.0116,4.9741,4.964,4.9613,4.9547,4.9646,4.9726,4.9721,4.9722,4.9659,4.9457,4.9749,4.9838,4.938,4.9305,4.9195,4.8857,4.8715,4.8532,4.8344,4.8247,4.8149,4.8032,4.8012,4.8012,4.8012,4.753,4.7241,4.7241,4.6756,4.646,4.646,4.6478,4.6425,4.6341,4.6425,4.6336,4.6203,4.7066,4.7736,2.3298,2.308,2.3026,2.422,2.4849,2.5605,2.729,2.8502,2.9671,3.1073,3.1526,3.2056,3.3319,3.3946,3.4529,3.5352,3.5978,3.6526,0.0,3.6783,3.755,4.0013,4.3568,4.6057,4.668,4.7283,4.7843,4.8429,4.7868,4.7545,4.7574,4.6507,4.5709,4.5276,4.4445,4.4005,4.4005,4.3744,4.3744,4.4005,4.3744,4.3744,4.4005,4.4055,4.4119,4.4199,4.4229,4.4378,4.4695,4.5516,4.6336,4.7157,4.7911,4.8598,4.9166,4.9362,4.9431,4.9431,4.9431,4.9431,4.9431,4.9431,4.9535,4.9646,4.9646,4.9811,5.0031,5.0195,5.0183,5.0104,5.0135,4.9974,4.9754,4.9589,4.9466,4.9466,4.9669,4.9584,4.9546,4.9665,4.9562,4.9352,4.9055,4.9034,4.9052,4.8978,4.8856,4.8697,4.8495,4.8249,4.8034,4.7909,4.7726,4.76,4.7539,4.7454,4.7288,4.7008,4.6763,4.6489,4.6209,4.6014,4.5933,4.5933,4.5933,4.5757,4.5381,4.539,4.5364,4.5303,4.5252,4.5761,2.2811,2.2718,2.2756,2.3778,2.429,2.5047,2.7123,2.8171,2.9196,3.0748,3.1343,3.1749,3.2383,3.2721,3.3118,3.3788,3.4103,3.4067,0.0,3.4313,3.5321,3.6404,4.0137,4.3106,4.4261,4.4963,4.5797,4.6918,4.672,4.6641,4.6871,4.5863,4.5219,4.4985,4.4008,4.3508,4.3508,4.3283,4.3319,4.3577,4.3457,4.3543,4.3793,4.3793,4.3844,4.391,4.3763,4.3779,4.3984,4.4749,4.5649,4.6583,4.7299,4.8169,4.8998,4.9081,4.9096,4.9096,4.9096,4.9096,4.9079,4.9081,4.9144,4.9236,4.9185,4.9355,4.9589,4.9752,4.9752,4.9683,4.9692,4.9514,4.9273,4.8957,4.8822,4.8787,4.8889,4.8788,4.879,4.9078,4.8984,4.8799,4.8713,4.8495,4.8402,4.855,4.8401,4.8209,4.811,4.7752,4.7521,4.7493,4.7298,4.7187,4.7187,4.6972,4.6707,4.6454,4.6024,4.5691,4.5433,4.5224,4.5135,4.5135,4.4993,4.4705,4.422,4.4016,4.3735,4.3317,4.2839,4.289]}]]